<?xml version="1.0" encoding="UTF-8" standalone="no" ?>
<gpx xmlns="http://www.topografix.com/GPX/1/1" xmlns:xsi="http://www.w3.org/2001/XMLSchema-instance" xsi:schemaLocation="http://www.topografix.com/GPX/1/1 http://www.topografix.com/GPX/1/1/gpx.xsd" version="1.1" creator="VisuGPX - https://www.visugpx.com">
  <metadata>
    <name>gendarmes 2015</name>
    <desc><![CDATA[gendarmes 2015]]></desc>
  </metadata>
  <trk>
    <name><![CDATA[Les gendarmes et les voleurs de temps 32K]]></name>
    <trkseg>
      <trkpt lat="45.95019" lon="1.39127">
        <ele>386.6</ele>
        <time>2015-05-24T06:30:59Z</time>
      </trkpt>
      <trkpt lat="45.95037" lon="1.39114">
        <ele>386.2</ele>
        <time>2015-05-24T06:31:08Z</time>
      </trkpt>
      <trkpt lat="45.95054" lon="1.39102">
        <ele>386.1</ele>
        <time>2015-05-24T06:31:16Z</time>
      </trkpt>
      <trkpt lat="45.95071" lon="1.3909">
        <ele>386.1</ele>
        <time>2015-05-24T06:31:25Z</time>
      </trkpt>
      <trkpt lat="45.95087" lon="1.39076">
        <ele>386</ele>
        <time>2015-05-24T06:31:33Z</time>
      </trkpt>
      <trkpt lat="45.95103" lon="1.39062">
        <ele>386</ele>
        <time>2015-05-24T06:31:41Z</time>
      </trkpt>
      <trkpt lat="45.95121" lon="1.39051">
        <ele>386.3</ele>
        <time>2015-05-24T06:31:49Z</time>
      </trkpt>
      <trkpt lat="45.95139" lon="1.39038">
        <ele>387.2</ele>
        <time>2015-05-24T06:31:57Z</time>
      </trkpt>
      <trkpt lat="45.95156" lon="1.39024">
        <ele>389</ele>
        <time>2015-05-24T06:32:06Z</time>
      </trkpt>
      <trkpt lat="45.95174" lon="1.39012">
        <ele>390.7</ele>
        <time>2015-05-24T06:32:16Z</time>
      </trkpt>
      <trkpt lat="45.95191" lon="1.39004">
        <ele>392.1</ele>
        <time>2015-05-24T06:32:28Z</time>
      </trkpt>
      <trkpt lat="45.95199" lon="1.39004">
        <ele>392.7</ele>
        <time>2015-05-24T06:32:32Z</time>
      </trkpt>
      <trkpt lat="45.95213" lon="1.39021">
        <ele>393.7</ele>
        <time>2015-05-24T06:32:41Z</time>
      </trkpt>
      <trkpt lat="45.95223" lon="1.39044">
        <ele>394.5</ele>
        <time>2015-05-24T06:32:50Z</time>
      </trkpt>
      <trkpt lat="45.95224" lon="1.3907">
        <ele>395.6</ele>
        <time>2015-05-24T06:33:00Z</time>
      </trkpt>
      <trkpt lat="45.95218" lon="1.39096">
        <ele>396</ele>
        <time>2015-05-24T06:33:07Z</time>
      </trkpt>
      <trkpt lat="45.95211" lon="1.39122">
        <ele>396.2</ele>
        <time>2015-05-24T06:33:14Z</time>
      </trkpt>
      <trkpt lat="45.95205" lon="1.39146">
        <ele>396.8</ele>
        <time>2015-05-24T06:33:21Z</time>
      </trkpt>
      <trkpt lat="45.95195" lon="1.3917">
        <ele>397.2</ele>
        <time>2015-05-24T06:33:29Z</time>
      </trkpt>
      <trkpt lat="45.95185" lon="1.39192">
        <ele>397.5</ele>
        <time>2015-05-24T06:33:37Z</time>
      </trkpt>
      <trkpt lat="45.95173" lon="1.39214">
        <ele>397.7</ele>
        <time>2015-05-24T06:33:45Z</time>
      </trkpt>
      <trkpt lat="45.95159" lon="1.39234">
        <ele>397.8</ele>
        <time>2015-05-24T06:33:53Z</time>
      </trkpt>
      <trkpt lat="45.95142" lon="1.39246">
        <ele>397.4</ele>
        <time>2015-05-24T06:34:00Z</time>
      </trkpt>
      <trkpt lat="45.95126" lon="1.39257">
        <ele>397</ele>
        <time>2015-05-24T06:34:07Z</time>
      </trkpt>
      <trkpt lat="45.95107" lon="1.39266">
        <ele>397.5</ele>
        <time>2015-05-24T06:34:14Z</time>
      </trkpt>
      <trkpt lat="45.95087" lon="1.39264">
        <ele>397.5</ele>
        <time>2015-05-24T06:34:21Z</time>
      </trkpt>
      <trkpt lat="45.9507" lon="1.39253">
        <ele>396.7</ele>
        <time>2015-05-24T06:34:27Z</time>
      </trkpt>
      <trkpt lat="45.95053" lon="1.39237">
        <ele>395.4</ele>
        <time>2015-05-24T06:34:34Z</time>
      </trkpt>
      <trkpt lat="45.95037" lon="1.3922">
        <ele>393.8</ele>
        <time>2015-05-24T06:34:41Z</time>
      </trkpt>
      <trkpt lat="45.95021" lon="1.39207">
        <ele>392.1</ele>
        <time>2015-05-24T06:34:47Z</time>
      </trkpt>
      <trkpt lat="45.95004" lon="1.39192">
        <ele>390.6</ele>
        <time>2015-05-24T06:34:54Z</time>
      </trkpt>
      <trkpt lat="45.94986" lon="1.3918">
        <ele>389.2</ele>
        <time>2015-05-24T06:35:02Z</time>
      </trkpt>
      <trkpt lat="45.94977" lon="1.39155">
        <ele>387.3</ele>
        <time>2015-05-24T06:35:10Z</time>
      </trkpt>
      <trkpt lat="45.94969" lon="1.39129">
        <ele>385.5</ele>
        <time>2015-05-24T06:35:16Z</time>
      </trkpt>
      <trkpt lat="45.94962" lon="1.39104">
        <ele>384.1</ele>
        <time>2015-05-24T06:35:22Z</time>
      </trkpt>
      <trkpt lat="45.94951" lon="1.39079">
        <ele>382.6</ele>
        <time>2015-05-24T06:35:29Z</time>
      </trkpt>
      <trkpt lat="45.94941" lon="1.39053">
        <ele>381.4</ele>
        <time>2015-05-24T06:35:36Z</time>
      </trkpt>
      <trkpt lat="45.94932" lon="1.3903">
        <ele>381.5</ele>
        <time>2015-05-24T06:35:42Z</time>
      </trkpt>
      <trkpt lat="45.94927" lon="1.39002">
        <ele>382.7</ele>
        <time>2015-05-24T06:35:49Z</time>
      </trkpt>
      <trkpt lat="45.94921" lon="1.38973">
        <ele>384.1</ele>
        <time>2015-05-24T06:35:56Z</time>
      </trkpt>
      <trkpt lat="45.94915" lon="1.38947">
        <ele>385.8</ele>
        <time>2015-05-24T06:36:02Z</time>
      </trkpt>
      <trkpt lat="45.94912" lon="1.38921">
        <ele>387.7</ele>
        <time>2015-05-24T06:36:08Z</time>
      </trkpt>
      <trkpt lat="45.94907" lon="1.38892">
        <ele>389.8</ele>
        <time>2015-05-24T06:36:15Z</time>
      </trkpt>
      <trkpt lat="45.94908" lon="1.38865">
        <ele>391.1</ele>
        <time>2015-05-24T06:36:24Z</time>
      </trkpt>
      <trkpt lat="45.94918" lon="1.38844">
        <ele>391.4</ele>
        <time>2015-05-24T06:36:34Z</time>
      </trkpt>
      <trkpt lat="45.94925" lon="1.38819">
        <ele>391.9</ele>
        <time>2015-05-24T06:36:43Z</time>
      </trkpt>
      <trkpt lat="45.94932" lon="1.38795">
        <ele>392.5</ele>
        <time>2015-05-24T06:36:50Z</time>
      </trkpt>
      <trkpt lat="45.94944" lon="1.38775">
        <ele>392.8</ele>
        <time>2015-05-24T06:36:56Z</time>
      </trkpt>
      <trkpt lat="45.94947" lon="1.38773">
        <ele>392.9</ele>
        <time>2015-05-24T06:36:57Z</time>
      </trkpt>
      <trkpt lat="45.9495" lon="1.38771">
        <ele>392.9</ele>
        <time>2015-05-24T06:36:58Z</time>
      </trkpt>
      <trkpt lat="45.94968" lon="1.38767">
        <ele>392.9</ele>
        <time>2015-05-24T06:37:04Z</time>
      </trkpt>
      <trkpt lat="45.94986" lon="1.38773">
        <ele>392.6</ele>
        <time>2015-05-24T06:37:10Z</time>
      </trkpt>
      <trkpt lat="45.95004" lon="1.38782">
        <ele>392.1</ele>
        <time>2015-05-24T06:37:17Z</time>
      </trkpt>
      <trkpt lat="45.95022" lon="1.38792">
        <ele>391.2</ele>
        <time>2015-05-24T06:37:24Z</time>
      </trkpt>
      <trkpt lat="45.9504" lon="1.38804">
        <ele>390.2</ele>
        <time>2015-05-24T06:37:31Z</time>
      </trkpt>
      <trkpt lat="45.95056" lon="1.38821">
        <ele>389</ele>
        <time>2015-05-24T06:37:38Z</time>
      </trkpt>
      <trkpt lat="45.95068" lon="1.38842">
        <ele>387.7</ele>
        <time>2015-05-24T06:37:45Z</time>
      </trkpt>
      <trkpt lat="45.95076" lon="1.38867">
        <ele>386.3</ele>
        <time>2015-05-24T06:37:52Z</time>
      </trkpt>
      <trkpt lat="45.9508" lon="1.38893">
        <ele>385.8</ele>
        <time>2015-05-24T06:37:59Z</time>
      </trkpt>
      <trkpt lat="45.95087" lon="1.3892">
        <ele>385.9</ele>
        <time>2015-05-24T06:38:07Z</time>
      </trkpt>
      <trkpt lat="45.95102" lon="1.38938">
        <ele>386.6</ele>
        <time>2015-05-24T06:38:16Z</time>
      </trkpt>
      <trkpt lat="45.95119" lon="1.38953">
        <ele>387.6</ele>
        <time>2015-05-24T06:38:24Z</time>
      </trkpt>
      <trkpt lat="45.95134" lon="1.38969">
        <ele>388.4</ele>
        <time>2015-05-24T06:38:32Z</time>
      </trkpt>
      <trkpt lat="45.9515" lon="1.38982">
        <ele>389.3</ele>
        <time>2015-05-24T06:38:40Z</time>
      </trkpt>
      <trkpt lat="45.95165" lon="1.38997">
        <ele>390.2</ele>
        <time>2015-05-24T06:38:48Z</time>
      </trkpt>
      <trkpt lat="45.95172" lon="1.39002">
        <ele>390.6</ele>
        <time>2015-05-24T06:38:52Z</time>
      </trkpt>
      <trkpt lat="45.95188" lon="1.38989">
        <ele>392</ele>
        <time>2015-05-24T06:39:00Z</time>
      </trkpt>
      <trkpt lat="45.95196" lon="1.38972">
        <ele>392.9</ele>
        <time>2015-05-24T06:39:06Z</time>
      </trkpt>
      <trkpt lat="45.95194" lon="1.38956">
        <ele>392.9</ele>
        <time>2015-05-24T06:39:11Z</time>
      </trkpt>
      <trkpt lat="45.95183" lon="1.38932">
        <ele>392.1</ele>
        <time>2015-05-24T06:39:19Z</time>
      </trkpt>
      <trkpt lat="45.9517" lon="1.3891">
        <ele>391</ele>
        <time>2015-05-24T06:39:27Z</time>
      </trkpt>
      <trkpt lat="45.95157" lon="1.3889">
        <ele>389.8</ele>
        <time>2015-05-24T06:39:34Z</time>
      </trkpt>
      <trkpt lat="45.95142" lon="1.38871">
        <ele>388.5</ele>
        <time>2015-05-24T06:39:41Z</time>
      </trkpt>
      <trkpt lat="45.95131" lon="1.38847">
        <ele>388.7</ele>
        <time>2015-05-24T06:39:48Z</time>
      </trkpt>
      <trkpt lat="45.95122" lon="1.38821">
        <ele>389.6</ele>
        <time>2015-05-24T06:39:55Z</time>
      </trkpt>
      <trkpt lat="45.9511" lon="1.38797">
        <ele>390.7</ele>
        <time>2015-05-24T06:40:02Z</time>
      </trkpt>
      <trkpt lat="45.95098" lon="1.38778">
        <ele>392.6</ele>
        <time>2015-05-24T06:40:09Z</time>
      </trkpt>
      <trkpt lat="45.95084" lon="1.38759">
        <ele>394.5</ele>
        <time>2015-05-24T06:40:16Z</time>
      </trkpt>
      <trkpt lat="45.95069" lon="1.3874">
        <ele>396.2</ele>
        <time>2015-05-24T06:40:24Z</time>
      </trkpt>
      <trkpt lat="45.95055" lon="1.38721">
        <ele>397.5</ele>
        <time>2015-05-24T06:40:32Z</time>
      </trkpt>
      <trkpt lat="45.95042" lon="1.38702">
        <ele>398.4</ele>
        <time>2015-05-24T06:40:39Z</time>
      </trkpt>
      <trkpt lat="45.95029" lon="1.38683">
        <ele>399</ele>
        <time>2015-05-24T06:40:46Z</time>
      </trkpt>
      <trkpt lat="45.95016" lon="1.38664">
        <ele>399.6</ele>
        <time>2015-05-24T06:40:53Z</time>
      </trkpt>
      <trkpt lat="45.95002" lon="1.38646">
        <ele>400</ele>
        <time>2015-05-24T06:41:00Z</time>
      </trkpt>
      <trkpt lat="45.94988" lon="1.38629">
        <ele>400.2</ele>
        <time>2015-05-24T06:41:07Z</time>
      </trkpt>
      <trkpt lat="45.94974" lon="1.38612">
        <ele>399.1</ele>
        <time>2015-05-24T06:41:14Z</time>
      </trkpt>
      <trkpt lat="45.94961" lon="1.38594">
        <ele>397.3</ele>
        <time>2015-05-24T06:41:21Z</time>
      </trkpt>
      <trkpt lat="45.94952" lon="1.38569">
        <ele>395.2</ele>
        <time>2015-05-24T06:41:28Z</time>
      </trkpt>
      <trkpt lat="45.94952" lon="1.3854">
        <ele>393.4</ele>
        <time>2015-05-24T06:41:35Z</time>
      </trkpt>
      <trkpt lat="45.94954" lon="1.38511">
        <ele>393</ele>
        <time>2015-05-24T06:41:42Z</time>
      </trkpt>
      <trkpt lat="45.94958" lon="1.38482">
        <ele>392.6</ele>
        <time>2015-05-24T06:41:49Z</time>
      </trkpt>
      <trkpt lat="45.94963" lon="1.38453">
        <ele>392.7</ele>
        <time>2015-05-24T06:41:56Z</time>
      </trkpt>
      <trkpt lat="45.94967" lon="1.38426">
        <ele>393.9</ele>
        <time>2015-05-24T06:42:03Z</time>
      </trkpt>
      <trkpt lat="45.94971" lon="1.38399">
        <ele>395.1</ele>
        <time>2015-05-24T06:42:10Z</time>
      </trkpt>
      <trkpt lat="45.94976" lon="1.38373">
        <ele>396.1</ele>
        <time>2015-05-24T06:42:17Z</time>
      </trkpt>
      <trkpt lat="45.94981" lon="1.38345">
        <ele>397.1</ele>
        <time>2015-05-24T06:42:25Z</time>
      </trkpt>
      <trkpt lat="45.94987" lon="1.3832">
        <ele>397.8</ele>
        <time>2015-05-24T06:42:32Z</time>
      </trkpt>
      <trkpt lat="45.94991" lon="1.38299">
        <ele>398.3</ele>
        <time>2015-05-24T06:42:38Z</time>
      </trkpt>
      <trkpt lat="45.94984" lon="1.38273">
        <ele>397.9</ele>
        <time>2015-05-24T06:42:45Z</time>
      </trkpt>
      <trkpt lat="45.94982" lon="1.38272">
        <ele>397.9</ele>
        <time>2015-05-24T06:42:46Z</time>
      </trkpt>
      <trkpt lat="45.94968" lon="1.38277">
        <ele>397.8</ele>
        <time>2015-05-24T06:42:52Z</time>
      </trkpt>
      <trkpt lat="45.94951" lon="1.38291">
        <ele>398.4</ele>
        <time>2015-05-24T06:42:59Z</time>
      </trkpt>
      <trkpt lat="45.94933" lon="1.38305">
        <ele>398.9</ele>
        <time>2015-05-24T06:43:06Z</time>
      </trkpt>
      <trkpt lat="45.94917" lon="1.38318">
        <ele>399.1</ele>
        <time>2015-05-24T06:43:13Z</time>
      </trkpt>
      <trkpt lat="45.94909" lon="1.3832">
        <ele>399.3</ele>
        <time>2015-05-24T06:43:17Z</time>
      </trkpt>
      <trkpt lat="45.94901" lon="1.38321">
        <ele>399.7</ele>
        <time>2015-05-24T06:43:21Z</time>
      </trkpt>
      <trkpt lat="45.94882" lon="1.38316">
        <ele>400.9</ele>
        <time>2015-05-24T06:43:29Z</time>
      </trkpt>
      <trkpt lat="45.94866" lon="1.38302">
        <ele>403.4</ele>
        <time>2015-05-24T06:43:40Z</time>
      </trkpt>
      <trkpt lat="45.94853" lon="1.38281">
        <ele>406</ele>
        <time>2015-05-24T06:43:49Z</time>
      </trkpt>
      <trkpt lat="45.9484" lon="1.38262">
        <ele>407.9</ele>
        <time>2015-05-24T06:43:58Z</time>
      </trkpt>
      <trkpt lat="45.94827" lon="1.38243">
        <ele>410</ele>
        <time>2015-05-24T06:44:08Z</time>
      </trkpt>
      <trkpt lat="45.94818" lon="1.38218">
        <ele>412</ele>
        <time>2015-05-24T06:44:15Z</time>
      </trkpt>
      <trkpt lat="45.9481" lon="1.38191">
        <ele>413</ele>
        <time>2015-05-24T06:44:23Z</time>
      </trkpt>
      <trkpt lat="45.948" lon="1.3817">
        <ele>413.9</ele>
        <time>2015-05-24T06:44:30Z</time>
      </trkpt>
      <trkpt lat="45.94791" lon="1.38147">
        <ele>414.1</ele>
        <time>2015-05-24T06:44:37Z</time>
      </trkpt>
      <trkpt lat="45.94779" lon="1.38126">
        <ele>413.5</ele>
        <time>2015-05-24T06:44:46Z</time>
      </trkpt>
      <trkpt lat="45.94765" lon="1.38106">
        <ele>413.3</ele>
        <time>2015-05-24T06:44:55Z</time>
      </trkpt>
      <trkpt lat="45.94758" lon="1.38098">
        <ele>413.2</ele>
        <time>2015-05-24T06:44:58Z</time>
      </trkpt>
      <trkpt lat="45.94749" lon="1.38089">
        <ele>413.2</ele>
        <time>2015-05-24T06:45:04Z</time>
      </trkpt>
      <trkpt lat="45.94733" lon="1.38074">
        <ele>413.3</ele>
        <time>2015-05-24T06:45:14Z</time>
      </trkpt>
      <trkpt lat="45.94726" lon="1.38067">
        <ele>413.3</ele>
        <time>2015-05-24T06:45:18Z</time>
      </trkpt>
      <trkpt lat="45.94722" lon="1.38062">
        <ele>413.2</ele>
        <time>2015-05-24T06:45:20Z</time>
      </trkpt>
      <trkpt lat="45.94714" lon="1.38054">
        <ele>413.2</ele>
        <time>2015-05-24T06:45:24Z</time>
      </trkpt>
      <trkpt lat="45.94698" lon="1.38041">
        <ele>413</ele>
        <time>2015-05-24T06:45:33Z</time>
      </trkpt>
      <trkpt lat="45.94679" lon="1.38031">
        <ele>412.7</ele>
        <time>2015-05-24T06:45:41Z</time>
      </trkpt>
      <trkpt lat="45.94673" lon="1.38028">
        <ele>412.7</ele>
        <time>2015-05-24T06:45:43Z</time>
      </trkpt>
      <trkpt lat="45.94661" lon="1.38007">
        <ele>412.5</ele>
        <time>2015-05-24T06:45:51Z</time>
      </trkpt>
      <trkpt lat="45.94659" lon="1.38004">
        <ele>412.5</ele>
        <time>2015-05-24T06:45:52Z</time>
      </trkpt>
      <trkpt lat="45.94647" lon="1.3798">
        <ele>412.8</ele>
        <time>2015-05-24T06:46:00Z</time>
      </trkpt>
      <trkpt lat="45.94637" lon="1.37957">
        <ele>413.3</ele>
        <time>2015-05-24T06:46:07Z</time>
      </trkpt>
      <trkpt lat="45.94626" lon="1.37934">
        <ele>413.9</ele>
        <time>2015-05-24T06:46:13Z</time>
      </trkpt>
      <trkpt lat="45.94622" lon="1.37909">
        <ele>413.8</ele>
        <time>2015-05-24T06:46:20Z</time>
      </trkpt>
      <trkpt lat="45.94616" lon="1.37883">
        <ele>413.3</ele>
        <time>2015-05-24T06:46:27Z</time>
      </trkpt>
      <trkpt lat="45.94609" lon="1.37858">
        <ele>413</ele>
        <time>2015-05-24T06:46:34Z</time>
      </trkpt>
      <trkpt lat="45.94601" lon="1.37834">
        <ele>412.7</ele>
        <time>2015-05-24T06:46:40Z</time>
      </trkpt>
      <trkpt lat="45.94589" lon="1.3781">
        <ele>411.9</ele>
        <time>2015-05-24T06:46:47Z</time>
      </trkpt>
      <trkpt lat="45.94576" lon="1.37789">
        <ele>410.8</ele>
        <time>2015-05-24T06:46:54Z</time>
      </trkpt>
      <trkpt lat="45.94563" lon="1.37768">
        <ele>409.3</ele>
        <time>2015-05-24T06:47:02Z</time>
      </trkpt>
      <trkpt lat="45.94549" lon="1.37748">
        <ele>407.8</ele>
        <time>2015-05-24T06:47:09Z</time>
      </trkpt>
      <trkpt lat="45.94535" lon="1.37727">
        <ele>406.5</ele>
        <time>2015-05-24T06:47:17Z</time>
      </trkpt>
      <trkpt lat="45.94523" lon="1.37706">
        <ele>405.4</ele>
        <time>2015-05-24T06:47:24Z</time>
      </trkpt>
      <trkpt lat="45.94526" lon="1.37682">
        <ele>405</ele>
        <time>2015-05-24T06:47:32Z</time>
      </trkpt>
      <trkpt lat="45.94539" lon="1.37661">
        <ele>405.1</ele>
        <time>2015-05-24T06:47:39Z</time>
      </trkpt>
      <trkpt lat="45.9455" lon="1.37638">
        <ele>405.2</ele>
        <time>2015-05-24T06:47:46Z</time>
      </trkpt>
      <trkpt lat="45.94559" lon="1.37616">
        <ele>405.5</ele>
        <time>2015-05-24T06:47:53Z</time>
      </trkpt>
      <trkpt lat="45.94567" lon="1.37591">
        <ele>405.9</ele>
        <time>2015-05-24T06:48:00Z</time>
      </trkpt>
      <trkpt lat="45.94573" lon="1.37566">
        <ele>406</ele>
        <time>2015-05-24T06:48:07Z</time>
      </trkpt>
      <trkpt lat="45.94588" lon="1.37547">
        <ele>407</ele>
        <time>2015-05-24T06:48:15Z</time>
      </trkpt>
      <trkpt lat="45.94603" lon="1.37529">
        <ele>408.8</ele>
        <time>2015-05-24T06:48:23Z</time>
      </trkpt>
      <trkpt lat="45.94618" lon="1.37514">
        <ele>410.6</ele>
        <time>2015-05-24T06:48:31Z</time>
      </trkpt>
      <trkpt lat="45.94635" lon="1.37499">
        <ele>411.9</ele>
        <time>2015-05-24T06:48:39Z</time>
      </trkpt>
      <trkpt lat="45.94638" lon="1.37498">
        <ele>412</ele>
        <time>2015-05-24T06:48:40Z</time>
      </trkpt>
      <trkpt lat="45.94655" lon="1.37484">
        <ele>413.2</ele>
        <time>2015-05-24T06:48:48Z</time>
      </trkpt>
      <trkpt lat="45.94671" lon="1.3747">
        <ele>414.2</ele>
        <time>2015-05-24T06:48:56Z</time>
      </trkpt>
      <trkpt lat="45.94682" lon="1.37466">
        <ele>414.8</ele>
        <time>2015-05-24T06:49:01Z</time>
      </trkpt>
      <trkpt lat="45.94691" lon="1.37473">
        <ele>414.9</ele>
        <time>2015-05-24T06:49:06Z</time>
      </trkpt>
      <trkpt lat="45.94707" lon="1.37485">
        <ele>415</ele>
        <time>2015-05-24T06:49:12Z</time>
      </trkpt>
      <trkpt lat="45.94711" lon="1.37487">
        <ele>414.9</ele>
        <time>2015-05-24T06:49:14Z</time>
      </trkpt>
      <trkpt lat="45.94718" lon="1.37482">
        <ele>415</ele>
        <time>2015-05-24T06:49:18Z</time>
      </trkpt>
      <trkpt lat="45.94718" lon="1.3748">
        <ele>415.1</ele>
        <time>2015-05-24T06:49:19Z</time>
      </trkpt>
      <trkpt lat="45.94717" lon="1.37455">
        <ele>416</ele>
        <time>2015-05-24T06:49:29Z</time>
      </trkpt>
      <trkpt lat="45.94727" lon="1.37436">
        <ele>416.8</ele>
        <time>2015-05-24T06:49:36Z</time>
      </trkpt>
      <trkpt lat="45.94732" lon="1.37426">
        <ele>417.3</ele>
        <time>2015-05-24T06:49:40Z</time>
      </trkpt>
      <trkpt lat="45.94745" lon="1.37404">
        <ele>418.7</ele>
        <time>2015-05-24T06:49:48Z</time>
      </trkpt>
      <trkpt lat="45.94751" lon="1.37397">
        <ele>419.2</ele>
        <time>2015-05-24T06:49:53Z</time>
      </trkpt>
      <trkpt lat="45.94761" lon="1.37397">
        <ele>419.4</ele>
        <time>2015-05-24T06:50:01Z</time>
      </trkpt>
      <trkpt lat="45.94775" lon="1.37406">
        <ele>419.1</ele>
        <time>2015-05-24T06:50:09Z</time>
      </trkpt>
      <trkpt lat="45.9479" lon="1.37424">
        <ele>417.9</ele>
        <time>2015-05-24T06:50:17Z</time>
      </trkpt>
      <trkpt lat="45.94804" lon="1.37441">
        <ele>416.5</ele>
        <time>2015-05-24T06:50:25Z</time>
      </trkpt>
      <trkpt lat="45.94821" lon="1.37455">
        <ele>415.9</ele>
        <time>2015-05-24T06:50:33Z</time>
      </trkpt>
      <trkpt lat="45.94836" lon="1.37472">
        <ele>415.1</ele>
        <time>2015-05-24T06:50:42Z</time>
      </trkpt>
      <trkpt lat="45.94852" lon="1.37484">
        <ele>414.7</ele>
        <time>2015-05-24T06:50:49Z</time>
      </trkpt>
      <trkpt lat="45.94869" lon="1.37498">
        <ele>414.1</ele>
        <time>2015-05-24T06:50:58Z</time>
      </trkpt>
      <trkpt lat="45.9487" lon="1.37498">
        <ele>414.1</ele>
        <time>2015-05-24T06:50:59Z</time>
      </trkpt>
      <trkpt lat="45.9489" lon="1.37501">
        <ele>414.1</ele>
        <time>2015-05-24T06:51:08Z</time>
      </trkpt>
      <trkpt lat="45.94899" lon="1.37502">
        <ele>414.1</ele>
        <time>2015-05-24T06:51:12Z</time>
      </trkpt>
      <trkpt lat="45.94901" lon="1.37503">
        <ele>414.1</ele>
        <time>2015-05-24T06:51:13Z</time>
      </trkpt>
      <trkpt lat="45.94923" lon="1.37503">
        <ele>414.4</ele>
        <time>2015-05-24T06:51:20Z</time>
      </trkpt>
      <trkpt lat="45.94944" lon="1.37504">
        <ele>414.5</ele>
        <time>2015-05-24T06:51:27Z</time>
      </trkpt>
      <trkpt lat="45.94953" lon="1.37504">
        <ele>414.6</ele>
        <time>2015-05-24T06:51:29Z</time>
      </trkpt>
      <trkpt lat="45.94972" lon="1.37505">
        <ele>414.2</ele>
        <time>2015-05-24T06:51:34Z</time>
      </trkpt>
      <trkpt lat="45.94994" lon="1.37507">
        <ele>413.2</ele>
        <time>2015-05-24T06:51:40Z</time>
      </trkpt>
      <trkpt lat="45.95001" lon="1.37509">
        <ele>412.9</ele>
        <time>2015-05-24T06:51:42Z</time>
      </trkpt>
      <trkpt lat="45.95021" lon="1.37512">
        <ele>412</ele>
        <time>2015-05-24T06:51:47Z</time>
      </trkpt>
      <trkpt lat="45.9504" lon="1.37519">
        <ele>411.3</ele>
        <time>2015-05-24T06:51:52Z</time>
      </trkpt>
      <trkpt lat="45.95058" lon="1.3752">
        <ele>410.7</ele>
        <time>2015-05-24T06:51:59Z</time>
      </trkpt>
      <trkpt lat="45.95078" lon="1.3752">
        <ele>409.9</ele>
        <time>2015-05-24T06:52:06Z</time>
      </trkpt>
      <trkpt lat="45.95099" lon="1.37518">
        <ele>409.2</ele>
        <time>2015-05-24T06:52:13Z</time>
      </trkpt>
      <trkpt lat="45.95116" lon="1.37522">
        <ele>408.6</ele>
        <time>2015-05-24T06:52:22Z</time>
      </trkpt>
      <trkpt lat="45.95123" lon="1.3753">
        <ele>408.2</ele>
        <time>2015-05-24T06:52:27Z</time>
      </trkpt>
      <trkpt lat="45.95129" lon="1.37535">
        <ele>408</ele>
        <time>2015-05-24T06:52:31Z</time>
      </trkpt>
      <trkpt lat="45.95146" lon="1.37549">
        <ele>407.6</ele>
        <time>2015-05-24T06:52:39Z</time>
      </trkpt>
      <trkpt lat="45.95163" lon="1.37559">
        <ele>407.4</ele>
        <time>2015-05-24T06:52:44Z</time>
      </trkpt>
      <trkpt lat="45.95183" lon="1.37566">
        <ele>407.4</ele>
        <time>2015-05-24T06:52:49Z</time>
      </trkpt>
      <trkpt lat="45.95202" lon="1.37571">
        <ele>407.6</ele>
        <time>2015-05-24T06:52:54Z</time>
      </trkpt>
      <trkpt lat="45.95222" lon="1.37579">
        <ele>408</ele>
        <time>2015-05-24T06:53:00Z</time>
      </trkpt>
      <trkpt lat="45.95239" lon="1.37594">
        <ele>408.4</ele>
        <time>2015-05-24T06:53:06Z</time>
      </trkpt>
      <trkpt lat="45.95252" lon="1.37614">
        <ele>408.8</ele>
        <time>2015-05-24T06:53:12Z</time>
      </trkpt>
      <trkpt lat="45.95265" lon="1.37631">
        <ele>408.9</ele>
        <time>2015-05-24T06:53:18Z</time>
      </trkpt>
      <trkpt lat="45.95277" lon="1.37651">
        <ele>408.5</ele>
        <time>2015-05-24T06:53:24Z</time>
      </trkpt>
      <trkpt lat="45.95288" lon="1.37676">
        <ele>408.3</ele>
        <time>2015-05-24T06:53:31Z</time>
      </trkpt>
      <trkpt lat="45.95295" lon="1.377">
        <ele>408.2</ele>
        <time>2015-05-24T06:53:37Z</time>
      </trkpt>
      <trkpt lat="45.95293" lon="1.37726">
        <ele>407.8</ele>
        <time>2015-05-24T06:53:43Z</time>
      </trkpt>
      <trkpt lat="45.95294" lon="1.37755">
        <ele>407.5</ele>
        <time>2015-05-24T06:53:50Z</time>
      </trkpt>
      <trkpt lat="45.95295" lon="1.37785">
        <ele>407.1</ele>
        <time>2015-05-24T06:53:57Z</time>
      </trkpt>
      <trkpt lat="45.95297" lon="1.37811">
        <ele>407</ele>
        <time>2015-05-24T06:54:03Z</time>
      </trkpt>
      <trkpt lat="45.95301" lon="1.3784">
        <ele>406.9</ele>
        <time>2015-05-24T06:54:10Z</time>
      </trkpt>
      <trkpt lat="45.95305" lon="1.37866">
        <ele>406.7</ele>
        <time>2015-05-24T06:54:16Z</time>
      </trkpt>
      <trkpt lat="45.95307" lon="1.37874">
        <ele>406.6</ele>
        <time>2015-05-24T06:54:18Z</time>
      </trkpt>
      <trkpt lat="45.95311" lon="1.379">
        <ele>405.9</ele>
        <time>2015-05-24T06:54:25Z</time>
      </trkpt>
      <trkpt lat="45.95316" lon="1.37926">
        <ele>405.1</ele>
        <time>2015-05-24T06:54:34Z</time>
      </trkpt>
      <trkpt lat="45.95322" lon="1.37953">
        <ele>404.5</ele>
        <time>2015-05-24T06:54:41Z</time>
      </trkpt>
      <trkpt lat="45.95324" lon="1.37982">
        <ele>403.9</ele>
        <time>2015-05-24T06:54:48Z</time>
      </trkpt>
      <trkpt lat="45.95327" lon="1.38011">
        <ele>403.3</ele>
        <time>2015-05-24T06:54:56Z</time>
      </trkpt>
      <trkpt lat="45.95329" lon="1.3804">
        <ele>402.8</ele>
        <time>2015-05-24T06:55:04Z</time>
      </trkpt>
      <trkpt lat="45.9533" lon="1.38069">
        <ele>403.3</ele>
        <time>2015-05-24T06:55:12Z</time>
      </trkpt>
      <trkpt lat="45.95332" lon="1.38097">
        <ele>403.9</ele>
        <time>2015-05-24T06:55:20Z</time>
      </trkpt>
      <trkpt lat="45.95333" lon="1.38123">
        <ele>404.4</ele>
        <time>2015-05-24T06:55:27Z</time>
      </trkpt>
      <trkpt lat="45.95332" lon="1.38126">
        <ele>404.5</ele>
        <time>2015-05-24T06:55:28Z</time>
      </trkpt>
      <trkpt lat="45.95332" lon="1.38141">
        <ele>405.1</ele>
        <time>2015-05-24T06:55:32Z</time>
      </trkpt>
      <trkpt lat="45.95315" lon="1.38154">
        <ele>404.4</ele>
        <time>2015-05-24T06:55:40Z</time>
      </trkpt>
      <trkpt lat="45.95296" lon="1.38167">
        <ele>403.8</ele>
        <time>2015-05-24T06:55:48Z</time>
      </trkpt>
      <trkpt lat="45.95279" lon="1.38179">
        <ele>403.9</ele>
        <time>2015-05-24T06:55:56Z</time>
      </trkpt>
      <trkpt lat="45.95263" lon="1.38194">
        <ele>404.5</ele>
        <time>2015-05-24T06:56:04Z</time>
      </trkpt>
      <trkpt lat="45.95247" lon="1.38211">
        <ele>405.1</ele>
        <time>2015-05-24T06:56:12Z</time>
      </trkpt>
      <trkpt lat="45.95231" lon="1.38226">
        <ele>406.2</ele>
        <time>2015-05-24T06:56:20Z</time>
      </trkpt>
      <trkpt lat="45.95215" lon="1.3824">
        <ele>407.1</ele>
        <time>2015-05-24T06:56:29Z</time>
      </trkpt>
      <trkpt lat="45.95199" lon="1.38257">
        <ele>408</ele>
        <time>2015-05-24T06:56:37Z</time>
      </trkpt>
      <trkpt lat="45.95189" lon="1.38281">
        <ele>409.2</ele>
        <time>2015-05-24T06:56:46Z</time>
      </trkpt>
      <trkpt lat="45.95186" lon="1.38307">
        <ele>410.5</ele>
        <time>2015-05-24T06:56:55Z</time>
      </trkpt>
      <trkpt lat="45.95179" lon="1.3833">
        <ele>410.7</ele>
        <time>2015-05-24T06:57:03Z</time>
      </trkpt>
      <trkpt lat="45.95175" lon="1.38355">
        <ele>411.4</ele>
        <time>2015-05-24T06:57:09Z</time>
      </trkpt>
      <trkpt lat="45.95176" lon="1.3836">
        <ele>411.7</ele>
        <time>2015-05-24T06:57:10Z</time>
      </trkpt>
      <trkpt lat="45.95179" lon="1.38387">
        <ele>412.5</ele>
        <time>2015-05-24T06:57:16Z</time>
      </trkpt>
      <trkpt lat="45.9518" lon="1.38414">
        <ele>412.6</ele>
        <time>2015-05-24T06:57:22Z</time>
      </trkpt>
      <trkpt lat="45.95178" lon="1.38441">
        <ele>412.5</ele>
        <time>2015-05-24T06:57:28Z</time>
      </trkpt>
      <trkpt lat="45.95182" lon="1.38468">
        <ele>412.3</ele>
        <time>2015-05-24T06:57:35Z</time>
      </trkpt>
      <trkpt lat="45.95185" lon="1.38493">
        <ele>411.1</ele>
        <time>2015-05-24T06:57:42Z</time>
      </trkpt>
      <trkpt lat="45.95188" lon="1.38522">
        <ele>409.6</ele>
        <time>2015-05-24T06:57:50Z</time>
      </trkpt>
      <trkpt lat="45.95191" lon="1.3855">
        <ele>408</ele>
        <time>2015-05-24T06:57:58Z</time>
      </trkpt>
      <trkpt lat="45.95193" lon="1.38577">
        <ele>406.5</ele>
        <time>2015-05-24T06:58:06Z</time>
      </trkpt>
      <trkpt lat="45.95193" lon="1.38604">
        <ele>405.1</ele>
        <time>2015-05-24T06:58:14Z</time>
      </trkpt>
      <trkpt lat="45.9519" lon="1.38631">
        <ele>403.6</ele>
        <time>2015-05-24T06:58:22Z</time>
      </trkpt>
      <trkpt lat="45.95182" lon="1.38657">
        <ele>402.1</ele>
        <time>2015-05-24T06:58:31Z</time>
      </trkpt>
      <trkpt lat="45.95166" lon="1.38676">
        <ele>401.6</ele>
        <time>2015-05-24T06:58:38Z</time>
      </trkpt>
      <trkpt lat="45.9515" lon="1.3869">
        <ele>401.6</ele>
        <time>2015-05-24T06:58:45Z</time>
      </trkpt>
      <trkpt lat="45.95135" lon="1.38705">
        <ele>401.6</ele>
        <time>2015-05-24T06:58:51Z</time>
      </trkpt>
      <trkpt lat="45.95118" lon="1.38716">
        <ele>400.7</ele>
        <time>2015-05-24T06:58:58Z</time>
      </trkpt>
      <trkpt lat="45.95102" lon="1.38727">
        <ele>398.6</ele>
        <time>2015-05-24T06:59:04Z</time>
      </trkpt>
      <trkpt lat="45.95097" lon="1.38732">
        <ele>398</ele>
        <time>2015-05-24T06:59:06Z</time>
      </trkpt>
      <trkpt lat="45.95102" lon="1.38757">
        <ele>395.1</ele>
        <time>2015-05-24T06:59:12Z</time>
      </trkpt>
      <trkpt lat="45.95109" lon="1.38774">
        <ele>393.1</ele>
        <time>2015-05-24T06:59:16Z</time>
      </trkpt>
      <trkpt lat="45.95123" lon="1.38797">
        <ele>390.8</ele>
        <time>2015-05-24T06:59:23Z</time>
      </trkpt>
      <trkpt lat="45.95133" lon="1.3882">
        <ele>390.1</ele>
        <time>2015-05-24T06:59:30Z</time>
      </trkpt>
      <trkpt lat="45.9514" lon="1.38845">
        <ele>389.4</ele>
        <time>2015-05-24T06:59:37Z</time>
      </trkpt>
      <trkpt lat="45.95149" lon="1.38868">
        <ele>389.3</ele>
        <time>2015-05-24T06:59:44Z</time>
      </trkpt>
      <trkpt lat="45.95163" lon="1.38884">
        <ele>390.3</ele>
        <time>2015-05-24T06:59:51Z</time>
      </trkpt>
      <trkpt lat="45.95179" lon="1.38901">
        <ele>391.7</ele>
        <time>2015-05-24T06:59:59Z</time>
      </trkpt>
      <trkpt lat="45.95193" lon="1.38911">
        <ele>392.8</ele>
        <time>2015-05-24T07:00:05Z</time>
      </trkpt>
      <trkpt lat="45.9521" lon="1.3892">
        <ele>394.1</ele>
        <time>2015-05-24T07:00:12Z</time>
      </trkpt>
      <trkpt lat="45.95226" lon="1.38933">
        <ele>395.1</ele>
        <time>2015-05-24T07:00:19Z</time>
      </trkpt>
      <trkpt lat="45.95239" lon="1.38952">
        <ele>395.8</ele>
        <time>2015-05-24T07:00:26Z</time>
      </trkpt>
      <trkpt lat="45.95247" lon="1.38978">
        <ele>396.4</ele>
        <time>2015-05-24T07:00:34Z</time>
      </trkpt>
      <trkpt lat="45.95249" lon="1.39005">
        <ele>396.7</ele>
        <time>2015-05-24T07:00:42Z</time>
      </trkpt>
      <trkpt lat="45.9525" lon="1.39034">
        <ele>397</ele>
        <time>2015-05-24T07:00:50Z</time>
      </trkpt>
      <trkpt lat="45.95251" lon="1.39061">
        <ele>397.9</ele>
        <time>2015-05-24T07:00:58Z</time>
      </trkpt>
      <trkpt lat="45.95251" lon="1.39081">
        <ele>398.8</ele>
        <time>2015-05-24T07:01:04Z</time>
      </trkpt>
      <trkpt lat="45.9526" lon="1.39071">
        <ele>399.3</ele>
        <time>2015-05-24T07:01:09Z</time>
      </trkpt>
      <trkpt lat="45.95277" lon="1.39067">
        <ele>400.7</ele>
        <time>2015-05-24T07:01:16Z</time>
      </trkpt>
      <trkpt lat="45.95295" lon="1.39062">
        <ele>402.1</ele>
        <time>2015-05-24T07:01:23Z</time>
      </trkpt>
      <trkpt lat="45.95312" lon="1.39053">
        <ele>402.3</ele>
        <time>2015-05-24T07:01:30Z</time>
      </trkpt>
      <trkpt lat="45.95314" lon="1.39054">
        <ele>402.4</ele>
        <time>2015-05-24T07:01:31Z</time>
      </trkpt>
      <trkpt lat="45.9533" lon="1.3907">
        <ele>403.9</ele>
        <time>2015-05-24T07:01:39Z</time>
      </trkpt>
      <trkpt lat="45.95345" lon="1.39088">
        <ele>405.5</ele>
        <time>2015-05-24T07:01:47Z</time>
      </trkpt>
      <trkpt lat="45.95358" lon="1.39107">
        <ele>407.2</ele>
        <time>2015-05-24T07:01:56Z</time>
      </trkpt>
      <trkpt lat="45.95372" lon="1.39125">
        <ele>408.9</ele>
        <time>2015-05-24T07:02:05Z</time>
      </trkpt>
      <trkpt lat="45.95386" lon="1.39146">
        <ele>411.3</ele>
        <time>2015-05-24T07:02:15Z</time>
      </trkpt>
      <trkpt lat="45.95401" lon="1.39163">
        <ele>413.6</ele>
        <time>2015-05-24T07:02:24Z</time>
      </trkpt>
      <trkpt lat="45.95409" lon="1.39171">
        <ele>414.7</ele>
        <time>2015-05-24T07:02:29Z</time>
      </trkpt>
      <trkpt lat="45.95428" lon="1.39163">
        <ele>415.6</ele>
        <time>2015-05-24T07:02:38Z</time>
      </trkpt>
      <trkpt lat="45.95443" lon="1.39146">
        <ele>415.7</ele>
        <time>2015-05-24T07:02:46Z</time>
      </trkpt>
      <trkpt lat="45.95456" lon="1.39129">
        <ele>416</ele>
        <time>2015-05-24T07:02:53Z</time>
      </trkpt>
      <trkpt lat="45.95471" lon="1.39112">
        <ele>416</ele>
        <time>2015-05-24T07:03:01Z</time>
      </trkpt>
      <trkpt lat="45.95486" lon="1.39096">
        <ele>416</ele>
        <time>2015-05-24T07:03:09Z</time>
      </trkpt>
      <trkpt lat="45.95501" lon="1.39078">
        <ele>416</ele>
        <time>2015-05-24T07:03:18Z</time>
      </trkpt>
      <trkpt lat="45.95515" lon="1.39059">
        <ele>416</ele>
        <time>2015-05-24T07:03:28Z</time>
      </trkpt>
      <trkpt lat="45.95531" lon="1.39041">
        <ele>416.2</ele>
        <time>2015-05-24T07:03:36Z</time>
      </trkpt>
      <trkpt lat="45.95547" lon="1.39025">
        <ele>416.8</ele>
        <time>2015-05-24T07:03:44Z</time>
      </trkpt>
      <trkpt lat="45.95564" lon="1.39013">
        <ele>418</ele>
        <time>2015-05-24T07:03:53Z</time>
      </trkpt>
      <trkpt lat="45.95581" lon="1.38998">
        <ele>419.2</ele>
        <time>2015-05-24T07:04:03Z</time>
      </trkpt>
      <trkpt lat="45.95583" lon="1.38995">
        <ele>419.2</ele>
        <time>2015-05-24T07:04:04Z</time>
      </trkpt>
      <trkpt lat="45.95594" lon="1.38984">
        <ele>419.9</ele>
        <time>2015-05-24T07:04:10Z</time>
      </trkpt>
      <trkpt lat="45.95608" lon="1.38975">
        <ele>421</ele>
        <time>2015-05-24T07:04:16Z</time>
      </trkpt>
      <trkpt lat="45.95623" lon="1.38965">
        <ele>422.1</ele>
        <time>2015-05-24T07:04:22Z</time>
      </trkpt>
      <trkpt lat="45.95634" lon="1.3896">
        <ele>422.4</ele>
        <time>2015-05-24T07:04:27Z</time>
      </trkpt>
      <trkpt lat="45.95646" lon="1.38952">
        <ele>422.3</ele>
        <time>2015-05-24T07:04:33Z</time>
      </trkpt>
      <trkpt lat="45.95666" lon="1.38941">
        <ele>422.1</ele>
        <time>2015-05-24T07:04:40Z</time>
      </trkpt>
      <trkpt lat="45.95684" lon="1.38931">
        <ele>422</ele>
        <time>2015-05-24T07:04:46Z</time>
      </trkpt>
      <trkpt lat="45.95703" lon="1.38922">
        <ele>421.8</ele>
        <time>2015-05-24T07:04:53Z</time>
      </trkpt>
      <trkpt lat="45.95722" lon="1.38912">
        <ele>421.7</ele>
        <time>2015-05-24T07:05:00Z</time>
      </trkpt>
      <trkpt lat="45.95739" lon="1.38897">
        <ele>421.9</ele>
        <time>2015-05-24T07:05:07Z</time>
      </trkpt>
      <trkpt lat="45.95758" lon="1.38886">
        <ele>422.9</ele>
        <time>2015-05-24T07:05:14Z</time>
      </trkpt>
      <trkpt lat="45.95773" lon="1.38869">
        <ele>423.9</ele>
        <time>2015-05-24T07:05:21Z</time>
      </trkpt>
      <trkpt lat="45.95774" lon="1.38866">
        <ele>423.9</ele>
        <time>2015-05-24T07:05:22Z</time>
      </trkpt>
      <trkpt lat="45.95787" lon="1.38846">
        <ele>424.2</ele>
        <time>2015-05-24T07:05:30Z</time>
      </trkpt>
      <trkpt lat="45.95802" lon="1.38827">
        <ele>424.4</ele>
        <time>2015-05-24T07:05:37Z</time>
      </trkpt>
      <trkpt lat="45.95816" lon="1.3881">
        <ele>424.8</ele>
        <time>2015-05-24T07:05:44Z</time>
      </trkpt>
      <trkpt lat="45.9583" lon="1.3879">
        <ele>425.6</ele>
        <time>2015-05-24T07:05:51Z</time>
      </trkpt>
      <trkpt lat="45.95844" lon="1.3877">
        <ele>426</ele>
        <time>2015-05-24T07:05:59Z</time>
      </trkpt>
      <trkpt lat="45.95858" lon="1.38753">
        <ele>426.3</ele>
        <time>2015-05-24T07:06:06Z</time>
      </trkpt>
      <trkpt lat="45.9587" lon="1.38739">
        <ele>426.5</ele>
        <time>2015-05-24T07:06:12Z</time>
      </trkpt>
      <trkpt lat="45.95885" lon="1.38723">
        <ele>426.8</ele>
        <time>2015-05-24T07:06:19Z</time>
      </trkpt>
      <trkpt lat="45.959" lon="1.38709">
        <ele>427.4</ele>
        <time>2015-05-24T07:06:26Z</time>
      </trkpt>
      <trkpt lat="45.95917" lon="1.38693">
        <ele>427.9</ele>
        <time>2015-05-24T07:06:34Z</time>
      </trkpt>
      <trkpt lat="45.9593" lon="1.38675">
        <ele>427.6</ele>
        <time>2015-05-24T07:06:42Z</time>
      </trkpt>
      <trkpt lat="45.95946" lon="1.38658">
        <ele>427.4</ele>
        <time>2015-05-24T07:06:50Z</time>
      </trkpt>
      <trkpt lat="45.95962" lon="1.38642">
        <ele>426.8</ele>
        <time>2015-05-24T07:06:57Z</time>
      </trkpt>
      <trkpt lat="45.95977" lon="1.38626">
        <ele>426.4</ele>
        <time>2015-05-24T07:07:04Z</time>
      </trkpt>
      <trkpt lat="45.95992" lon="1.38611">
        <ele>427</ele>
        <time>2015-05-24T07:07:11Z</time>
      </trkpt>
      <trkpt lat="45.96009" lon="1.38602">
        <ele>427.9</ele>
        <time>2015-05-24T07:07:18Z</time>
      </trkpt>
      <trkpt lat="45.96027" lon="1.38592">
        <ele>428.6</ele>
        <time>2015-05-24T07:07:25Z</time>
      </trkpt>
      <trkpt lat="45.96046" lon="1.38583">
        <ele>429</ele>
        <time>2015-05-24T07:07:32Z</time>
      </trkpt>
      <trkpt lat="45.96067" lon="1.38579">
        <ele>428.8</ele>
        <time>2015-05-24T07:07:39Z</time>
      </trkpt>
      <trkpt lat="45.96085" lon="1.3857">
        <ele>428.4</ele>
        <time>2015-05-24T07:07:46Z</time>
      </trkpt>
      <trkpt lat="45.96104" lon="1.38558">
        <ele>427.8</ele>
        <time>2015-05-24T07:07:53Z</time>
      </trkpt>
      <trkpt lat="45.9612" lon="1.38545">
        <ele>427.2</ele>
        <time>2015-05-24T07:08:01Z</time>
      </trkpt>
      <trkpt lat="45.96121" lon="1.38544">
        <ele>427.1</ele>
        <time>2015-05-24T07:08:02Z</time>
      </trkpt>
      <trkpt lat="45.96139" lon="1.38535">
        <ele>427.5</ele>
        <time>2015-05-24T07:08:13Z</time>
      </trkpt>
      <trkpt lat="45.96157" lon="1.3853">
        <ele>428.3</ele>
        <time>2015-05-24T07:08:21Z</time>
      </trkpt>
      <trkpt lat="45.96176" lon="1.38523">
        <ele>429.2</ele>
        <time>2015-05-24T07:08:31Z</time>
      </trkpt>
      <trkpt lat="45.96182" lon="1.38519">
        <ele>429.3</ele>
        <time>2015-05-24T07:08:34Z</time>
      </trkpt>
      <trkpt lat="45.962" lon="1.38511">
        <ele>430.1</ele>
        <time>2015-05-24T07:08:43Z</time>
      </trkpt>
      <trkpt lat="45.96217" lon="1.38498">
        <ele>430.6</ele>
        <time>2015-05-24T07:08:53Z</time>
      </trkpt>
      <trkpt lat="45.96222" lon="1.38492">
        <ele>430.7</ele>
        <time>2015-05-24T07:09:00Z</time>
      </trkpt>
      <trkpt lat="45.96231" lon="1.3847">
        <ele>430.8</ele>
        <time>2015-05-24T07:09:08Z</time>
      </trkpt>
      <trkpt lat="45.96242" lon="1.38449">
        <ele>432.2</ele>
        <time>2015-05-24T07:09:15Z</time>
      </trkpt>
      <trkpt lat="45.9625" lon="1.38425">
        <ele>434.4</ele>
        <time>2015-05-24T07:09:23Z</time>
      </trkpt>
      <trkpt lat="45.96254" lon="1.38398">
        <ele>436.5</ele>
        <time>2015-05-24T07:09:32Z</time>
      </trkpt>
      <trkpt lat="45.96253" lon="1.3837">
        <ele>438.3</ele>
        <time>2015-05-24T07:09:42Z</time>
      </trkpt>
      <trkpt lat="45.96254" lon="1.38363">
        <ele>439.2</ele>
        <time>2015-05-24T07:09:45Z</time>
      </trkpt>
      <trkpt lat="45.96257" lon="1.38336">
        <ele>442.3</ele>
        <time>2015-05-24T07:09:56Z</time>
      </trkpt>
      <trkpt lat="45.96255" lon="1.38309">
        <ele>444.7</ele>
        <time>2015-05-24T07:10:08Z</time>
      </trkpt>
      <trkpt lat="45.96258" lon="1.3829">
        <ele>447.2</ele>
        <time>2015-05-24T07:10:17Z</time>
      </trkpt>
      <trkpt lat="45.9626" lon="1.38265">
        <ele>448.7</ele>
        <time>2015-05-24T07:10:31Z</time>
      </trkpt>
      <trkpt lat="45.96259" lon="1.38238">
        <ele>449.8</ele>
        <time>2015-05-24T07:10:47Z</time>
      </trkpt>
      <trkpt lat="45.96257" lon="1.38211">
        <ele>450.5</ele>
        <time>2015-05-24T07:11:02Z</time>
      </trkpt>
      <trkpt lat="45.96256" lon="1.38186">
        <ele>450.7</ele>
        <time>2015-05-24T07:11:13Z</time>
      </trkpt>
      <trkpt lat="45.96257" lon="1.38184">
        <ele>451</ele>
        <time>2015-05-24T07:11:14Z</time>
      </trkpt>
      <trkpt lat="45.96275" lon="1.38185">
        <ele>454</ele>
        <time>2015-05-24T07:11:27Z</time>
      </trkpt>
      <trkpt lat="45.96278" lon="1.38188">
        <ele>454.5</ele>
        <time>2015-05-24T07:11:30Z</time>
      </trkpt>
      <trkpt lat="45.96292" lon="1.38206">
        <ele>457.1</ele>
        <time>2015-05-24T07:11:44Z</time>
      </trkpt>
      <trkpt lat="45.96308" lon="1.38221">
        <ele>459.9</ele>
        <time>2015-05-24T07:11:55Z</time>
      </trkpt>
      <trkpt lat="45.9631" lon="1.38221">
        <ele>460.1</ele>
        <time>2015-05-24T07:11:56Z</time>
      </trkpt>
      <trkpt lat="45.96319" lon="1.38223">
        <ele>461.9</ele>
        <time>2015-05-24T07:12:09Z</time>
      </trkpt>
      <trkpt lat="45.96325" lon="1.3822">
        <ele>463.1</ele>
        <time>2015-05-24T07:12:15Z</time>
      </trkpt>
      <trkpt lat="45.96329" lon="1.38219">
        <ele>464</ele>
        <time>2015-05-24T07:12:18Z</time>
      </trkpt>
      <trkpt lat="45.96338" lon="1.38221">
        <ele>465.7</ele>
        <time>2015-05-24T07:12:25Z</time>
      </trkpt>
      <trkpt lat="45.96341" lon="1.38222">
        <ele>466.4</ele>
        <time>2015-05-24T07:12:28Z</time>
      </trkpt>
      <trkpt lat="45.96354" lon="1.38231">
        <ele>468.2</ele>
        <time>2015-05-24T07:12:42Z</time>
      </trkpt>
      <trkpt lat="45.9636" lon="1.38233">
        <ele>469.3</ele>
        <time>2015-05-24T07:12:48Z</time>
      </trkpt>
      <trkpt lat="45.96379" lon="1.38227">
        <ele>473</ele>
        <time>2015-05-24T07:13:01Z</time>
      </trkpt>
      <trkpt lat="45.96381" lon="1.38226">
        <ele>473.4</ele>
        <time>2015-05-24T07:13:02Z</time>
      </trkpt>
      <trkpt lat="45.96389" lon="1.3822">
        <ele>474.8</ele>
        <time>2015-05-24T07:13:07Z</time>
      </trkpt>
      <trkpt lat="45.96399" lon="1.38205">
        <ele>476.8</ele>
        <time>2015-05-24T07:13:17Z</time>
      </trkpt>
      <trkpt lat="45.96399" lon="1.38204">
        <ele>476.8</ele>
        <time>2015-05-24T07:13:18Z</time>
      </trkpt>
      <trkpt lat="45.96402" lon="1.38197">
        <ele>477</ele>
        <time>2015-05-24T07:13:23Z</time>
      </trkpt>
      <trkpt lat="45.96402" lon="1.38195">
        <ele>477</ele>
        <time>2015-05-24T07:13:24Z</time>
      </trkpt>
      <trkpt lat="45.9641" lon="1.38189">
        <ele>478</ele>
        <time>2015-05-24T07:13:30Z</time>
      </trkpt>
      <trkpt lat="45.96423" lon="1.38169">
        <ele>479.3</ele>
        <time>2015-05-24T07:13:47Z</time>
      </trkpt>
      <trkpt lat="45.96436" lon="1.38155">
        <ele>480.9</ele>
        <time>2015-05-24T07:13:55Z</time>
      </trkpt>
      <trkpt lat="45.96451" lon="1.38143">
        <ele>482.9</ele>
        <time>2015-05-24T07:14:02Z</time>
      </trkpt>
      <trkpt lat="45.96468" lon="1.38132">
        <ele>485.5</ele>
        <time>2015-05-24T07:14:10Z</time>
      </trkpt>
      <trkpt lat="45.96485" lon="1.3812">
        <ele>488.7</ele>
        <time>2015-05-24T07:14:20Z</time>
      </trkpt>
      <trkpt lat="45.96495" lon="1.38113">
        <ele>490.7</ele>
        <time>2015-05-24T07:14:26Z</time>
      </trkpt>
      <trkpt lat="45.96511" lon="1.38097">
        <ele>494.5</ele>
        <time>2015-05-24T07:14:36Z</time>
      </trkpt>
      <trkpt lat="45.9652" lon="1.38074">
        <ele>497.6</ele>
        <time>2015-05-24T07:14:47Z</time>
      </trkpt>
      <trkpt lat="45.96524" lon="1.38066">
        <ele>498.8</ele>
        <time>2015-05-24T07:14:53Z</time>
      </trkpt>
      <trkpt lat="45.96529" lon="1.38054">
        <ele>500.6</ele>
        <time>2015-05-24T07:15:04Z</time>
      </trkpt>
      <trkpt lat="45.96531" lon="1.38047">
        <ele>501.4</ele>
        <time>2015-05-24T07:15:09Z</time>
      </trkpt>
      <trkpt lat="45.96531" lon="1.38045">
        <ele>501.6</ele>
        <time>2015-05-24T07:15:10Z</time>
      </trkpt>
      <trkpt lat="45.96532" lon="1.38041">
        <ele>502.1</ele>
        <time>2015-05-24T07:15:14Z</time>
      </trkpt>
      <trkpt lat="45.96533" lon="1.38038">
        <ele>502.7</ele>
        <time>2015-05-24T07:15:16Z</time>
      </trkpt>
      <trkpt lat="45.96534" lon="1.38035">
        <ele>503.3</ele>
        <time>2015-05-24T07:15:19Z</time>
      </trkpt>
      <trkpt lat="45.96534" lon="1.38024">
        <ele>504.8</ele>
        <time>2015-05-24T07:15:26Z</time>
      </trkpt>
      <trkpt lat="45.96534" lon="1.38018">
        <ele>505.7</ele>
        <time>2015-05-24T07:15:30Z</time>
      </trkpt>
      <trkpt lat="45.96537" lon="1.38003">
        <ele>508.4</ele>
        <time>2015-05-24T07:15:41Z</time>
      </trkpt>
      <trkpt lat="45.96541" lon="1.37994">
        <ele>510.6</ele>
        <time>2015-05-24T07:15:48Z</time>
      </trkpt>
      <trkpt lat="45.96543" lon="1.37984">
        <ele>512.5</ele>
        <time>2015-05-24T07:15:55Z</time>
      </trkpt>
      <trkpt lat="45.96543" lon="1.37971">
        <ele>514.6</ele>
        <time>2015-05-24T07:16:03Z</time>
      </trkpt>
      <trkpt lat="45.96543" lon="1.37965">
        <ele>515.4</ele>
        <time>2015-05-24T07:16:09Z</time>
      </trkpt>
      <trkpt lat="45.96542" lon="1.37959">
        <ele>515.9</ele>
        <time>2015-05-24T07:16:13Z</time>
      </trkpt>
      <trkpt lat="45.96543" lon="1.37943">
        <ele>518.6</ele>
        <time>2015-05-24T07:16:22Z</time>
      </trkpt>
      <trkpt lat="45.96553" lon="1.37926">
        <ele>523.4</ele>
        <time>2015-05-24T07:16:39Z</time>
      </trkpt>
      <trkpt lat="45.96567" lon="1.3791">
        <ele>528.7</ele>
        <time>2015-05-24T07:17:00Z</time>
      </trkpt>
      <trkpt lat="45.96583" lon="1.37898">
        <ele>533.8</ele>
        <time>2015-05-24T07:17:12Z</time>
      </trkpt>
      <trkpt lat="45.96588" lon="1.37894">
        <ele>535.6</ele>
        <time>2015-05-24T07:17:17Z</time>
      </trkpt>
      <trkpt lat="45.96592" lon="1.3789">
        <ele>536.8</ele>
        <time>2015-05-24T07:17:21Z</time>
      </trkpt>
      <trkpt lat="45.96606" lon="1.37874">
        <ele>542.1</ele>
        <time>2015-05-24T07:17:40Z</time>
      </trkpt>
      <trkpt lat="45.96607" lon="1.37872">
        <ele>542.2</ele>
        <time>2015-05-24T07:17:41Z</time>
      </trkpt>
      <trkpt lat="45.96611" lon="1.37865">
        <ele>543.5</ele>
        <time>2015-05-24T07:17:46Z</time>
      </trkpt>
      <trkpt lat="45.96627" lon="1.37851">
        <ele>547.1</ele>
        <time>2015-05-24T07:17:57Z</time>
      </trkpt>
      <trkpt lat="45.96638" lon="1.37836">
        <ele>548.8</ele>
        <time>2015-05-24T07:18:08Z</time>
      </trkpt>
      <trkpt lat="45.96642" lon="1.37833">
        <ele>549.4</ele>
        <time>2015-05-24T07:18:11Z</time>
      </trkpt>
      <trkpt lat="45.96649" lon="1.37822">
        <ele>550.7</ele>
        <time>2015-05-24T07:18:19Z</time>
      </trkpt>
      <trkpt lat="45.96658" lon="1.37812">
        <ele>552.2</ele>
        <time>2015-05-24T07:18:26Z</time>
      </trkpt>
      <trkpt lat="45.96674" lon="1.37801">
        <ele>554.5</ele>
        <time>2015-05-24T07:18:35Z</time>
      </trkpt>
      <trkpt lat="45.96692" lon="1.37794">
        <ele>557</ele>
        <time>2015-05-24T07:18:44Z</time>
      </trkpt>
      <trkpt lat="45.96696" lon="1.37792">
        <ele>557.5</ele>
        <time>2015-05-24T07:18:47Z</time>
      </trkpt>
      <trkpt lat="45.96713" lon="1.37783">
        <ele>559.1</ele>
        <time>2015-05-24T07:18:57Z</time>
      </trkpt>
      <trkpt lat="45.96728" lon="1.3778">
        <ele>560</ele>
        <time>2015-05-24T07:19:04Z</time>
      </trkpt>
      <trkpt lat="45.96739" lon="1.37779">
        <ele>560.7</ele>
        <time>2015-05-24T07:19:10Z</time>
      </trkpt>
      <trkpt lat="45.96752" lon="1.3778">
        <ele>561.5</ele>
        <time>2015-05-24T07:19:16Z</time>
      </trkpt>
      <trkpt lat="45.9677" lon="1.37782">
        <ele>562.7</ele>
        <time>2015-05-24T07:19:22Z</time>
      </trkpt>
      <trkpt lat="45.96778" lon="1.37783">
        <ele>563.2</ele>
        <time>2015-05-24T07:19:25Z</time>
      </trkpt>
      <trkpt lat="45.96788" lon="1.37787">
        <ele>563.8</ele>
        <time>2015-05-24T07:19:30Z</time>
      </trkpt>
      <trkpt lat="45.9679" lon="1.37788">
        <ele>564</ele>
        <time>2015-05-24T07:19:31Z</time>
      </trkpt>
      <trkpt lat="45.96809" lon="1.37791">
        <ele>564.4</ele>
        <time>2015-05-24T07:19:39Z</time>
      </trkpt>
      <trkpt lat="45.96828" lon="1.37796">
        <ele>564.5</ele>
        <time>2015-05-24T07:19:48Z</time>
      </trkpt>
      <trkpt lat="45.96846" lon="1.37801">
        <ele>564.6</ele>
        <time>2015-05-24T07:19:56Z</time>
      </trkpt>
      <trkpt lat="45.9686" lon="1.37797">
        <ele>565.3</ele>
        <time>2015-05-24T07:20:02Z</time>
      </trkpt>
      <trkpt lat="45.96875" lon="1.37791">
        <ele>566</ele>
        <time>2015-05-24T07:20:09Z</time>
      </trkpt>
      <trkpt lat="45.96892" lon="1.37776">
        <ele>567.4</ele>
        <time>2015-05-24T07:20:19Z</time>
      </trkpt>
      <trkpt lat="45.969" lon="1.37766">
        <ele>568.3</ele>
        <time>2015-05-24T07:20:24Z</time>
      </trkpt>
      <trkpt lat="45.96915" lon="1.37747">
        <ele>570</ele>
        <time>2015-05-24T07:20:33Z</time>
      </trkpt>
      <trkpt lat="45.96922" lon="1.3774">
        <ele>570.8</ele>
        <time>2015-05-24T07:20:36Z</time>
      </trkpt>
      <trkpt lat="45.96923" lon="1.37738">
        <ele>570.9</ele>
        <time>2015-05-24T07:20:37Z</time>
      </trkpt>
      <trkpt lat="45.96935" lon="1.37716">
        <ele>572.7</ele>
        <time>2015-05-24T07:20:48Z</time>
      </trkpt>
      <trkpt lat="45.96938" lon="1.3771">
        <ele>573.2</ele>
        <time>2015-05-24T07:20:50Z</time>
      </trkpt>
      <trkpt lat="45.96953" lon="1.37692">
        <ele>575.2</ele>
        <time>2015-05-24T07:20:57Z</time>
      </trkpt>
      <trkpt lat="45.96955" lon="1.37691">
        <ele>575.3</ele>
        <time>2015-05-24T07:20:58Z</time>
      </trkpt>
      <trkpt lat="45.9696" lon="1.37678">
        <ele>576</ele>
        <time>2015-05-24T07:21:05Z</time>
      </trkpt>
      <trkpt lat="45.9696" lon="1.37649">
        <ele>577</ele>
        <time>2015-05-24T07:21:17Z</time>
      </trkpt>
      <trkpt lat="45.96961" lon="1.37634">
        <ele>577.5</ele>
        <time>2015-05-24T07:21:23Z</time>
      </trkpt>
      <trkpt lat="45.96959" lon="1.37621">
        <ele>578</ele>
        <time>2015-05-24T07:21:28Z</time>
      </trkpt>
      <trkpt lat="45.96955" lon="1.37603">
        <ele>578</ele>
        <time>2015-05-24T07:21:35Z</time>
      </trkpt>
      <trkpt lat="45.96954" lon="1.37588">
        <ele>578</ele>
        <time>2015-05-24T07:21:40Z</time>
      </trkpt>
      <trkpt lat="45.96956" lon="1.37568">
        <ele>578.4</ele>
        <time>2015-05-24T07:21:47Z</time>
      </trkpt>
      <trkpt lat="45.96952" lon="1.37541">
        <ele>578.4</ele>
        <time>2015-05-24T07:21:55Z</time>
      </trkpt>
      <trkpt lat="45.9695" lon="1.37513">
        <ele>578.6</ele>
        <time>2015-05-24T07:22:03Z</time>
      </trkpt>
      <trkpt lat="45.96951" lon="1.3751">
        <ele>578.8</ele>
        <time>2015-05-24T07:22:04Z</time>
      </trkpt>
      <trkpt lat="45.96951" lon="1.37499">
        <ele>579</ele>
        <time>2015-05-24T07:22:08Z</time>
      </trkpt>
      <trkpt lat="45.96949" lon="1.37471">
        <ele>579.3</ele>
        <time>2015-05-24T07:22:16Z</time>
      </trkpt>
      <trkpt lat="45.9695" lon="1.3746">
        <ele>579.5</ele>
        <time>2015-05-24T07:22:20Z</time>
      </trkpt>
      <trkpt lat="45.9695" lon="1.37439">
        <ele>579.5</ele>
        <time>2015-05-24T07:22:26Z</time>
      </trkpt>
      <trkpt lat="45.96958" lon="1.37417">
        <ele>580</ele>
        <time>2015-05-24T07:22:33Z</time>
      </trkpt>
      <trkpt lat="45.96973" lon="1.37396">
        <ele>580.1</ele>
        <time>2015-05-24T07:22:48Z</time>
      </trkpt>
      <trkpt lat="45.96989" lon="1.37386">
        <ele>580.5</ele>
        <time>2015-05-24T07:22:58Z</time>
      </trkpt>
      <trkpt lat="45.97007" lon="1.37384">
        <ele>580.8</ele>
        <time>2015-05-24T07:23:08Z</time>
      </trkpt>
      <trkpt lat="45.97026" lon="1.37384">
        <ele>581.2</ele>
        <time>2015-05-24T07:23:16Z</time>
      </trkpt>
      <trkpt lat="45.97045" lon="1.37374">
        <ele>581.7</ele>
        <time>2015-05-24T07:23:22Z</time>
      </trkpt>
      <trkpt lat="45.97062" lon="1.3736">
        <ele>579.4</ele>
        <time>2015-05-24T07:23:30Z</time>
      </trkpt>
      <trkpt lat="45.9708" lon="1.37348">
        <ele>577.1</ele>
        <time>2015-05-24T07:23:37Z</time>
      </trkpt>
      <trkpt lat="45.97096" lon="1.37332">
        <ele>574.8</ele>
        <time>2015-05-24T07:23:44Z</time>
      </trkpt>
      <trkpt lat="45.97117" lon="1.37313">
        <ele>571.7</ele>
        <time>2015-05-24T07:23:51Z</time>
      </trkpt>
      <trkpt lat="45.97132" lon="1.37293">
        <ele>569.2</ele>
        <time>2015-05-24T07:23:56Z</time>
      </trkpt>
      <trkpt lat="45.97142" lon="1.3727">
        <ele>567.2</ele>
        <time>2015-05-24T07:24:02Z</time>
      </trkpt>
      <trkpt lat="45.97158" lon="1.37252">
        <ele>564.7</ele>
        <time>2015-05-24T07:24:08Z</time>
      </trkpt>
      <trkpt lat="45.97173" lon="1.37238">
        <ele>562.3</ele>
        <time>2015-05-24T07:24:13Z</time>
      </trkpt>
      <trkpt lat="45.97187" lon="1.37221">
        <ele>560.1</ele>
        <time>2015-05-24T07:24:19Z</time>
      </trkpt>
      <trkpt lat="45.972" lon="1.37201">
        <ele>558</ele>
        <time>2015-05-24T07:24:25Z</time>
      </trkpt>
      <trkpt lat="45.97214" lon="1.37183">
        <ele>556.7</ele>
        <time>2015-05-24T07:24:31Z</time>
      </trkpt>
      <trkpt lat="45.97232" lon="1.37168">
        <ele>555.7</ele>
        <time>2015-05-24T07:24:38Z</time>
      </trkpt>
      <trkpt lat="45.97247" lon="1.37152">
        <ele>555</ele>
        <time>2015-05-24T07:24:45Z</time>
      </trkpt>
      <trkpt lat="45.97261" lon="1.37134">
        <ele>554.4</ele>
        <time>2015-05-24T07:24:52Z</time>
      </trkpt>
      <trkpt lat="45.97276" lon="1.37114">
        <ele>553.5</ele>
        <time>2015-05-24T07:24:59Z</time>
      </trkpt>
      <trkpt lat="45.9728" lon="1.37108">
        <ele>553.2</ele>
        <time>2015-05-24T07:25:02Z</time>
      </trkpt>
      <trkpt lat="45.97288" lon="1.371">
        <ele>552.6</ele>
        <time>2015-05-24T07:25:07Z</time>
      </trkpt>
      <trkpt lat="45.97305" lon="1.37084">
        <ele>553.4</ele>
        <time>2015-05-24T07:25:16Z</time>
      </trkpt>
      <trkpt lat="45.97323" lon="1.37074">
        <ele>555.2</ele>
        <time>2015-05-24T07:25:26Z</time>
      </trkpt>
      <trkpt lat="45.97332" lon="1.37072">
        <ele>556.1</ele>
        <time>2015-05-24T07:25:31Z</time>
      </trkpt>
      <trkpt lat="45.97337" lon="1.3707">
        <ele>556.8</ele>
        <time>2015-05-24T07:25:34Z</time>
      </trkpt>
      <trkpt lat="45.97346" lon="1.37068">
        <ele>557.8</ele>
        <time>2015-05-24T07:25:39Z</time>
      </trkpt>
      <trkpt lat="45.97364" lon="1.3706">
        <ele>560.1</ele>
        <time>2015-05-24T07:25:49Z</time>
      </trkpt>
      <trkpt lat="45.97381" lon="1.37051">
        <ele>561.8</ele>
        <time>2015-05-24T07:25:57Z</time>
      </trkpt>
      <trkpt lat="45.97398" lon="1.37036">
        <ele>562.3</ele>
        <time>2015-05-24T07:26:07Z</time>
      </trkpt>
      <trkpt lat="45.97414" lon="1.37025">
        <ele>562.4</ele>
        <time>2015-05-24T07:26:15Z</time>
      </trkpt>
      <trkpt lat="45.97432" lon="1.37013">
        <ele>562.3</ele>
        <time>2015-05-24T07:26:23Z</time>
      </trkpt>
      <trkpt lat="45.97448" lon="1.37001">
        <ele>562.3</ele>
        <time>2015-05-24T07:26:30Z</time>
      </trkpt>
      <trkpt lat="45.97467" lon="1.36989">
        <ele>562</ele>
        <time>2015-05-24T07:26:36Z</time>
      </trkpt>
      <trkpt lat="45.97484" lon="1.36979">
        <ele>561.7</ele>
        <time>2015-05-24T07:26:44Z</time>
      </trkpt>
      <trkpt lat="45.97503" lon="1.36972">
        <ele>561.7</ele>
        <time>2015-05-24T07:26:52Z</time>
      </trkpt>
      <trkpt lat="45.97523" lon="1.36968">
        <ele>561.8</ele>
        <time>2015-05-24T07:27:00Z</time>
      </trkpt>
      <trkpt lat="45.97542" lon="1.36958">
        <ele>562</ele>
        <time>2015-05-24T07:27:05Z</time>
      </trkpt>
      <trkpt lat="45.97558" lon="1.36944">
        <ele>561.5</ele>
        <time>2015-05-24T07:27:10Z</time>
      </trkpt>
      <trkpt lat="45.97571" lon="1.36923">
        <ele>561.8</ele>
        <time>2015-05-24T07:27:16Z</time>
      </trkpt>
      <trkpt lat="45.97582" lon="1.36902">
        <ele>562.4</ele>
        <time>2015-05-24T07:27:22Z</time>
      </trkpt>
      <trkpt lat="45.97597" lon="1.36881">
        <ele>563.3</ele>
        <time>2015-05-24T07:27:29Z</time>
      </trkpt>
      <trkpt lat="45.9761" lon="1.36864">
        <ele>563.8</ele>
        <time>2015-05-24T07:27:36Z</time>
      </trkpt>
      <trkpt lat="45.97623" lon="1.36844">
        <ele>564</ele>
        <time>2015-05-24T07:27:44Z</time>
      </trkpt>
      <trkpt lat="45.97636" lon="1.36824">
        <ele>562.3</ele>
        <time>2015-05-24T07:27:51Z</time>
      </trkpt>
      <trkpt lat="45.97647" lon="1.36804">
        <ele>560.8</ele>
        <time>2015-05-24T07:27:57Z</time>
      </trkpt>
      <trkpt lat="45.97662" lon="1.36786">
        <ele>558.9</ele>
        <time>2015-05-24T07:28:03Z</time>
      </trkpt>
      <trkpt lat="45.97679" lon="1.3677">
        <ele>556.3</ele>
        <time>2015-05-24T07:28:10Z</time>
      </trkpt>
      <trkpt lat="45.97696" lon="1.36759">
        <ele>554.1</ele>
        <time>2015-05-24T07:28:16Z</time>
      </trkpt>
      <trkpt lat="45.97707" lon="1.36756">
        <ele>552.7</ele>
        <time>2015-05-24T07:28:20Z</time>
      </trkpt>
      <trkpt lat="45.9772" lon="1.36774">
        <ele>551.6</ele>
        <time>2015-05-24T07:28:26Z</time>
      </trkpt>
      <trkpt lat="45.97731" lon="1.36794">
        <ele>550.2</ele>
        <time>2015-05-24T07:28:33Z</time>
      </trkpt>
      <trkpt lat="45.97741" lon="1.36816">
        <ele>547.9</ele>
        <time>2015-05-24T07:28:40Z</time>
      </trkpt>
      <trkpt lat="45.97751" lon="1.36838">
        <ele>546</ele>
        <time>2015-05-24T07:28:47Z</time>
      </trkpt>
      <trkpt lat="45.97762" lon="1.36861">
        <ele>544.3</ele>
        <time>2015-05-24T07:28:54Z</time>
      </trkpt>
      <trkpt lat="45.97773" lon="1.36884">
        <ele>543.8</ele>
        <time>2015-05-24T07:29:02Z</time>
      </trkpt>
      <trkpt lat="45.97787" lon="1.36905">
        <ele>545</ele>
        <time>2015-05-24T07:29:11Z</time>
      </trkpt>
      <trkpt lat="45.978" lon="1.36923">
        <ele>546.1</ele>
        <time>2015-05-24T07:29:20Z</time>
      </trkpt>
      <trkpt lat="45.9781" lon="1.36942">
        <ele>546.9</ele>
        <time>2015-05-24T07:29:27Z</time>
      </trkpt>
      <trkpt lat="45.97814" lon="1.36969">
        <ele>548</ele>
        <time>2015-05-24T07:29:34Z</time>
      </trkpt>
      <trkpt lat="45.97815" lon="1.36973">
        <ele>547.9</ele>
        <time>2015-05-24T07:29:35Z</time>
      </trkpt>
      <trkpt lat="45.97828" lon="1.36996">
        <ele>547.3</ele>
        <time>2015-05-24T07:29:42Z</time>
      </trkpt>
      <trkpt lat="45.97839" lon="1.37019">
        <ele>547.1</ele>
        <time>2015-05-24T07:29:49Z</time>
      </trkpt>
      <trkpt lat="45.9784" lon="1.37023">
        <ele>547.2</ele>
        <time>2015-05-24T07:29:50Z</time>
      </trkpt>
      <trkpt lat="45.9783" lon="1.37045">
        <ele>548.1</ele>
        <time>2015-05-24T07:29:58Z</time>
      </trkpt>
      <trkpt lat="45.97819" lon="1.37066">
        <ele>548.2</ele>
        <time>2015-05-24T07:30:07Z</time>
      </trkpt>
      <trkpt lat="45.97817" lon="1.37077">
        <ele>548</ele>
        <time>2015-05-24T07:30:11Z</time>
      </trkpt>
      <trkpt lat="45.97828" lon="1.37098">
        <ele>547.4</ele>
        <time>2015-05-24T07:30:21Z</time>
      </trkpt>
      <trkpt lat="45.97844" lon="1.37114">
        <ele>547.1</ele>
        <time>2015-05-24T07:30:31Z</time>
      </trkpt>
      <trkpt lat="45.97861" lon="1.37124">
        <ele>547</ele>
        <time>2015-05-24T07:30:44Z</time>
      </trkpt>
      <trkpt lat="45.97863" lon="1.37125">
        <ele>547</ele>
        <time>2015-05-24T07:30:45Z</time>
      </trkpt>
      <trkpt lat="45.97868" lon="1.3713">
        <ele>547.1</ele>
        <time>2015-05-24T07:30:49Z</time>
      </trkpt>
      <trkpt lat="45.97879" lon="1.3715">
        <ele>547.8</ele>
        <time>2015-05-24T07:30:57Z</time>
      </trkpt>
      <trkpt lat="45.97882" lon="1.3716">
        <ele>548.2</ele>
        <time>2015-05-24T07:31:00Z</time>
      </trkpt>
      <trkpt lat="45.9788" lon="1.37188">
        <ele>548.9</ele>
        <time>2015-05-24T07:31:10Z</time>
      </trkpt>
      <trkpt lat="45.97874" lon="1.37212">
        <ele>549.1</ele>
        <time>2015-05-24T07:31:19Z</time>
      </trkpt>
      <trkpt lat="45.97868" lon="1.37237">
        <ele>549.7</ele>
        <time>2015-05-24T07:31:28Z</time>
      </trkpt>
      <trkpt lat="45.97863" lon="1.37264">
        <ele>550.2</ele>
        <time>2015-05-24T07:31:37Z</time>
      </trkpt>
      <trkpt lat="45.97862" lon="1.3729">
        <ele>551</ele>
        <time>2015-05-24T07:31:45Z</time>
      </trkpt>
      <trkpt lat="45.9786" lon="1.37316">
        <ele>551.8</ele>
        <time>2015-05-24T07:31:52Z</time>
      </trkpt>
      <trkpt lat="45.9786" lon="1.37342">
        <ele>552.8</ele>
        <time>2015-05-24T07:31:59Z</time>
      </trkpt>
      <trkpt lat="45.97861" lon="1.37369">
        <ele>553.9</ele>
        <time>2015-05-24T07:32:08Z</time>
      </trkpt>
      <trkpt lat="45.97862" lon="1.37372">
        <ele>554.1</ele>
        <time>2015-05-24T07:32:09Z</time>
      </trkpt>
      <trkpt lat="45.97865" lon="1.37387">
        <ele>554.6</ele>
        <time>2015-05-24T07:32:13Z</time>
      </trkpt>
      <trkpt lat="45.97875" lon="1.37409">
        <ele>555.4</ele>
        <time>2015-05-24T07:32:20Z</time>
      </trkpt>
      <trkpt lat="45.97884" lon="1.37421">
        <ele>555.9</ele>
        <time>2015-05-24T07:32:25Z</time>
      </trkpt>
      <trkpt lat="45.97895" lon="1.37416">
        <ele>556.2</ele>
        <time>2015-05-24T07:32:30Z</time>
      </trkpt>
      <trkpt lat="45.97907" lon="1.37414">
        <ele>556.7</ele>
        <time>2015-05-24T07:32:36Z</time>
      </trkpt>
      <trkpt lat="45.97926" lon="1.37428">
        <ele>557.1</ele>
        <time>2015-05-24T07:32:45Z</time>
      </trkpt>
      <trkpt lat="45.97942" lon="1.37442">
        <ele>557.2</ele>
        <time>2015-05-24T07:32:52Z</time>
      </trkpt>
      <trkpt lat="45.9796" lon="1.37451">
        <ele>557.3</ele>
        <time>2015-05-24T07:32:59Z</time>
      </trkpt>
      <trkpt lat="45.97963" lon="1.37451">
        <ele>557.2</ele>
        <time>2015-05-24T07:33:01Z</time>
      </trkpt>
      <trkpt lat="45.97982" lon="1.37454">
        <ele>556.9</ele>
        <time>2015-05-24T07:33:10Z</time>
      </trkpt>
      <trkpt lat="45.98" lon="1.37449">
        <ele>557</ele>
        <time>2015-05-24T07:33:16Z</time>
      </trkpt>
      <trkpt lat="45.98021" lon="1.37448">
        <ele>557</ele>
        <time>2015-05-24T07:33:23Z</time>
      </trkpt>
      <trkpt lat="45.98041" lon="1.37451">
        <ele>556.6</ele>
        <time>2015-05-24T07:33:29Z</time>
      </trkpt>
      <trkpt lat="45.98062" lon="1.37454">
        <ele>552.8</ele>
        <time>2015-05-24T07:33:35Z</time>
      </trkpt>
      <trkpt lat="45.98079" lon="1.37465">
        <ele>549.1</ele>
        <time>2015-05-24T07:33:42Z</time>
      </trkpt>
      <trkpt lat="45.98097" lon="1.37471">
        <ele>545.8</ele>
        <time>2015-05-24T07:33:51Z</time>
      </trkpt>
      <trkpt lat="45.98117" lon="1.37474">
        <ele>542.7</ele>
        <time>2015-05-24T07:33:59Z</time>
      </trkpt>
      <trkpt lat="45.98137" lon="1.37475">
        <ele>541.7</ele>
        <time>2015-05-24T07:34:07Z</time>
      </trkpt>
      <trkpt lat="45.98156" lon="1.37474">
        <ele>542.1</ele>
        <time>2015-05-24T07:34:16Z</time>
      </trkpt>
      <trkpt lat="45.98175" lon="1.37474">
        <ele>542.5</ele>
        <time>2015-05-24T07:34:25Z</time>
      </trkpt>
      <trkpt lat="45.98177" lon="1.37474">
        <ele>542.6</ele>
        <time>2015-05-24T07:34:26Z</time>
      </trkpt>
      <trkpt lat="45.98181" lon="1.37475">
        <ele>542.7</ele>
        <time>2015-05-24T07:34:29Z</time>
      </trkpt>
      <trkpt lat="45.98198" lon="1.37478">
        <ele>543.4</ele>
        <time>2015-05-24T07:34:39Z</time>
      </trkpt>
      <trkpt lat="45.98218" lon="1.3748">
        <ele>544</ele>
        <time>2015-05-24T07:34:46Z</time>
      </trkpt>
      <trkpt lat="45.98236" lon="1.37483">
        <ele>544.6</ele>
        <time>2015-05-24T07:34:54Z</time>
      </trkpt>
      <trkpt lat="45.98256" lon="1.37487">
        <ele>545.4</ele>
        <time>2015-05-24T07:35:02Z</time>
      </trkpt>
      <trkpt lat="45.98261" lon="1.37485">
        <ele>545.3</ele>
        <time>2015-05-24T07:35:04Z</time>
      </trkpt>
      <trkpt lat="45.9827" lon="1.37463">
        <ele>543.8</ele>
        <time>2015-05-24T07:35:11Z</time>
      </trkpt>
      <trkpt lat="45.98267" lon="1.37457">
        <ele>543.3</ele>
        <time>2015-05-24T07:35:13Z</time>
      </trkpt>
      <trkpt lat="45.98266" lon="1.37451">
        <ele>543</ele>
        <time>2015-05-24T07:35:15Z</time>
      </trkpt>
      <trkpt lat="45.98269" lon="1.37426">
        <ele>541.8</ele>
        <time>2015-05-24T07:35:21Z</time>
      </trkpt>
      <trkpt lat="45.98274" lon="1.374">
        <ele>540.6</ele>
        <time>2015-05-24T07:35:27Z</time>
      </trkpt>
      <trkpt lat="45.98286" lon="1.37379">
        <ele>540</ele>
        <time>2015-05-24T07:35:33Z</time>
      </trkpt>
      <trkpt lat="45.98292" lon="1.37355">
        <ele>539.5</ele>
        <time>2015-05-24T07:35:40Z</time>
      </trkpt>
      <trkpt lat="45.983" lon="1.37332">
        <ele>539.2</ele>
        <time>2015-05-24T07:35:48Z</time>
      </trkpt>
      <trkpt lat="45.98299" lon="1.37325">
        <ele>539</ele>
        <time>2015-05-24T07:35:53Z</time>
      </trkpt>
      <trkpt lat="45.983" lon="1.373">
        <ele>538.5</ele>
        <time>2015-05-24T07:36:07Z</time>
      </trkpt>
      <trkpt lat="45.98302" lon="1.37298">
        <ele>538.5</ele>
        <time>2015-05-24T07:36:08Z</time>
      </trkpt>
      <trkpt lat="45.9832" lon="1.37287">
        <ele>539</ele>
        <time>2015-05-24T07:36:16Z</time>
      </trkpt>
      <trkpt lat="45.98332" lon="1.37266">
        <ele>539</ele>
        <time>2015-05-24T07:36:23Z</time>
      </trkpt>
      <trkpt lat="45.98344" lon="1.37245">
        <ele>538.8</ele>
        <time>2015-05-24T07:36:31Z</time>
      </trkpt>
      <trkpt lat="45.98363" lon="1.37238">
        <ele>538.9</ele>
        <time>2015-05-24T07:36:40Z</time>
      </trkpt>
      <trkpt lat="45.9838" lon="1.37226">
        <ele>538.7</ele>
        <time>2015-05-24T07:36:47Z</time>
      </trkpt>
      <trkpt lat="45.98397" lon="1.3721">
        <ele>538.3</ele>
        <time>2015-05-24T07:36:54Z</time>
      </trkpt>
      <trkpt lat="45.9841" lon="1.37188">
        <ele>537.7</ele>
        <time>2015-05-24T07:37:01Z</time>
      </trkpt>
      <trkpt lat="45.98427" lon="1.37175">
        <ele>536.5</ele>
        <time>2015-05-24T07:37:09Z</time>
      </trkpt>
      <trkpt lat="45.98443" lon="1.37164">
        <ele>534.7</ele>
        <time>2015-05-24T07:37:17Z</time>
      </trkpt>
      <trkpt lat="45.98461" lon="1.3716">
        <ele>532.9</ele>
        <time>2015-05-24T07:37:24Z</time>
      </trkpt>
      <trkpt lat="45.98479" lon="1.37166">
        <ele>531.9</ele>
        <time>2015-05-24T07:37:33Z</time>
      </trkpt>
      <trkpt lat="45.98495" lon="1.3718">
        <ele>531.7</ele>
        <time>2015-05-24T07:37:40Z</time>
      </trkpt>
      <trkpt lat="45.98508" lon="1.37202">
        <ele>531.9</ele>
        <time>2015-05-24T07:37:48Z</time>
      </trkpt>
      <trkpt lat="45.98515" lon="1.37229">
        <ele>532.6</ele>
        <time>2015-05-24T07:37:56Z</time>
      </trkpt>
      <trkpt lat="45.9852" lon="1.37254">
        <ele>533.3</ele>
        <time>2015-05-24T07:38:03Z</time>
      </trkpt>
      <trkpt lat="45.98518" lon="1.3728">
        <ele>534.9</ele>
        <time>2015-05-24T07:38:10Z</time>
      </trkpt>
      <trkpt lat="45.9851" lon="1.37303">
        <ele>535.1</ele>
        <time>2015-05-24T07:38:17Z</time>
      </trkpt>
      <trkpt lat="45.98504" lon="1.37319">
        <ele>534.1</ele>
        <time>2015-05-24T07:38:22Z</time>
      </trkpt>
      <trkpt lat="45.98495" lon="1.37328">
        <ele>534.2</ele>
        <time>2015-05-24T07:38:26Z</time>
      </trkpt>
      <trkpt lat="45.98478" lon="1.37343">
        <ele>535.3</ele>
        <time>2015-05-24T07:38:33Z</time>
      </trkpt>
      <trkpt lat="45.98469" lon="1.37355">
        <ele>535.6</ele>
        <time>2015-05-24T07:38:37Z</time>
      </trkpt>
      <trkpt lat="45.98482" lon="1.37364">
        <ele>532.8</ele>
        <time>2015-05-24T07:38:46Z</time>
      </trkpt>
      <trkpt lat="45.9849" lon="1.37364">
        <ele>531.4</ele>
        <time>2015-05-24T07:38:49Z</time>
      </trkpt>
      <trkpt lat="45.9851" lon="1.37359">
        <ele>528.6</ele>
        <time>2015-05-24T07:38:57Z</time>
      </trkpt>
      <trkpt lat="45.98528" lon="1.37356">
        <ele>526</ele>
        <time>2015-05-24T07:39:04Z</time>
      </trkpt>
      <trkpt lat="45.98532" lon="1.37357">
        <ele>525.2</ele>
        <time>2015-05-24T07:39:06Z</time>
      </trkpt>
      <trkpt lat="45.98541" lon="1.37353">
        <ele>524.4</ele>
        <time>2015-05-24T07:39:10Z</time>
      </trkpt>
      <trkpt lat="45.98558" lon="1.3734">
        <ele>520.8</ele>
        <time>2015-05-24T07:39:16Z</time>
      </trkpt>
      <trkpt lat="45.98573" lon="1.37321">
        <ele>518.9</ele>
        <time>2015-05-24T07:39:25Z</time>
      </trkpt>
      <trkpt lat="45.98578" lon="1.37312">
        <ele>518.5</ele>
        <time>2015-05-24T07:39:30Z</time>
      </trkpt>
      <trkpt lat="45.98592" lon="1.37296">
        <ele>516.7</ele>
        <time>2015-05-24T07:39:40Z</time>
      </trkpt>
      <trkpt lat="45.98608" lon="1.37281">
        <ele>513.4</ele>
        <time>2015-05-24T07:39:53Z</time>
      </trkpt>
      <trkpt lat="45.98625" lon="1.37269">
        <ele>510.3</ele>
        <time>2015-05-24T07:40:00Z</time>
      </trkpt>
      <trkpt lat="45.98645" lon="1.37257">
        <ele>509.8</ele>
        <time>2015-05-24T07:40:10Z</time>
      </trkpt>
      <trkpt lat="45.98658" lon="1.37239">
        <ele>511.3</ele>
        <time>2015-05-24T07:40:19Z</time>
      </trkpt>
      <trkpt lat="45.98669" lon="1.37218">
        <ele>514</ele>
        <time>2015-05-24T07:40:30Z</time>
      </trkpt>
      <trkpt lat="45.98673" lon="1.37199">
        <ele>517.7</ele>
        <time>2015-05-24T07:40:39Z</time>
      </trkpt>
      <trkpt lat="45.98675" lon="1.37177">
        <ele>522.7</ele>
        <time>2015-05-24T07:40:48Z</time>
      </trkpt>
      <trkpt lat="45.98675" lon="1.37175">
        <ele>523.1</ele>
        <time>2015-05-24T07:40:49Z</time>
      </trkpt>
      <trkpt lat="45.98674" lon="1.37169">
        <ele>524.5</ele>
        <time>2015-05-24T07:40:52Z</time>
      </trkpt>
      <trkpt lat="45.98684" lon="1.37149">
        <ele>528.5</ele>
        <time>2015-05-24T07:41:01Z</time>
      </trkpt>
      <trkpt lat="45.98701" lon="1.37137">
        <ele>530.4</ele>
        <time>2015-05-24T07:41:11Z</time>
      </trkpt>
      <trkpt lat="45.98703" lon="1.37138">
        <ele>530.1</ele>
        <time>2015-05-24T07:41:12Z</time>
      </trkpt>
      <trkpt lat="45.9872" lon="1.37148">
        <ele>525.1</ele>
        <time>2015-05-24T07:41:21Z</time>
      </trkpt>
      <trkpt lat="45.98738" lon="1.37155">
        <ele>519.5</ele>
        <time>2015-05-24T07:41:29Z</time>
      </trkpt>
      <trkpt lat="45.98753" lon="1.37173">
        <ele>511.8</ele>
        <time>2015-05-24T07:41:37Z</time>
      </trkpt>
      <trkpt lat="45.98766" lon="1.37193">
        <ele>504.5</ele>
        <time>2015-05-24T07:41:44Z</time>
      </trkpt>
      <trkpt lat="45.9878" lon="1.37214">
        <ele>496.5</ele>
        <time>2015-05-24T07:41:52Z</time>
      </trkpt>
      <trkpt lat="45.98784" lon="1.37221">
        <ele>494.3</ele>
        <time>2015-05-24T07:41:54Z</time>
      </trkpt>
      <trkpt lat="45.98792" lon="1.37246">
        <ele>487.8</ele>
        <time>2015-05-24T07:42:03Z</time>
      </trkpt>
      <trkpt lat="45.988" lon="1.37272">
        <ele>482.4</ele>
        <time>2015-05-24T07:42:12Z</time>
      </trkpt>
      <trkpt lat="45.98808" lon="1.37284">
        <ele>480.1</ele>
        <time>2015-05-24T07:42:18Z</time>
      </trkpt>
      <trkpt lat="45.98815" lon="1.37296">
        <ele>478.9</ele>
        <time>2015-05-24T07:42:25Z</time>
      </trkpt>
      <trkpt lat="45.98827" lon="1.37316">
        <ele>479.7</ele>
        <time>2015-05-24T07:42:36Z</time>
      </trkpt>
      <trkpt lat="45.9884" lon="1.37335">
        <ele>481.2</ele>
        <time>2015-05-24T07:42:48Z</time>
      </trkpt>
      <trkpt lat="45.98856" lon="1.37351">
        <ele>483.2</ele>
        <time>2015-05-24T07:42:59Z</time>
      </trkpt>
      <trkpt lat="45.98857" lon="1.37352">
        <ele>483.3</ele>
        <time>2015-05-24T07:43:00Z</time>
      </trkpt>
      <trkpt lat="45.98866" lon="1.37362">
        <ele>484.9</ele>
        <time>2015-05-24T07:43:08Z</time>
      </trkpt>
      <trkpt lat="45.98868" lon="1.37364">
        <ele>485.2</ele>
        <time>2015-05-24T07:43:10Z</time>
      </trkpt>
      <trkpt lat="45.98883" lon="1.37367">
        <ele>487.4</ele>
        <time>2015-05-24T07:43:24Z</time>
      </trkpt>
      <trkpt lat="45.98901" lon="1.37362">
        <ele>489.7</ele>
        <time>2015-05-24T07:43:43Z</time>
      </trkpt>
      <trkpt lat="45.98917" lon="1.3735">
        <ele>490.9</ele>
        <time>2015-05-24T07:43:59Z</time>
      </trkpt>
      <trkpt lat="45.98928" lon="1.37329">
        <ele>490.2</ele>
        <time>2015-05-24T07:44:12Z</time>
      </trkpt>
      <trkpt lat="45.98942" lon="1.3731">
        <ele>490.4</ele>
        <time>2015-05-24T07:44:22Z</time>
      </trkpt>
      <trkpt lat="45.98946" lon="1.37303">
        <ele>490.3</ele>
        <time>2015-05-24T07:44:25Z</time>
      </trkpt>
      <trkpt lat="45.98964" lon="1.37303">
        <ele>493</ele>
        <time>2015-05-24T07:44:36Z</time>
      </trkpt>
      <trkpt lat="45.98979" lon="1.37308">
        <ele>495.3</ele>
        <time>2015-05-24T07:44:44Z</time>
      </trkpt>
      <trkpt lat="45.98988" lon="1.3731">
        <ele>496.5</ele>
        <time>2015-05-24T07:44:51Z</time>
      </trkpt>
      <trkpt lat="45.99007" lon="1.37307">
        <ele>498.6</ele>
        <time>2015-05-24T07:45:03Z</time>
      </trkpt>
      <trkpt lat="45.99009" lon="1.37308">
        <ele>498.8</ele>
        <time>2015-05-24T07:45:04Z</time>
      </trkpt>
      <trkpt lat="45.99029" lon="1.37313">
        <ele>501.5</ele>
        <time>2015-05-24T07:45:13Z</time>
      </trkpt>
      <trkpt lat="45.99044" lon="1.37328">
        <ele>503.9</ele>
        <time>2015-05-24T07:45:22Z</time>
      </trkpt>
      <trkpt lat="45.9906" lon="1.37346">
        <ele>505.4</ele>
        <time>2015-05-24T07:45:31Z</time>
      </trkpt>
      <trkpt lat="45.99077" lon="1.37362">
        <ele>506.8</ele>
        <time>2015-05-24T07:45:39Z</time>
      </trkpt>
      <trkpt lat="45.99096" lon="1.37367">
        <ele>507.7</ele>
        <time>2015-05-24T07:45:47Z</time>
      </trkpt>
      <trkpt lat="45.99116" lon="1.37361">
        <ele>508.3</ele>
        <time>2015-05-24T07:45:55Z</time>
      </trkpt>
      <trkpt lat="45.99119" lon="1.37361">
        <ele>508.4</ele>
        <time>2015-05-24T07:45:56Z</time>
      </trkpt>
      <trkpt lat="45.99136" lon="1.37369">
        <ele>508.3</ele>
        <time>2015-05-24T07:46:02Z</time>
      </trkpt>
      <trkpt lat="45.99154" lon="1.37382">
        <ele>507.5</ele>
        <time>2015-05-24T07:46:09Z</time>
      </trkpt>
      <trkpt lat="45.9917" lon="1.37396">
        <ele>506.6</ele>
        <time>2015-05-24T07:46:16Z</time>
      </trkpt>
      <trkpt lat="45.99188" lon="1.37405">
        <ele>505.8</ele>
        <time>2015-05-24T07:46:25Z</time>
      </trkpt>
      <trkpt lat="45.99192" lon="1.37406">
        <ele>505.6</ele>
        <time>2015-05-24T07:46:27Z</time>
      </trkpt>
      <trkpt lat="45.99209" lon="1.37416">
        <ele>505.1</ele>
        <time>2015-05-24T07:46:38Z</time>
      </trkpt>
      <trkpt lat="45.99228" lon="1.3742">
        <ele>506.8</ele>
        <time>2015-05-24T07:46:50Z</time>
      </trkpt>
      <trkpt lat="45.99247" lon="1.37419">
        <ele>508.5</ele>
        <time>2015-05-24T07:46:59Z</time>
      </trkpt>
      <trkpt lat="45.99267" lon="1.37414">
        <ele>510.3</ele>
        <time>2015-05-24T07:47:08Z</time>
      </trkpt>
      <trkpt lat="45.99286" lon="1.37413">
        <ele>511.9</ele>
        <time>2015-05-24T07:47:17Z</time>
      </trkpt>
      <trkpt lat="45.99304" lon="1.37416">
        <ele>514.2</ele>
        <time>2015-05-24T07:47:29Z</time>
      </trkpt>
      <trkpt lat="45.99322" lon="1.37424">
        <ele>516.6</ele>
        <time>2015-05-24T07:47:42Z</time>
      </trkpt>
      <trkpt lat="45.99325" lon="1.37425">
        <ele>517</ele>
        <time>2015-05-24T07:47:45Z</time>
      </trkpt>
      <trkpt lat="45.9934" lon="1.3742">
        <ele>519.1</ele>
        <time>2015-05-24T07:47:54Z</time>
      </trkpt>
      <trkpt lat="45.99358" lon="1.37412">
        <ele>521.7</ele>
        <time>2015-05-24T07:48:06Z</time>
      </trkpt>
      <trkpt lat="45.99364" lon="1.37409">
        <ele>522.6</ele>
        <time>2015-05-24T07:48:09Z</time>
      </trkpt>
      <trkpt lat="45.99362" lon="1.374">
        <ele>522.5</ele>
        <time>2015-05-24T07:48:13Z</time>
      </trkpt>
      <trkpt lat="45.99351" lon="1.37375">
        <ele>521.3</ele>
        <time>2015-05-24T07:48:21Z</time>
      </trkpt>
      <trkpt lat="45.99341" lon="1.37352">
        <ele>521.1</ele>
        <time>2015-05-24T07:48:28Z</time>
      </trkpt>
      <trkpt lat="45.99329" lon="1.37329">
        <ele>520.5</ele>
        <time>2015-05-24T07:48:36Z</time>
      </trkpt>
      <trkpt lat="45.99318" lon="1.37307">
        <ele>519.8</ele>
        <time>2015-05-24T07:48:44Z</time>
      </trkpt>
      <trkpt lat="45.99305" lon="1.37287">
        <ele>518.5</ele>
        <time>2015-05-24T07:48:52Z</time>
      </trkpt>
      <trkpt lat="45.99291" lon="1.37267">
        <ele>516.8</ele>
        <time>2015-05-24T07:48:59Z</time>
      </trkpt>
      <trkpt lat="45.99281" lon="1.37245">
        <ele>516.5</ele>
        <time>2015-05-24T07:49:06Z</time>
      </trkpt>
      <trkpt lat="45.99271" lon="1.37223">
        <ele>516.4</ele>
        <time>2015-05-24T07:49:13Z</time>
      </trkpt>
      <trkpt lat="45.99266" lon="1.37197">
        <ele>517.3</ele>
        <time>2015-05-24T07:49:20Z</time>
      </trkpt>
      <trkpt lat="45.99268" lon="1.37172">
        <ele>519</ele>
        <time>2015-05-24T07:49:28Z</time>
      </trkpt>
      <trkpt lat="45.99267" lon="1.37169">
        <ele>519.1</ele>
        <time>2015-05-24T07:49:29Z</time>
      </trkpt>
      <trkpt lat="45.99256" lon="1.37148">
        <ele>519.7</ele>
        <time>2015-05-24T07:49:36Z</time>
      </trkpt>
      <trkpt lat="45.9925" lon="1.37138">
        <ele>520</ele>
        <time>2015-05-24T07:49:40Z</time>
      </trkpt>
      <trkpt lat="45.99238" lon="1.37116">
        <ele>521.4</ele>
        <time>2015-05-24T07:49:47Z</time>
      </trkpt>
      <trkpt lat="45.99228" lon="1.37093">
        <ele>523.2</ele>
        <time>2015-05-24T07:49:55Z</time>
      </trkpt>
      <trkpt lat="45.99228" lon="1.37089">
        <ele>523.6</ele>
        <time>2015-05-24T07:49:56Z</time>
      </trkpt>
      <trkpt lat="45.99218" lon="1.37064">
        <ele>525.8</ele>
        <time>2015-05-24T07:50:03Z</time>
      </trkpt>
      <trkpt lat="45.99208" lon="1.37051">
        <ele>527</ele>
        <time>2015-05-24T07:50:08Z</time>
      </trkpt>
      <trkpt lat="45.99192" lon="1.37034">
        <ele>526.4</ele>
        <time>2015-05-24T07:50:20Z</time>
      </trkpt>
      <trkpt lat="45.99175" lon="1.37022">
        <ele>525.2</ele>
        <time>2015-05-24T07:50:32Z</time>
      </trkpt>
      <trkpt lat="45.9917" lon="1.37016">
        <ele>525.2</ele>
        <time>2015-05-24T07:50:36Z</time>
      </trkpt>
      <trkpt lat="45.99171" lon="1.36999">
        <ele>527.1</ele>
        <time>2015-05-24T07:50:54Z</time>
      </trkpt>
      <trkpt lat="45.99172" lon="1.36981">
        <ele>529.2</ele>
        <time>2015-05-24T07:51:03Z</time>
      </trkpt>
      <trkpt lat="45.99172" lon="1.36979">
        <ele>529.4</ele>
        <time>2015-05-24T07:51:04Z</time>
      </trkpt>
      <trkpt lat="45.9918" lon="1.36963">
        <ele>531.8</ele>
        <time>2015-05-24T07:51:12Z</time>
      </trkpt>
      <trkpt lat="45.9919" lon="1.3694">
        <ele>535.1</ele>
        <time>2015-05-24T07:51:20Z</time>
      </trkpt>
      <trkpt lat="45.99201" lon="1.36919">
        <ele>538.2</ele>
        <time>2015-05-24T07:51:29Z</time>
      </trkpt>
      <trkpt lat="45.99211" lon="1.36894">
        <ele>541.2</ele>
        <time>2015-05-24T07:51:39Z</time>
      </trkpt>
      <trkpt lat="45.99222" lon="1.36871">
        <ele>543.4</ele>
        <time>2015-05-24T07:51:49Z</time>
      </trkpt>
      <trkpt lat="45.9923" lon="1.36848">
        <ele>545.4</ele>
        <time>2015-05-24T07:52:07Z</time>
      </trkpt>
      <trkpt lat="45.99246" lon="1.36858">
        <ele>544.5</ele>
        <time>2015-05-24T07:52:28Z</time>
      </trkpt>
      <trkpt lat="45.99259" lon="1.36877">
        <ele>542.9</ele>
        <time>2015-05-24T07:52:37Z</time>
      </trkpt>
      <trkpt lat="45.99276" lon="1.36892">
        <ele>541.9</ele>
        <time>2015-05-24T07:52:46Z</time>
      </trkpt>
      <trkpt lat="45.99292" lon="1.36908">
        <ele>541</ele>
        <time>2015-05-24T07:52:54Z</time>
      </trkpt>
      <trkpt lat="45.99301" lon="1.3693">
        <ele>539.8</ele>
        <time>2015-05-24T07:53:00Z</time>
      </trkpt>
      <trkpt lat="45.99313" lon="1.36953">
        <ele>538.8</ele>
        <time>2015-05-24T07:53:07Z</time>
      </trkpt>
      <trkpt lat="45.99315" lon="1.36954">
        <ele>538.8</ele>
        <time>2015-05-24T07:53:08Z</time>
      </trkpt>
      <trkpt lat="45.99331" lon="1.36967">
        <ele>538.4</ele>
        <time>2015-05-24T07:53:15Z</time>
      </trkpt>
      <trkpt lat="45.99347" lon="1.36983">
        <ele>537.9</ele>
        <time>2015-05-24T07:53:22Z</time>
      </trkpt>
      <trkpt lat="45.99362" lon="1.37002">
        <ele>537.7</ele>
        <time>2015-05-24T07:53:30Z</time>
      </trkpt>
      <trkpt lat="45.99377" lon="1.37021">
        <ele>537.7</ele>
        <time>2015-05-24T07:53:38Z</time>
      </trkpt>
      <trkpt lat="45.99391" lon="1.37037">
        <ele>536.9</ele>
        <time>2015-05-24T07:53:46Z</time>
      </trkpt>
      <trkpt lat="45.99393" lon="1.37038">
        <ele>536.9</ele>
        <time>2015-05-24T07:53:47Z</time>
      </trkpt>
      <trkpt lat="45.99408" lon="1.37036">
        <ele>536.7</ele>
        <time>2015-05-24T07:53:53Z</time>
      </trkpt>
      <trkpt lat="45.99415" lon="1.37039">
        <ele>536.6</ele>
        <time>2015-05-24T07:53:57Z</time>
      </trkpt>
      <trkpt lat="45.99425" lon="1.37041">
        <ele>536.4</ele>
        <time>2015-05-24T07:54:03Z</time>
      </trkpt>
      <trkpt lat="45.99443" lon="1.37045">
        <ele>536.5</ele>
        <time>2015-05-24T07:54:13Z</time>
      </trkpt>
      <trkpt lat="45.9946" lon="1.37052">
        <ele>537.1</ele>
        <time>2015-05-24T07:54:22Z</time>
      </trkpt>
      <trkpt lat="45.99479" lon="1.37063">
        <ele>537.7</ele>
        <time>2015-05-24T07:54:32Z</time>
      </trkpt>
      <trkpt lat="45.99493" lon="1.37078">
        <ele>539.1</ele>
        <time>2015-05-24T07:54:40Z</time>
      </trkpt>
      <trkpt lat="45.99506" lon="1.371">
        <ele>541.3</ele>
        <time>2015-05-24T07:54:50Z</time>
      </trkpt>
      <trkpt lat="45.99518" lon="1.37123">
        <ele>544</ele>
        <time>2015-05-24T07:55:00Z</time>
      </trkpt>
      <trkpt lat="45.9953" lon="1.37142">
        <ele>546.1</ele>
        <time>2015-05-24T07:55:10Z</time>
      </trkpt>
      <trkpt lat="45.99545" lon="1.37156">
        <ele>547.4</ele>
        <time>2015-05-24T07:55:19Z</time>
      </trkpt>
      <trkpt lat="45.99563" lon="1.37168">
        <ele>547.8</ele>
        <time>2015-05-24T07:55:28Z</time>
      </trkpt>
      <trkpt lat="45.99576" lon="1.37184">
        <ele>548.7</ele>
        <time>2015-05-24T07:55:36Z</time>
      </trkpt>
      <trkpt lat="45.99588" lon="1.37196">
        <ele>549.3</ele>
        <time>2015-05-24T07:55:42Z</time>
      </trkpt>
      <trkpt lat="45.99603" lon="1.37213">
        <ele>550</ele>
        <time>2015-05-24T07:55:51Z</time>
      </trkpt>
      <trkpt lat="45.99619" lon="1.37229">
        <ele>550.6</ele>
        <time>2015-05-24T07:56:01Z</time>
      </trkpt>
      <trkpt lat="45.99633" lon="1.37243">
        <ele>551</ele>
        <time>2015-05-24T07:56:09Z</time>
      </trkpt>
      <trkpt lat="45.99645" lon="1.37251">
        <ele>550.8</ele>
        <time>2015-05-24T07:56:14Z</time>
      </trkpt>
      <trkpt lat="45.99662" lon="1.37266">
        <ele>550.7</ele>
        <time>2015-05-24T07:56:22Z</time>
      </trkpt>
      <trkpt lat="45.99677" lon="1.37281">
        <ele>550.8</ele>
        <time>2015-05-24T07:56:30Z</time>
      </trkpt>
      <trkpt lat="45.99692" lon="1.37297">
        <ele>551</ele>
        <time>2015-05-24T07:56:38Z</time>
      </trkpt>
      <trkpt lat="45.99709" lon="1.3731">
        <ele>550.5</ele>
        <time>2015-05-24T07:56:47Z</time>
      </trkpt>
      <trkpt lat="45.99727" lon="1.37323">
        <ele>549.9</ele>
        <time>2015-05-24T07:56:56Z</time>
      </trkpt>
      <trkpt lat="45.99743" lon="1.37338">
        <ele>549.5</ele>
        <time>2015-05-24T07:57:04Z</time>
      </trkpt>
      <trkpt lat="45.99751" lon="1.37349">
        <ele>549.5</ele>
        <time>2015-05-24T07:57:10Z</time>
      </trkpt>
      <trkpt lat="45.99753" lon="1.37351">
        <ele>549.4</ele>
        <time>2015-05-24T07:57:11Z</time>
      </trkpt>
      <trkpt lat="45.99759" lon="1.37361">
        <ele>549.5</ele>
        <time>2015-05-24T07:57:15Z</time>
      </trkpt>
      <trkpt lat="45.99772" lon="1.37381">
        <ele>549.4</ele>
        <time>2015-05-24T07:57:23Z</time>
      </trkpt>
      <trkpt lat="45.99787" lon="1.37399">
        <ele>548.6</ele>
        <time>2015-05-24T07:57:32Z</time>
      </trkpt>
      <trkpt lat="45.998" lon="1.37417">
        <ele>548.5</ele>
        <time>2015-05-24T07:57:40Z</time>
      </trkpt>
      <trkpt lat="45.99816" lon="1.37434">
        <ele>548.2</ele>
        <time>2015-05-24T07:57:48Z</time>
      </trkpt>
      <trkpt lat="45.99832" lon="1.37449">
        <ele>547.7</ele>
        <time>2015-05-24T07:57:57Z</time>
      </trkpt>
      <trkpt lat="45.99847" lon="1.37467">
        <ele>547.2</ele>
        <time>2015-05-24T07:58:05Z</time>
      </trkpt>
      <trkpt lat="45.99855" lon="1.3748">
        <ele>546.9</ele>
        <time>2015-05-24T07:58:10Z</time>
      </trkpt>
      <trkpt lat="45.99863" lon="1.37492">
        <ele>546.8</ele>
        <time>2015-05-24T07:58:14Z</time>
      </trkpt>
      <trkpt lat="45.99879" lon="1.37506">
        <ele>546.7</ele>
        <time>2015-05-24T07:58:21Z</time>
      </trkpt>
      <trkpt lat="45.99895" lon="1.37503">
        <ele>546.5</ele>
        <time>2015-05-24T07:58:28Z</time>
      </trkpt>
      <trkpt lat="45.99899" lon="1.37516">
        <ele>546.8</ele>
        <time>2015-05-24T07:58:33Z</time>
      </trkpt>
      <trkpt lat="45.99889" lon="1.37541">
        <ele>547.6</ele>
        <time>2015-05-24T07:58:41Z</time>
      </trkpt>
      <trkpt lat="45.99883" lon="1.37567">
        <ele>546.3</ele>
        <time>2015-05-24T07:58:49Z</time>
      </trkpt>
      <trkpt lat="45.99874" lon="1.37592">
        <ele>545</ele>
        <time>2015-05-24T07:58:58Z</time>
      </trkpt>
      <trkpt lat="45.99872" lon="1.37604">
        <ele>544.3</ele>
        <time>2015-05-24T07:59:02Z</time>
      </trkpt>
      <trkpt lat="45.99875" lon="1.37629">
        <ele>542.5</ele>
        <time>2015-05-24T07:59:09Z</time>
      </trkpt>
      <trkpt lat="45.99882" lon="1.3765">
        <ele>539.6</ele>
        <time>2015-05-24T07:59:15Z</time>
      </trkpt>
      <trkpt lat="45.99885" lon="1.37659">
        <ele>538.3</ele>
        <time>2015-05-24T07:59:18Z</time>
      </trkpt>
      <trkpt lat="45.9989" lon="1.37687">
        <ele>534.6</ele>
        <time>2015-05-24T07:59:26Z</time>
      </trkpt>
      <trkpt lat="45.99892" lon="1.37695">
        <ele>533.6</ele>
        <time>2015-05-24T07:59:28Z</time>
      </trkpt>
      <trkpt lat="45.99895" lon="1.37703">
        <ele>532.5</ele>
        <time>2015-05-24T07:59:31Z</time>
      </trkpt>
      <trkpt lat="45.99901" lon="1.37714">
        <ele>530.9</ele>
        <time>2015-05-24T07:59:35Z</time>
      </trkpt>
      <trkpt lat="45.99906" lon="1.37742">
        <ele>526.6</ele>
        <time>2015-05-24T07:59:43Z</time>
      </trkpt>
      <trkpt lat="45.99913" lon="1.37768">
        <ele>522.9</ele>
        <time>2015-05-24T07:59:51Z</time>
      </trkpt>
      <trkpt lat="45.9992" lon="1.37793">
        <ele>519.6</ele>
        <time>2015-05-24T07:59:59Z</time>
      </trkpt>
      <trkpt lat="45.99921" lon="1.37795">
        <ele>519.5</ele>
        <time>2015-05-24T08:00:00Z</time>
      </trkpt>
      <trkpt lat="45.99934" lon="1.37817">
        <ele>519.4</ele>
        <time>2015-05-24T08:00:09Z</time>
      </trkpt>
      <trkpt lat="45.99945" lon="1.37838">
        <ele>519.8</ele>
        <time>2015-05-24T08:00:18Z</time>
      </trkpt>
      <trkpt lat="45.99955" lon="1.3786">
        <ele>520.6</ele>
        <time>2015-05-24T08:00:28Z</time>
      </trkpt>
      <trkpt lat="45.99963" lon="1.37878">
        <ele>521.4</ele>
        <time>2015-05-24T08:00:37Z</time>
      </trkpt>
      <trkpt lat="45.99977" lon="1.37876">
        <ele>521.6</ele>
        <time>2015-05-24T08:00:47Z</time>
      </trkpt>
      <trkpt lat="45.99995" lon="1.37866">
        <ele>521.5</ele>
        <time>2015-05-24T08:00:56Z</time>
      </trkpt>
      <trkpt lat="46.00012" lon="1.37859">
        <ele>521.4</ele>
        <time>2015-05-24T08:01:03Z</time>
      </trkpt>
      <trkpt lat="46.0003" lon="1.37868">
        <ele>522.2</ele>
        <time>2015-05-24T08:01:10Z</time>
      </trkpt>
      <trkpt lat="46.00046" lon="1.37883">
        <ele>524.1</ele>
        <time>2015-05-24T08:01:18Z</time>
      </trkpt>
      <trkpt lat="46.00059" lon="1.37902">
        <ele>526.7</ele>
        <time>2015-05-24T08:01:26Z</time>
      </trkpt>
      <trkpt lat="46.00061" lon="1.37904">
        <ele>527</ele>
        <time>2015-05-24T08:01:27Z</time>
      </trkpt>
      <trkpt lat="46.00068" lon="1.37913">
        <ele>528.2</ele>
        <time>2015-05-24T08:01:31Z</time>
      </trkpt>
      <trkpt lat="46.00082" lon="1.37932">
        <ele>530.6</ele>
        <time>2015-05-24T08:01:39Z</time>
      </trkpt>
      <trkpt lat="46.001" lon="1.37943">
        <ele>531.6</ele>
        <time>2015-05-24T08:01:47Z</time>
      </trkpt>
      <trkpt lat="46.00118" lon="1.37951">
        <ele>532.3</ele>
        <time>2015-05-24T08:01:57Z</time>
      </trkpt>
      <trkpt lat="46.0012" lon="1.37952">
        <ele>532.3</ele>
        <time>2015-05-24T08:01:58Z</time>
      </trkpt>
      <trkpt lat="46.00138" lon="1.37952">
        <ele>533.8</ele>
        <time>2015-05-24T08:02:08Z</time>
      </trkpt>
      <trkpt lat="46.00156" lon="1.37943">
        <ele>535.2</ele>
        <time>2015-05-24T08:02:19Z</time>
      </trkpt>
      <trkpt lat="46.00173" lon="1.37935">
        <ele>536.9</ele>
        <time>2015-05-24T08:02:29Z</time>
      </trkpt>
      <trkpt lat="46.00188" lon="1.3792">
        <ele>538.1</ele>
        <time>2015-05-24T08:02:39Z</time>
      </trkpt>
      <trkpt lat="46.00191" lon="1.37919">
        <ele>538.4</ele>
        <time>2015-05-24T08:02:40Z</time>
      </trkpt>
      <trkpt lat="46.00207" lon="1.37904">
        <ele>540.2</ele>
        <time>2015-05-24T08:02:49Z</time>
      </trkpt>
      <trkpt lat="46.00219" lon="1.37884">
        <ele>540.8</ele>
        <time>2015-05-24T08:02:57Z</time>
      </trkpt>
      <trkpt lat="46.00221" lon="1.37877">
        <ele>540.8</ele>
        <time>2015-05-24T08:03:00Z</time>
      </trkpt>
      <trkpt lat="46.00224" lon="1.37872">
        <ele>540.8</ele>
        <time>2015-05-24T08:03:04Z</time>
      </trkpt>
      <trkpt lat="46.0024" lon="1.3786">
        <ele>541.6</ele>
        <time>2015-05-24T08:03:20Z</time>
      </trkpt>
      <trkpt lat="46.00243" lon="1.3786">
        <ele>541.9</ele>
        <time>2015-05-24T08:03:22Z</time>
      </trkpt>
      <trkpt lat="46.0025" lon="1.37862">
        <ele>543.1</ele>
        <time>2015-05-24T08:03:28Z</time>
      </trkpt>
      <trkpt lat="46.00255" lon="1.37871">
        <ele>544.8</ele>
        <time>2015-05-24T08:03:33Z</time>
      </trkpt>
      <trkpt lat="46.00259" lon="1.37876">
        <ele>545.7</ele>
        <time>2015-05-24T08:03:36Z</time>
      </trkpt>
      <trkpt lat="46.00272" lon="1.37892">
        <ele>547.9</ele>
        <time>2015-05-24T08:03:47Z</time>
      </trkpt>
      <trkpt lat="46.00282" lon="1.37904">
        <ele>549.5</ele>
        <time>2015-05-24T08:03:54Z</time>
      </trkpt>
      <trkpt lat="46.00297" lon="1.3792">
        <ele>551.9</ele>
        <time>2015-05-24T08:04:06Z</time>
      </trkpt>
      <trkpt lat="46.00302" lon="1.37923">
        <ele>552.7</ele>
        <time>2015-05-24T08:04:09Z</time>
      </trkpt>
      <trkpt lat="46.00314" lon="1.37931">
        <ele>554.8</ele>
        <time>2015-05-24T08:04:16Z</time>
      </trkpt>
      <trkpt lat="46.00322" lon="1.37934">
        <ele>556.1</ele>
        <time>2015-05-24T08:04:21Z</time>
      </trkpt>
      <trkpt lat="46.00328" lon="1.37936">
        <ele>557.2</ele>
        <time>2015-05-24T08:04:26Z</time>
      </trkpt>
      <trkpt lat="46.00339" lon="1.37947">
        <ele>559.5</ele>
        <time>2015-05-24T08:04:36Z</time>
      </trkpt>
      <trkpt lat="46.00352" lon="1.37962">
        <ele>562.2</ele>
        <time>2015-05-24T08:04:47Z</time>
      </trkpt>
      <trkpt lat="46.00357" lon="1.37976">
        <ele>563.3</ele>
        <time>2015-05-24T08:04:55Z</time>
      </trkpt>
      <trkpt lat="46.00372" lon="1.37992">
        <ele>565.5</ele>
        <time>2015-05-24T08:05:12Z</time>
      </trkpt>
      <trkpt lat="46.00385" lon="1.38011">
        <ele>567.8</ele>
        <time>2015-05-24T08:05:26Z</time>
      </trkpt>
      <trkpt lat="46.00394" lon="1.38022">
        <ele>569.4</ele>
        <time>2015-05-24T08:05:36Z</time>
      </trkpt>
      <trkpt lat="46.00395" lon="1.38027">
        <ele>569.7</ele>
        <time>2015-05-24T08:05:40Z</time>
      </trkpt>
      <trkpt lat="46.00411" lon="1.38041">
        <ele>572.9</ele>
        <time>2015-05-24T08:05:56Z</time>
      </trkpt>
      <trkpt lat="46.00428" lon="1.38029">
        <ele>575.9</ele>
        <time>2015-05-24T08:06:11Z</time>
      </trkpt>
      <trkpt lat="46.00429" lon="1.38029">
        <ele>576.1</ele>
        <time>2015-05-24T08:06:12Z</time>
      </trkpt>
      <trkpt lat="46.00433" lon="1.38029">
        <ele>576.8</ele>
        <time>2015-05-24T08:06:16Z</time>
      </trkpt>
      <trkpt lat="46.00439" lon="1.38026">
        <ele>577.8</ele>
        <time>2015-05-24T08:06:21Z</time>
      </trkpt>
      <trkpt lat="46.00445" lon="1.38025">
        <ele>578.9</ele>
        <time>2015-05-24T08:06:26Z</time>
      </trkpt>
      <trkpt lat="46.00462" lon="1.38019">
        <ele>581.8</ele>
        <time>2015-05-24T08:06:42Z</time>
      </trkpt>
      <trkpt lat="46.00465" lon="1.38012">
        <ele>582</ele>
        <time>2015-05-24T08:06:47Z</time>
      </trkpt>
      <trkpt lat="46.00464" lon="1.37998">
        <ele>581.3</ele>
        <time>2015-05-24T08:06:55Z</time>
      </trkpt>
      <trkpt lat="46.00455" lon="1.37977">
        <ele>579.1</ele>
        <time>2015-05-24T08:07:09Z</time>
      </trkpt>
      <trkpt lat="46.00458" lon="1.37952">
        <ele>578.1</ele>
        <time>2015-05-24T08:07:23Z</time>
      </trkpt>
      <trkpt lat="46.00461" lon="1.37947">
        <ele>577.9</ele>
        <time>2015-05-24T08:07:27Z</time>
      </trkpt>
      <trkpt lat="46.00463" lon="1.37946">
        <ele>577.9</ele>
        <time>2015-05-24T08:07:28Z</time>
      </trkpt>
      <trkpt lat="46.0047" lon="1.37937">
        <ele>577.9</ele>
        <time>2015-05-24T08:07:34Z</time>
      </trkpt>
      <trkpt lat="46.00483" lon="1.37918">
        <ele>577.6</ele>
        <time>2015-05-24T08:07:47Z</time>
      </trkpt>
      <trkpt lat="46.00493" lon="1.37908">
        <ele>577.8</ele>
        <time>2015-05-24T08:07:54Z</time>
      </trkpt>
      <trkpt lat="46.00498" lon="1.37902">
        <ele>578.1</ele>
        <time>2015-05-24T08:07:59Z</time>
      </trkpt>
      <trkpt lat="46.00512" lon="1.37885">
        <ele>578.5</ele>
        <time>2015-05-24T08:08:11Z</time>
      </trkpt>
      <trkpt lat="46.00525" lon="1.37865">
        <ele>578.5</ele>
        <time>2015-05-24T08:08:24Z</time>
      </trkpt>
      <trkpt lat="46.00536" lon="1.37845">
        <ele>578</ele>
        <time>2015-05-24T08:08:35Z</time>
      </trkpt>
      <trkpt lat="46.00548" lon="1.37823">
        <ele>577</ele>
        <time>2015-05-24T08:08:46Z</time>
      </trkpt>
      <trkpt lat="46.0056" lon="1.37801">
        <ele>576.1</ele>
        <time>2015-05-24T08:08:55Z</time>
      </trkpt>
      <trkpt lat="46.0057" lon="1.3779">
        <ele>576.1</ele>
        <time>2015-05-24T08:09:01Z</time>
      </trkpt>
      <trkpt lat="46.00584" lon="1.37798">
        <ele>579.4</ele>
        <time>2015-05-24T08:09:14Z</time>
      </trkpt>
      <trkpt lat="46.00586" lon="1.37799">
        <ele>579.7</ele>
        <time>2015-05-24T08:09:15Z</time>
      </trkpt>
      <trkpt lat="46.00586" lon="1.378">
        <ele>579.9</ele>
        <time>2015-05-24T08:09:16Z</time>
      </trkpt>
      <trkpt lat="46.00598" lon="1.3782">
        <ele>584</ele>
        <time>2015-05-24T08:09:31Z</time>
      </trkpt>
      <trkpt lat="46.00605" lon="1.37833">
        <ele>586.6</ele>
        <time>2015-05-24T08:09:41Z</time>
      </trkpt>
      <trkpt lat="46.00608" lon="1.3784">
        <ele>587.7</ele>
        <time>2015-05-24T08:09:46Z</time>
      </trkpt>
      <trkpt lat="46.00612" lon="1.37845">
        <ele>588.9</ele>
        <time>2015-05-24T08:09:49Z</time>
      </trkpt>
      <trkpt lat="46.0062" lon="1.37854">
        <ele>591</ele>
        <time>2015-05-24T08:09:57Z</time>
      </trkpt>
      <trkpt lat="46.00625" lon="1.37858">
        <ele>592</ele>
        <time>2015-05-24T08:10:01Z</time>
      </trkpt>
      <trkpt lat="46.00632" lon="1.37862">
        <ele>592.4</ele>
        <time>2015-05-24T08:10:07Z</time>
      </trkpt>
      <trkpt lat="46.00636" lon="1.37865">
        <ele>592.6</ele>
        <time>2015-05-24T08:10:09Z</time>
      </trkpt>
      <trkpt lat="46.00642" lon="1.37874">
        <ele>593.4</ele>
        <time>2015-05-24T08:10:13Z</time>
      </trkpt>
      <trkpt lat="46.00643" lon="1.37899">
        <ele>595.7</ele>
        <time>2015-05-24T08:10:24Z</time>
      </trkpt>
      <trkpt lat="46.00643" lon="1.37906">
        <ele>596.3</ele>
        <time>2015-05-24T08:10:27Z</time>
      </trkpt>
      <trkpt lat="46.00644" lon="1.37909">
        <ele>596.5</ele>
        <time>2015-05-24T08:10:28Z</time>
      </trkpt>
      <trkpt lat="46.00654" lon="1.3793">
        <ele>598.7</ele>
        <time>2015-05-24T08:10:37Z</time>
      </trkpt>
      <trkpt lat="46.00659" lon="1.3794">
        <ele>599.8</ele>
        <time>2015-05-24T08:10:42Z</time>
      </trkpt>
      <trkpt lat="46.00662" lon="1.37967">
        <ele>602.4</ele>
        <time>2015-05-24T08:10:52Z</time>
      </trkpt>
      <trkpt lat="46.00661" lon="1.37975">
        <ele>602.9</ele>
        <time>2015-05-24T08:10:55Z</time>
      </trkpt>
      <trkpt lat="46.00655" lon="1.38">
        <ele>604</ele>
        <time>2015-05-24T08:11:05Z</time>
      </trkpt>
      <trkpt lat="46.00649" lon="1.38025">
        <ele>604.9</ele>
        <time>2015-05-24T08:11:14Z</time>
      </trkpt>
      <trkpt lat="46.00639" lon="1.38049">
        <ele>605</ele>
        <time>2015-05-24T08:11:23Z</time>
      </trkpt>
      <trkpt lat="46.0063" lon="1.38073">
        <ele>604.7</ele>
        <time>2015-05-24T08:11:32Z</time>
      </trkpt>
      <trkpt lat="46.00622" lon="1.38099">
        <ele>604.8</ele>
        <time>2015-05-24T08:11:42Z</time>
      </trkpt>
      <trkpt lat="46.00617" lon="1.38125">
        <ele>605.2</ele>
        <time>2015-05-24T08:11:51Z</time>
      </trkpt>
      <trkpt lat="46.00608" lon="1.38149">
        <ele>605.6</ele>
        <time>2015-05-24T08:12:00Z</time>
      </trkpt>
      <trkpt lat="46.00595" lon="1.3817">
        <ele>604.8</ele>
        <time>2015-05-24T08:12:08Z</time>
      </trkpt>
      <trkpt lat="46.0058" lon="1.38186">
        <ele>603.3</ele>
        <time>2015-05-24T08:12:15Z</time>
      </trkpt>
      <trkpt lat="46.00567" lon="1.38206">
        <ele>601.9</ele>
        <time>2015-05-24T08:12:22Z</time>
      </trkpt>
      <trkpt lat="46.00555" lon="1.38226">
        <ele>600.5</ele>
        <time>2015-05-24T08:12:28Z</time>
      </trkpt>
      <trkpt lat="46.00546" lon="1.38249">
        <ele>599.7</ele>
        <time>2015-05-24T08:12:34Z</time>
      </trkpt>
      <trkpt lat="46.00539" lon="1.38274">
        <ele>599.1</ele>
        <time>2015-05-24T08:12:41Z</time>
      </trkpt>
      <trkpt lat="46.00523" lon="1.3829">
        <ele>597.5</ele>
        <time>2015-05-24T08:12:48Z</time>
      </trkpt>
      <trkpt lat="46.00503" lon="1.38292">
        <ele>594.9</ele>
        <time>2015-05-24T08:12:55Z</time>
      </trkpt>
      <trkpt lat="46.00489" lon="1.3831">
        <ele>594.1</ele>
        <time>2015-05-24T08:13:03Z</time>
      </trkpt>
      <trkpt lat="46.00478" lon="1.38332">
        <ele>594.1</ele>
        <time>2015-05-24T08:13:11Z</time>
      </trkpt>
      <trkpt lat="46.00476" lon="1.38335">
        <ele>594</ele>
        <time>2015-05-24T08:13:12Z</time>
      </trkpt>
      <trkpt lat="46.00461" lon="1.38353">
        <ele>593.7</ele>
        <time>2015-05-24T08:13:19Z</time>
      </trkpt>
      <trkpt lat="46.00448" lon="1.38376">
        <ele>593.2</ele>
        <time>2015-05-24T08:13:26Z</time>
      </trkpt>
      <trkpt lat="46.00437" lon="1.38398">
        <ele>591.1</ele>
        <time>2015-05-24T08:13:33Z</time>
      </trkpt>
      <trkpt lat="46.00429" lon="1.38422">
        <ele>589.7</ele>
        <time>2015-05-24T08:13:40Z</time>
      </trkpt>
      <trkpt lat="46.00423" lon="1.38447">
        <ele>588.8</ele>
        <time>2015-05-24T08:13:47Z</time>
      </trkpt>
      <trkpt lat="46.00418" lon="1.38472">
        <ele>588.5</ele>
        <time>2015-05-24T08:13:54Z</time>
      </trkpt>
      <trkpt lat="46.00407" lon="1.38494">
        <ele>587.6</ele>
        <time>2015-05-24T08:14:01Z</time>
      </trkpt>
      <trkpt lat="46.00393" lon="1.38512">
        <ele>586.7</ele>
        <time>2015-05-24T08:14:08Z</time>
      </trkpt>
      <trkpt lat="46.00379" lon="1.38532">
        <ele>585.9</ele>
        <time>2015-05-24T08:14:16Z</time>
      </trkpt>
      <trkpt lat="46.00377" lon="1.38535">
        <ele>585.9</ele>
        <time>2015-05-24T08:14:17Z</time>
      </trkpt>
      <trkpt lat="46.00368" lon="1.38559">
        <ele>584.1</ele>
        <time>2015-05-24T08:14:26Z</time>
      </trkpt>
      <trkpt lat="46.00363" lon="1.38566">
        <ele>582.9</ele>
        <time>2015-05-24T08:14:29Z</time>
      </trkpt>
      <trkpt lat="46.00349" lon="1.38582">
        <ele>580</ele>
        <time>2015-05-24T08:14:38Z</time>
      </trkpt>
      <trkpt lat="46.00335" lon="1.38603">
        <ele>576.5</ele>
        <time>2015-05-24T08:14:46Z</time>
      </trkpt>
      <trkpt lat="46.00322" lon="1.38626">
        <ele>573</ele>
        <time>2015-05-24T08:14:53Z</time>
      </trkpt>
      <trkpt lat="46.00308" lon="1.38642">
        <ele>569</ele>
        <time>2015-05-24T08:15:00Z</time>
      </trkpt>
      <trkpt lat="46.00293" lon="1.38648">
        <ele>565.8</ele>
        <time>2015-05-24T08:15:06Z</time>
      </trkpt>
      <trkpt lat="46.00285" lon="1.38651">
        <ele>564.3</ele>
        <time>2015-05-24T08:15:10Z</time>
      </trkpt>
      <trkpt lat="46.0028" lon="1.38654">
        <ele>563.2</ele>
        <time>2015-05-24T08:15:13Z</time>
      </trkpt>
      <trkpt lat="46.00274" lon="1.38656">
        <ele>562.3</ele>
        <time>2015-05-24T08:15:16Z</time>
      </trkpt>
      <trkpt lat="46.00264" lon="1.38679">
        <ele>559.2</ele>
        <time>2015-05-24T08:15:25Z</time>
      </trkpt>
      <trkpt lat="46.00254" lon="1.38702">
        <ele>556.6</ele>
        <time>2015-05-24T08:15:32Z</time>
      </trkpt>
      <trkpt lat="46.00245" lon="1.38727">
        <ele>556.9</ele>
        <time>2015-05-24T08:15:39Z</time>
      </trkpt>
      <trkpt lat="46.00239" lon="1.38755">
        <ele>558.5</ele>
        <time>2015-05-24T08:15:48Z</time>
      </trkpt>
      <trkpt lat="46.00236" lon="1.38765">
        <ele>559</ele>
        <time>2015-05-24T08:15:51Z</time>
      </trkpt>
      <trkpt lat="46.00228" lon="1.38769">
        <ele>559.2</ele>
        <time>2015-05-24T08:15:55Z</time>
      </trkpt>
      <trkpt lat="46.00207" lon="1.38769">
        <ele>559</ele>
        <time>2015-05-24T08:16:06Z</time>
      </trkpt>
      <trkpt lat="46.00198" lon="1.3877">
        <ele>560.5</ele>
        <time>2015-05-24T08:16:13Z</time>
      </trkpt>
      <trkpt lat="46.00192" lon="1.38777">
        <ele>562</ele>
        <time>2015-05-24T08:16:18Z</time>
      </trkpt>
      <trkpt lat="46.00177" lon="1.38795">
        <ele>565.4</ele>
        <time>2015-05-24T08:16:32Z</time>
      </trkpt>
      <trkpt lat="46.00172" lon="1.38805">
        <ele>566.7</ele>
        <time>2015-05-24T08:16:38Z</time>
      </trkpt>
      <trkpt lat="46.00163" lon="1.38821">
        <ele>569</ele>
        <time>2015-05-24T08:16:57Z</time>
      </trkpt>
      <trkpt lat="46.00164" lon="1.38822">
        <ele>568.9</ele>
        <time>2015-05-24T08:16:59Z</time>
      </trkpt>
      <trkpt lat="46.00164" lon="1.38821">
        <ele>568.9</ele>
        <time>2015-05-24T08:17:02Z</time>
      </trkpt>
      <trkpt lat="46.0016" lon="1.3882">
        <ele>569.3</ele>
        <time>2015-05-24T08:17:46Z</time>
      </trkpt>
      <trkpt lat="46.00146" lon="1.38819">
        <ele>570.8</ele>
        <time>2015-05-24T08:17:57Z</time>
      </trkpt>
      <trkpt lat="46.00142" lon="1.3883">
        <ele>572</ele>
        <time>2015-05-24T08:18:03Z</time>
      </trkpt>
      <trkpt lat="46.00143" lon="1.38832">
        <ele>572</ele>
        <time>2015-05-24T08:18:04Z</time>
      </trkpt>
      <trkpt lat="46.0015" lon="1.38839">
        <ele>571.7</ele>
        <time>2015-05-24T08:18:09Z</time>
      </trkpt>
      <trkpt lat="46.00167" lon="1.38848">
        <ele>570.5</ele>
        <time>2015-05-24T08:18:16Z</time>
      </trkpt>
      <trkpt lat="46.00169" lon="1.38849">
        <ele>570.4</ele>
        <time>2015-05-24T08:18:17Z</time>
      </trkpt>
      <trkpt lat="46.00178" lon="1.38855">
        <ele>570</ele>
        <time>2015-05-24T08:18:23Z</time>
      </trkpt>
      <trkpt lat="46.00187" lon="1.38864">
        <ele>569.8</ele>
        <time>2015-05-24T08:18:29Z</time>
      </trkpt>
      <trkpt lat="46.002" lon="1.38881">
        <ele>570.7</ele>
        <time>2015-05-24T08:18:38Z</time>
      </trkpt>
      <trkpt lat="46.00202" lon="1.38885">
        <ele>571</ele>
        <time>2015-05-24T08:18:40Z</time>
      </trkpt>
      <trkpt lat="46.00206" lon="1.3889">
        <ele>571.5</ele>
        <time>2015-05-24T08:18:44Z</time>
      </trkpt>
      <trkpt lat="46.00207" lon="1.38893">
        <ele>571.9</ele>
        <time>2015-05-24T08:18:46Z</time>
      </trkpt>
      <trkpt lat="46.00215" lon="1.38918">
        <ele>575</ele>
        <time>2015-05-24T08:19:02Z</time>
      </trkpt>
      <trkpt lat="46.00207" lon="1.38943">
        <ele>579.6</ele>
        <time>2015-05-24T08:19:18Z</time>
      </trkpt>
      <trkpt lat="46.00199" lon="1.38966">
        <ele>582.6</ele>
        <time>2015-05-24T08:19:31Z</time>
      </trkpt>
      <trkpt lat="46.00193" lon="1.38992">
        <ele>584</ele>
        <time>2015-05-24T08:19:46Z</time>
      </trkpt>
      <trkpt lat="46.00189" lon="1.39003">
        <ele>584.3</ele>
        <time>2015-05-24T08:19:51Z</time>
      </trkpt>
      <trkpt lat="46.00179" lon="1.39025">
        <ele>584.6</ele>
        <time>2015-05-24T08:20:00Z</time>
      </trkpt>
      <trkpt lat="46.00172" lon="1.3905">
        <ele>584.1</ele>
        <time>2015-05-24T08:20:09Z</time>
      </trkpt>
      <trkpt lat="46.00165" lon="1.39073">
        <ele>582.3</ele>
        <time>2015-05-24T08:20:17Z</time>
      </trkpt>
      <trkpt lat="46.00176" lon="1.39098">
        <ele>582.4</ele>
        <time>2015-05-24T08:20:25Z</time>
      </trkpt>
      <trkpt lat="46.00177" lon="1.39112">
        <ele>582</ele>
        <time>2015-05-24T08:20:30Z</time>
      </trkpt>
      <trkpt lat="46.00178" lon="1.39124">
        <ele>581.6</ele>
        <time>2015-05-24T08:20:34Z</time>
      </trkpt>
      <trkpt lat="46.0018" lon="1.3915">
        <ele>582.5</ele>
        <time>2015-05-24T08:20:43Z</time>
      </trkpt>
      <trkpt lat="46.0018" lon="1.39153">
        <ele>582.6</ele>
        <time>2015-05-24T08:20:44Z</time>
      </trkpt>
      <trkpt lat="46.0019" lon="1.39178">
        <ele>584.4</ele>
        <time>2015-05-24T08:20:53Z</time>
      </trkpt>
      <trkpt lat="46.00192" lon="1.39185">
        <ele>584.8</ele>
        <time>2015-05-24T08:20:56Z</time>
      </trkpt>
      <trkpt lat="46.00206" lon="1.39203">
        <ele>586.7</ele>
        <time>2015-05-24T08:21:06Z</time>
      </trkpt>
      <trkpt lat="46.00209" lon="1.39207">
        <ele>587</ele>
        <time>2015-05-24T08:21:08Z</time>
      </trkpt>
      <trkpt lat="46.00214" lon="1.39213">
        <ele>587.4</ele>
        <time>2015-05-24T08:21:12Z</time>
      </trkpt>
      <trkpt lat="46.00231" lon="1.39226">
        <ele>588.6</ele>
        <time>2015-05-24T08:21:22Z</time>
      </trkpt>
      <trkpt lat="46.00237" lon="1.39233">
        <ele>589.2</ele>
        <time>2015-05-24T08:21:26Z</time>
      </trkpt>
      <trkpt lat="46.00252" lon="1.39245">
        <ele>590.4</ele>
        <time>2015-05-24T08:21:35Z</time>
      </trkpt>
      <trkpt lat="46.00262" lon="1.39251">
        <ele>591.2</ele>
        <time>2015-05-24T08:21:42Z</time>
      </trkpt>
      <trkpt lat="46.00272" lon="1.39259">
        <ele>592.2</ele>
        <time>2015-05-24T08:21:49Z</time>
      </trkpt>
      <trkpt lat="46.0028" lon="1.39263">
        <ele>592.9</ele>
        <time>2015-05-24T08:21:54Z</time>
      </trkpt>
      <trkpt lat="46.00292" lon="1.39268">
        <ele>593.9</ele>
        <time>2015-05-24T08:22:00Z</time>
      </trkpt>
      <trkpt lat="46.0031" lon="1.39272">
        <ele>594.3</ele>
        <time>2015-05-24T08:22:07Z</time>
      </trkpt>
      <trkpt lat="46.00331" lon="1.39272">
        <ele>594.6</ele>
        <time>2015-05-24T08:22:15Z</time>
      </trkpt>
      <trkpt lat="46.0035" lon="1.39274">
        <ele>595</ele>
        <time>2015-05-24T08:22:23Z</time>
      </trkpt>
      <trkpt lat="46.0037" lon="1.39275">
        <ele>595.3</ele>
        <time>2015-05-24T08:22:32Z</time>
      </trkpt>
      <trkpt lat="46.00389" lon="1.3928">
        <ele>596</ele>
        <time>2015-05-24T08:22:41Z</time>
      </trkpt>
      <trkpt lat="46.00395" lon="1.39285">
        <ele>596.4</ele>
        <time>2015-05-24T08:22:44Z</time>
      </trkpt>
      <trkpt lat="46.00412" lon="1.39295">
        <ele>597.4</ele>
        <time>2015-05-24T08:22:53Z</time>
      </trkpt>
      <trkpt lat="46.00414" lon="1.39296">
        <ele>597.5</ele>
        <time>2015-05-24T08:22:54Z</time>
      </trkpt>
      <trkpt lat="46.00432" lon="1.39304">
        <ele>598.5</ele>
        <time>2015-05-24T08:23:03Z</time>
      </trkpt>
      <trkpt lat="46.0045" lon="1.39307">
        <ele>599.4</ele>
        <time>2015-05-24T08:23:15Z</time>
      </trkpt>
      <trkpt lat="46.0047" lon="1.39312">
        <ele>600.1</ele>
        <time>2015-05-24T08:23:26Z</time>
      </trkpt>
      <trkpt lat="46.00488" lon="1.39319">
        <ele>600.6</ele>
        <time>2015-05-24T08:23:37Z</time>
      </trkpt>
      <trkpt lat="46.00504" lon="1.3933">
        <ele>601.6</ele>
        <time>2015-05-24T08:23:47Z</time>
      </trkpt>
      <trkpt lat="46.00506" lon="1.39331">
        <ele>601.7</ele>
        <time>2015-05-24T08:23:48Z</time>
      </trkpt>
      <trkpt lat="46.00524" lon="1.39339">
        <ele>602.6</ele>
        <time>2015-05-24T08:23:57Z</time>
      </trkpt>
      <trkpt lat="46.0053" lon="1.39343">
        <ele>603</ele>
        <time>2015-05-24T08:24:01Z</time>
      </trkpt>
      <trkpt lat="46.00541" lon="1.39351">
        <ele>604</ele>
        <time>2015-05-24T08:24:09Z</time>
      </trkpt>
      <trkpt lat="46.0055" lon="1.39359">
        <ele>604.7</ele>
        <time>2015-05-24T08:24:13Z</time>
      </trkpt>
      <trkpt lat="46.00563" lon="1.39368">
        <ele>605.6</ele>
        <time>2015-05-24T08:24:19Z</time>
      </trkpt>
      <trkpt lat="46.00572" lon="1.39378">
        <ele>606.4</ele>
        <time>2015-05-24T08:24:24Z</time>
      </trkpt>
      <trkpt lat="46.00585" lon="1.39396">
        <ele>606.9</ele>
        <time>2015-05-24T08:24:32Z</time>
      </trkpt>
      <trkpt lat="46.00597" lon="1.39412">
        <ele>607.2</ele>
        <time>2015-05-24T08:24:40Z</time>
      </trkpt>
      <trkpt lat="46.00603" lon="1.39422">
        <ele>607.4</ele>
        <time>2015-05-24T08:24:45Z</time>
      </trkpt>
      <trkpt lat="46.00604" lon="1.39424">
        <ele>607.5</ele>
        <time>2015-05-24T08:24:46Z</time>
      </trkpt>
      <trkpt lat="46.00616" lon="1.39444">
        <ele>607.8</ele>
        <time>2015-05-24T08:24:53Z</time>
      </trkpt>
      <trkpt lat="46.00619" lon="1.39465">
        <ele>607.9</ele>
        <time>2015-05-24T08:24:59Z</time>
      </trkpt>
      <trkpt lat="46.00617" lon="1.39493">
        <ele>607.4</ele>
        <time>2015-05-24T08:25:10Z</time>
      </trkpt>
      <trkpt lat="46.00614" lon="1.3952">
        <ele>606.9</ele>
        <time>2015-05-24T08:25:20Z</time>
      </trkpt>
      <trkpt lat="46.00619" lon="1.39544">
        <ele>606.8</ele>
        <time>2015-05-24T08:25:33Z</time>
      </trkpt>
      <trkpt lat="46.00633" lon="1.39561">
        <ele>608.2</ele>
        <time>2015-05-24T08:25:48Z</time>
      </trkpt>
      <trkpt lat="46.00635" lon="1.39565">
        <ele>608.5</ele>
        <time>2015-05-24T08:25:51Z</time>
      </trkpt>
      <trkpt lat="46.00638" lon="1.39577">
        <ele>609.3</ele>
        <time>2015-05-24T08:25:59Z</time>
      </trkpt>
      <trkpt lat="46.00648" lon="1.39599">
        <ele>611.3</ele>
        <time>2015-05-24T08:26:13Z</time>
      </trkpt>
      <trkpt lat="46.00649" lon="1.39604">
        <ele>611.6</ele>
        <time>2015-05-24T08:26:16Z</time>
      </trkpt>
      <trkpt lat="46.0065" lon="1.39611">
        <ele>612.1</ele>
        <time>2015-05-24T08:26:20Z</time>
      </trkpt>
      <trkpt lat="46.00652" lon="1.39618">
        <ele>612.5</ele>
        <time>2015-05-24T08:26:24Z</time>
      </trkpt>
      <trkpt lat="46.00653" lon="1.39644">
        <ele>614.4</ele>
        <time>2015-05-24T08:26:38Z</time>
      </trkpt>
      <trkpt lat="46.00652" lon="1.39668">
        <ele>615.8</ele>
        <time>2015-05-24T08:26:51Z</time>
      </trkpt>
      <trkpt lat="46.00642" lon="1.39693">
        <ele>616.2</ele>
        <time>2015-05-24T08:27:01Z</time>
      </trkpt>
      <trkpt lat="46.00639" lon="1.39719">
        <ele>618.1</ele>
        <time>2015-05-24T08:27:10Z</time>
      </trkpt>
      <trkpt lat="46.00636" lon="1.39746">
        <ele>621</ele>
        <time>2015-05-24T08:27:20Z</time>
      </trkpt>
      <trkpt lat="46.00631" lon="1.39773">
        <ele>623.9</ele>
        <time>2015-05-24T08:27:29Z</time>
      </trkpt>
      <trkpt lat="46.00626" lon="1.39798">
        <ele>626.5</ele>
        <time>2015-05-24T08:27:38Z</time>
      </trkpt>
      <trkpt lat="46.00619" lon="1.39822">
        <ele>627.6</ele>
        <time>2015-05-24T08:27:47Z</time>
      </trkpt>
      <trkpt lat="46.00609" lon="1.39842">
        <ele>628</ele>
        <time>2015-05-24T08:27:58Z</time>
      </trkpt>
      <trkpt lat="46.0059" lon="1.39836">
        <ele>625.9</ele>
        <time>2015-05-24T08:28:06Z</time>
      </trkpt>
      <trkpt lat="46.00573" lon="1.39828">
        <ele>623.6</ele>
        <time>2015-05-24T08:28:13Z</time>
      </trkpt>
      <trkpt lat="46.00554" lon="1.39821">
        <ele>621.3</ele>
        <time>2015-05-24T08:28:22Z</time>
      </trkpt>
      <trkpt lat="46.00536" lon="1.39814">
        <ele>619.1</ele>
        <time>2015-05-24T08:28:30Z</time>
      </trkpt>
      <trkpt lat="46.00516" lon="1.39811">
        <ele>617.4</ele>
        <time>2015-05-24T08:28:37Z</time>
      </trkpt>
      <trkpt lat="46.00514" lon="1.3981">
        <ele>617.2</ele>
        <time>2015-05-24T08:28:38Z</time>
      </trkpt>
      <trkpt lat="46.00503" lon="1.39807">
        <ele>616.1</ele>
        <time>2015-05-24T08:28:43Z</time>
      </trkpt>
      <trkpt lat="46.00485" lon="1.39797">
        <ele>614.2</ele>
        <time>2015-05-24T08:28:51Z</time>
      </trkpt>
      <trkpt lat="46.00476" lon="1.39796">
        <ele>613.5</ele>
        <time>2015-05-24T08:28:55Z</time>
      </trkpt>
      <trkpt lat="46.0046" lon="1.39793">
        <ele>612.2</ele>
        <time>2015-05-24T08:29:02Z</time>
      </trkpt>
      <trkpt lat="46.0044" lon="1.39792">
        <ele>610</ele>
        <time>2015-05-24T08:29:11Z</time>
      </trkpt>
      <trkpt lat="46.0042" lon="1.39791">
        <ele>607.7</ele>
        <time>2015-05-24T08:29:19Z</time>
      </trkpt>
      <trkpt lat="46.00418" lon="1.3979">
        <ele>607.5</ele>
        <time>2015-05-24T08:29:20Z</time>
      </trkpt>
      <trkpt lat="46.00399" lon="1.39791">
        <ele>605.4</ele>
        <time>2015-05-24T08:29:27Z</time>
      </trkpt>
      <trkpt lat="46.0038" lon="1.39793">
        <ele>603.6</ele>
        <time>2015-05-24T08:29:33Z</time>
      </trkpt>
      <trkpt lat="46.00376" lon="1.39793">
        <ele>603.1</ele>
        <time>2015-05-24T08:29:35Z</time>
      </trkpt>
      <trkpt lat="46.00357" lon="1.39798">
        <ele>601.3</ele>
        <time>2015-05-24T08:29:42Z</time>
      </trkpt>
      <trkpt lat="46.00338" lon="1.39804">
        <ele>599.7</ele>
        <time>2015-05-24T08:29:49Z</time>
      </trkpt>
      <trkpt lat="46.0032" lon="1.39804">
        <ele>598.2</ele>
        <time>2015-05-24T08:29:56Z</time>
      </trkpt>
      <trkpt lat="46.00317" lon="1.39805">
        <ele>598</ele>
        <time>2015-05-24T08:29:58Z</time>
      </trkpt>
      <trkpt lat="46.0031" lon="1.39816">
        <ele>597.9</ele>
        <time>2015-05-24T08:30:03Z</time>
      </trkpt>
      <trkpt lat="46.00306" lon="1.39819">
        <ele>597.8</ele>
        <time>2015-05-24T08:30:05Z</time>
      </trkpt>
      <trkpt lat="46.00287" lon="1.39829">
        <ele>597</ele>
        <time>2015-05-24T08:30:14Z</time>
      </trkpt>
      <trkpt lat="46.00271" lon="1.3984">
        <ele>596.7</ele>
        <time>2015-05-24T08:30:22Z</time>
      </trkpt>
      <trkpt lat="46.00253" lon="1.39852">
        <ele>596.4</ele>
        <time>2015-05-24T08:30:29Z</time>
      </trkpt>
      <trkpt lat="46.00238" lon="1.39868">
        <ele>596.4</ele>
        <time>2015-05-24T08:30:36Z</time>
      </trkpt>
      <trkpt lat="46.00223" lon="1.39885">
        <ele>595.6</ele>
        <time>2015-05-24T08:30:43Z</time>
      </trkpt>
      <trkpt lat="46.00209" lon="1.39902">
        <ele>594.4</ele>
        <time>2015-05-24T08:30:52Z</time>
      </trkpt>
      <trkpt lat="46.00196" lon="1.39923">
        <ele>591.8</ele>
        <time>2015-05-24T08:30:59Z</time>
      </trkpt>
      <trkpt lat="46.00181" lon="1.3994">
        <ele>589.5</ele>
        <time>2015-05-24T08:31:06Z</time>
      </trkpt>
      <trkpt lat="46.00168" lon="1.39957">
        <ele>587.6</ele>
        <time>2015-05-24T08:31:13Z</time>
      </trkpt>
      <trkpt lat="46.00155" lon="1.39973">
        <ele>586.5</ele>
        <time>2015-05-24T08:31:19Z</time>
      </trkpt>
      <trkpt lat="46.00137" lon="1.39976">
        <ele>584.6</ele>
        <time>2015-05-24T08:31:26Z</time>
      </trkpt>
      <trkpt lat="46.00118" lon="1.39973">
        <ele>583.2</ele>
        <time>2015-05-24T08:31:34Z</time>
      </trkpt>
      <trkpt lat="46.00112" lon="1.39975">
        <ele>583.5</ele>
        <time>2015-05-24T08:31:36Z</time>
      </trkpt>
      <trkpt lat="46.00099" lon="1.39976">
        <ele>583.8</ele>
        <time>2015-05-24T08:31:41Z</time>
      </trkpt>
      <trkpt lat="46.00087" lon="1.39973">
        <ele>583.9</ele>
        <time>2015-05-24T08:31:46Z</time>
      </trkpt>
      <trkpt lat="46.00067" lon="1.39967">
        <ele>583.9</ele>
        <time>2015-05-24T08:31:53Z</time>
      </trkpt>
      <trkpt lat="46.00049" lon="1.39958">
        <ele>583.8</ele>
        <time>2015-05-24T08:32:00Z</time>
      </trkpt>
      <trkpt lat="46.00031" lon="1.39946">
        <ele>584.7</ele>
        <time>2015-05-24T08:32:08Z</time>
      </trkpt>
      <trkpt lat="46.00014" lon="1.39936">
        <ele>586.6</ele>
        <time>2015-05-24T08:32:16Z</time>
      </trkpt>
      <trkpt lat="45.99997" lon="1.39924">
        <ele>588.5</ele>
        <time>2015-05-24T08:32:24Z</time>
      </trkpt>
      <trkpt lat="45.99981" lon="1.39911">
        <ele>590.3</ele>
        <time>2015-05-24T08:32:32Z</time>
      </trkpt>
      <trkpt lat="45.99976" lon="1.39898">
        <ele>590.8</ele>
        <time>2015-05-24T08:32:37Z</time>
      </trkpt>
      <trkpt lat="45.99966" lon="1.39875">
        <ele>591.8</ele>
        <time>2015-05-24T08:32:46Z</time>
      </trkpt>
      <trkpt lat="45.99956" lon="1.39854">
        <ele>591.2</ele>
        <time>2015-05-24T08:32:54Z</time>
      </trkpt>
      <trkpt lat="45.99956" lon="1.3985">
        <ele>590.9</ele>
        <time>2015-05-24T08:32:55Z</time>
      </trkpt>
      <trkpt lat="45.99954" lon="1.39829">
        <ele>589</ele>
        <time>2015-05-24T08:33:02Z</time>
      </trkpt>
      <trkpt lat="45.99948" lon="1.39835">
        <ele>590.3</ele>
        <time>2015-05-24T08:33:07Z</time>
      </trkpt>
      <trkpt lat="45.99943" lon="1.39855">
        <ele>592.3</ele>
        <time>2015-05-24T08:33:18Z</time>
      </trkpt>
      <trkpt lat="45.9994" lon="1.39881">
        <ele>594.2</ele>
        <time>2015-05-24T08:33:40Z</time>
      </trkpt>
      <trkpt lat="45.99935" lon="1.39895">
        <ele>594.6</ele>
        <time>2015-05-24T08:33:47Z</time>
      </trkpt>
      <trkpt lat="45.99927" lon="1.39919">
        <ele>595.2</ele>
        <time>2015-05-24T08:34:06Z</time>
      </trkpt>
      <trkpt lat="45.99925" lon="1.39922">
        <ele>595.2</ele>
        <time>2015-05-24T08:34:08Z</time>
      </trkpt>
      <trkpt lat="45.99922" lon="1.39924">
        <ele>595.3</ele>
        <time>2015-05-24T08:34:10Z</time>
      </trkpt>
      <trkpt lat="45.99906" lon="1.39938">
        <ele>595.7</ele>
        <time>2015-05-24T08:34:20Z</time>
      </trkpt>
      <trkpt lat="45.99905" lon="1.39939">
        <ele>595.8</ele>
        <time>2015-05-24T08:34:21Z</time>
      </trkpt>
      <trkpt lat="45.99889" lon="1.39953">
        <ele>595.9</ele>
        <time>2015-05-24T08:34:30Z</time>
      </trkpt>
      <trkpt lat="45.99876" lon="1.39974">
        <ele>595.6</ele>
        <time>2015-05-24T08:34:37Z</time>
      </trkpt>
      <trkpt lat="45.99867" lon="1.39993">
        <ele>595.6</ele>
        <time>2015-05-24T08:34:44Z</time>
      </trkpt>
      <trkpt lat="45.9986" lon="1.40006">
        <ele>595.6</ele>
        <time>2015-05-24T08:34:49Z</time>
      </trkpt>
      <trkpt lat="45.99846" lon="1.40023">
        <ele>595.7</ele>
        <time>2015-05-24T08:34:56Z</time>
      </trkpt>
      <trkpt lat="45.99844" lon="1.40024">
        <ele>595.8</ele>
        <time>2015-05-24T08:34:57Z</time>
      </trkpt>
      <trkpt lat="45.99831" lon="1.40021">
        <ele>596.4</ele>
        <time>2015-05-24T08:35:02Z</time>
      </trkpt>
      <trkpt lat="45.99812" lon="1.40021">
        <ele>597.4</ele>
        <time>2015-05-24T08:35:10Z</time>
      </trkpt>
      <trkpt lat="45.99809" lon="1.40023">
        <ele>597.4</ele>
        <time>2015-05-24T08:35:11Z</time>
      </trkpt>
      <trkpt lat="45.99794" lon="1.4004">
        <ele>597</ele>
        <time>2015-05-24T08:35:19Z</time>
      </trkpt>
      <trkpt lat="45.99788" lon="1.4005">
        <ele>597.4</ele>
        <time>2015-05-24T08:35:25Z</time>
      </trkpt>
      <trkpt lat="45.99772" lon="1.40063">
        <ele>599.1</ele>
        <time>2015-05-24T08:35:37Z</time>
      </trkpt>
      <trkpt lat="45.99753" lon="1.40071">
        <ele>600.7</ele>
        <time>2015-05-24T08:35:47Z</time>
      </trkpt>
      <trkpt lat="45.99746" lon="1.40074">
        <ele>601.3</ele>
        <time>2015-05-24T08:35:51Z</time>
      </trkpt>
      <trkpt lat="45.99728" lon="1.40079">
        <ele>602.6</ele>
        <time>2015-05-24T08:36:01Z</time>
      </trkpt>
      <trkpt lat="45.99721" lon="1.40082">
        <ele>603</ele>
        <time>2015-05-24T08:36:05Z</time>
      </trkpt>
      <trkpt lat="45.99706" lon="1.4009">
        <ele>603.2</ele>
        <time>2015-05-24T08:36:14Z</time>
      </trkpt>
      <trkpt lat="45.99703" lon="1.40104">
        <ele>601.5</ele>
        <time>2015-05-24T08:36:18Z</time>
      </trkpt>
      <trkpt lat="45.99702" lon="1.40128">
        <ele>598.7</ele>
        <time>2015-05-24T08:36:29Z</time>
      </trkpt>
      <trkpt lat="45.99703" lon="1.40133">
        <ele>598.3</ele>
        <time>2015-05-24T08:36:33Z</time>
      </trkpt>
      <trkpt lat="45.99705" lon="1.4016">
        <ele>596.4</ele>
        <time>2015-05-24T08:36:45Z</time>
      </trkpt>
      <trkpt lat="45.9971" lon="1.40186">
        <ele>594.6</ele>
        <time>2015-05-24T08:36:54Z</time>
      </trkpt>
      <trkpt lat="45.99711" lon="1.40199">
        <ele>593.8</ele>
        <time>2015-05-24T08:36:59Z</time>
      </trkpt>
      <trkpt lat="45.99718" lon="1.40225">
        <ele>594.6</ele>
        <time>2015-05-24T08:37:09Z</time>
      </trkpt>
      <trkpt lat="45.99722" lon="1.40252">
        <ele>596.4</ele>
        <time>2015-05-24T08:37:20Z</time>
      </trkpt>
      <trkpt lat="45.99725" lon="1.40258">
        <ele>596.9</ele>
        <time>2015-05-24T08:37:23Z</time>
      </trkpt>
      <trkpt lat="45.9973" lon="1.4027">
        <ele>597.8</ele>
        <time>2015-05-24T08:37:29Z</time>
      </trkpt>
      <trkpt lat="45.9974" lon="1.40292">
        <ele>599.5</ele>
        <time>2015-05-24T08:37:46Z</time>
      </trkpt>
      <trkpt lat="45.99751" lon="1.40304">
        <ele>601.4</ele>
        <time>2015-05-24T08:37:54Z</time>
      </trkpt>
      <trkpt lat="45.99764" lon="1.40323">
        <ele>604</ele>
        <time>2015-05-24T08:38:07Z</time>
      </trkpt>
      <trkpt lat="45.99773" lon="1.40345">
        <ele>606.9</ele>
        <time>2015-05-24T08:38:23Z</time>
      </trkpt>
      <trkpt lat="45.9979" lon="1.4036">
        <ele>609.3</ele>
        <time>2015-05-24T08:38:38Z</time>
      </trkpt>
      <trkpt lat="45.99802" lon="1.4038">
        <ele>611.8</ele>
        <time>2015-05-24T08:38:53Z</time>
      </trkpt>
      <trkpt lat="45.99814" lon="1.40398">
        <ele>614.1</ele>
        <time>2015-05-24T08:39:07Z</time>
      </trkpt>
      <trkpt lat="45.99824" lon="1.4042">
        <ele>616.6</ele>
        <time>2015-05-24T08:39:18Z</time>
      </trkpt>
      <trkpt lat="45.99831" lon="1.40445">
        <ele>619.2</ele>
        <time>2015-05-24T08:39:30Z</time>
      </trkpt>
      <trkpt lat="45.9984" lon="1.40468">
        <ele>620.5</ele>
        <time>2015-05-24T08:39:40Z</time>
      </trkpt>
      <trkpt lat="45.99855" lon="1.40485">
        <ele>620.3</ele>
        <time>2015-05-24T08:39:49Z</time>
      </trkpt>
      <trkpt lat="45.99856" lon="1.40487">
        <ele>620.3</ele>
        <time>2015-05-24T08:39:50Z</time>
      </trkpt>
      <trkpt lat="45.99865" lon="1.40513">
        <ele>620.2</ele>
        <time>2015-05-24T08:39:58Z</time>
      </trkpt>
      <trkpt lat="45.99872" lon="1.40536">
        <ele>620.1</ele>
        <time>2015-05-24T08:40:05Z</time>
      </trkpt>
      <trkpt lat="45.99877" lon="1.4056">
        <ele>618.3</ele>
        <time>2015-05-24T08:40:14Z</time>
      </trkpt>
      <trkpt lat="45.99888" lon="1.40584">
        <ele>616.8</ele>
        <time>2015-05-24T08:40:23Z</time>
      </trkpt>
      <trkpt lat="45.9989" lon="1.40587">
        <ele>616.7</ele>
        <time>2015-05-24T08:40:24Z</time>
      </trkpt>
      <trkpt lat="45.99893" lon="1.40594">
        <ele>616.4</ele>
        <time>2015-05-24T08:40:27Z</time>
      </trkpt>
      <trkpt lat="45.999" lon="1.40618">
        <ele>615.2</ele>
        <time>2015-05-24T08:40:36Z</time>
      </trkpt>
      <trkpt lat="45.999" lon="1.40645">
        <ele>613.7</ele>
        <time>2015-05-24T08:40:46Z</time>
      </trkpt>
      <trkpt lat="45.99903" lon="1.40673">
        <ele>612.7</ele>
        <time>2015-05-24T08:40:55Z</time>
      </trkpt>
      <trkpt lat="45.9991" lon="1.40692">
        <ele>612.8</ele>
        <time>2015-05-24T08:41:03Z</time>
      </trkpt>
      <trkpt lat="45.9991" lon="1.40703">
        <ele>612.3</ele>
        <time>2015-05-24T08:41:08Z</time>
      </trkpt>
      <trkpt lat="45.9991" lon="1.40705">
        <ele>612.2</ele>
        <time>2015-05-24T08:41:09Z</time>
      </trkpt>
      <trkpt lat="45.9991" lon="1.40709">
        <ele>612</ele>
        <time>2015-05-24T08:41:14Z</time>
      </trkpt>
      <trkpt lat="45.99891" lon="1.40718">
        <ele>609.3</ele>
        <time>2015-05-24T08:41:28Z</time>
      </trkpt>
      <trkpt lat="45.9989" lon="1.4072">
        <ele>609.1</ele>
        <time>2015-05-24T08:41:29Z</time>
      </trkpt>
      <trkpt lat="45.99873" lon="1.40731">
        <ele>606.6</ele>
        <time>2015-05-24T08:41:38Z</time>
      </trkpt>
      <trkpt lat="45.99867" lon="1.40733">
        <ele>605.5</ele>
        <time>2015-05-24T08:41:41Z</time>
      </trkpt>
      <trkpt lat="45.99853" lon="1.4074">
        <ele>602.7</ele>
        <time>2015-05-24T08:41:49Z</time>
      </trkpt>
      <trkpt lat="45.9985" lon="1.40741">
        <ele>602</ele>
        <time>2015-05-24T08:41:51Z</time>
      </trkpt>
      <trkpt lat="45.99842" lon="1.40744">
        <ele>600.3</ele>
        <time>2015-05-24T08:41:55Z</time>
      </trkpt>
      <trkpt lat="45.99833" lon="1.4075">
        <ele>598.1</ele>
        <time>2015-05-24T08:42:00Z</time>
      </trkpt>
      <trkpt lat="45.99826" lon="1.40768">
        <ele>595.7</ele>
        <time>2015-05-24T08:42:05Z</time>
      </trkpt>
      <trkpt lat="45.99824" lon="1.40793">
        <ele>593.4</ele>
        <time>2015-05-24T08:42:14Z</time>
      </trkpt>
      <trkpt lat="45.99833" lon="1.40817">
        <ele>594.1</ele>
        <time>2015-05-24T08:42:24Z</time>
      </trkpt>
      <trkpt lat="45.99839" lon="1.40842">
        <ele>594.5</ele>
        <time>2015-05-24T08:42:34Z</time>
      </trkpt>
      <trkpt lat="45.99839" lon="1.40868">
        <ele>592.6</ele>
        <time>2015-05-24T08:42:41Z</time>
      </trkpt>
      <trkpt lat="45.99837" lon="1.40897">
        <ele>588.9</ele>
        <time>2015-05-24T08:42:49Z</time>
      </trkpt>
      <trkpt lat="45.99832" lon="1.40918">
        <ele>585</ele>
        <time>2015-05-24T08:42:56Z</time>
      </trkpt>
      <trkpt lat="45.99815" lon="1.40908">
        <ele>580.5</ele>
        <time>2015-05-24T08:43:10Z</time>
      </trkpt>
      <trkpt lat="45.99798" lon="1.40898">
        <ele>576.2</ele>
        <time>2015-05-24T08:43:18Z</time>
      </trkpt>
      <trkpt lat="45.99794" lon="1.40894">
        <ele>575.3</ele>
        <time>2015-05-24T08:43:20Z</time>
      </trkpt>
      <trkpt lat="45.99785" lon="1.40886">
        <ele>573.4</ele>
        <time>2015-05-24T08:43:24Z</time>
      </trkpt>
      <trkpt lat="45.9978" lon="1.40877">
        <ele>572.4</ele>
        <time>2015-05-24T08:43:27Z</time>
      </trkpt>
      <trkpt lat="45.99765" lon="1.4086">
        <ele>568.6</ele>
        <time>2015-05-24T08:43:35Z</time>
      </trkpt>
      <trkpt lat="45.99748" lon="1.40848">
        <ele>564.2</ele>
        <time>2015-05-24T08:43:43Z</time>
      </trkpt>
      <trkpt lat="45.99739" lon="1.40852">
        <ele>560.4</ele>
        <time>2015-05-24T08:43:48Z</time>
      </trkpt>
      <trkpt lat="45.99729" lon="1.40876">
        <ele>553.7</ele>
        <time>2015-05-24T08:43:57Z</time>
      </trkpt>
      <trkpt lat="45.99729" lon="1.40888">
        <ele>553.1</ele>
        <time>2015-05-24T08:44:01Z</time>
      </trkpt>
      <trkpt lat="45.99742" lon="1.40901">
        <ele>556.9</ele>
        <time>2015-05-24T08:44:08Z</time>
      </trkpt>
      <trkpt lat="45.99746" lon="1.40925">
        <ele>556.6</ele>
        <time>2015-05-24T08:44:17Z</time>
      </trkpt>
      <trkpt lat="45.99743" lon="1.40952">
        <ele>553.9</ele>
        <time>2015-05-24T08:44:27Z</time>
      </trkpt>
      <trkpt lat="45.99741" lon="1.40955">
        <ele>553.1</ele>
        <time>2015-05-24T08:44:28Z</time>
      </trkpt>
      <trkpt lat="45.99734" lon="1.40968">
        <ele>551.6</ele>
        <time>2015-05-24T08:44:34Z</time>
      </trkpt>
      <trkpt lat="45.99732" lon="1.4097">
        <ele>551.2</ele>
        <time>2015-05-24T08:44:35Z</time>
      </trkpt>
      <trkpt lat="45.99716" lon="1.40987">
        <ele>547.7</ele>
        <time>2015-05-24T08:44:49Z</time>
      </trkpt>
      <trkpt lat="45.997" lon="1.41001">
        <ele>544.1</ele>
        <time>2015-05-24T08:44:57Z</time>
      </trkpt>
      <trkpt lat="45.99697" lon="1.41002">
        <ele>543.3</ele>
        <time>2015-05-24T08:44:58Z</time>
      </trkpt>
      <trkpt lat="45.99684" lon="1.41005">
        <ele>540</ele>
        <time>2015-05-24T08:45:03Z</time>
      </trkpt>
      <trkpt lat="45.99663" lon="1.41006">
        <ele>534.3</ele>
        <time>2015-05-24T08:45:12Z</time>
      </trkpt>
      <trkpt lat="45.99645" lon="1.41017">
        <ele>530.4</ele>
        <time>2015-05-24T08:45:21Z</time>
      </trkpt>
      <trkpt lat="45.99631" lon="1.41033">
        <ele>529.1</ele>
        <time>2015-05-24T08:45:28Z</time>
      </trkpt>
      <trkpt lat="45.9962" lon="1.41058">
        <ele>528.7</ele>
        <time>2015-05-24T08:45:34Z</time>
      </trkpt>
      <trkpt lat="45.99613" lon="1.41084">
        <ele>528.2</ele>
        <time>2015-05-24T08:45:41Z</time>
      </trkpt>
      <trkpt lat="45.99605" lon="1.41111">
        <ele>526.9</ele>
        <time>2015-05-24T08:45:48Z</time>
      </trkpt>
      <trkpt lat="45.99602" lon="1.41141">
        <ele>526.6</ele>
        <time>2015-05-24T08:45:56Z</time>
      </trkpt>
      <trkpt lat="45.99593" lon="1.41169">
        <ele>524.6</ele>
        <time>2015-05-24T08:46:03Z</time>
      </trkpt>
      <trkpt lat="45.99583" lon="1.41192">
        <ele>522.9</ele>
        <time>2015-05-24T08:46:10Z</time>
      </trkpt>
      <trkpt lat="45.99576" lon="1.412">
        <ele>521.8</ele>
        <time>2015-05-24T08:46:18Z</time>
      </trkpt>
      <trkpt lat="45.99568" lon="1.41212">
        <ele>521.7</ele>
        <time>2015-05-24T08:46:24Z</time>
      </trkpt>
      <trkpt lat="45.99551" lon="1.41228">
        <ele>522.6</ele>
        <time>2015-05-24T08:46:31Z</time>
      </trkpt>
      <trkpt lat="45.99548" lon="1.41229">
        <ele>522.4</ele>
        <time>2015-05-24T08:46:32Z</time>
      </trkpt>
      <trkpt lat="45.99531" lon="1.41223">
        <ele>519.7</ele>
        <time>2015-05-24T08:46:39Z</time>
      </trkpt>
      <trkpt lat="45.99513" lon="1.41217">
        <ele>518.1</ele>
        <time>2015-05-24T08:46:46Z</time>
      </trkpt>
      <trkpt lat="45.9951" lon="1.41217">
        <ele>518.2</ele>
        <time>2015-05-24T08:46:47Z</time>
      </trkpt>
      <trkpt lat="45.9949" lon="1.41215">
        <ele>517.4</ele>
        <time>2015-05-24T08:46:55Z</time>
      </trkpt>
      <trkpt lat="45.9947" lon="1.41209">
        <ele>516</ele>
        <time>2015-05-24T08:47:02Z</time>
      </trkpt>
      <trkpt lat="45.99453" lon="1.41193">
        <ele>511.8</ele>
        <time>2015-05-24T08:47:09Z</time>
      </trkpt>
      <trkpt lat="45.99433" lon="1.41184">
        <ele>506.6</ele>
        <time>2015-05-24T08:47:16Z</time>
      </trkpt>
      <trkpt lat="45.99415" lon="1.41182">
        <ele>503.4</ele>
        <time>2015-05-24T08:47:22Z</time>
      </trkpt>
      <trkpt lat="45.99397" lon="1.41184">
        <ele>501</ele>
        <time>2015-05-24T08:47:28Z</time>
      </trkpt>
      <trkpt lat="45.99378" lon="1.41189">
        <ele>498.9</ele>
        <time>2015-05-24T08:47:35Z</time>
      </trkpt>
      <trkpt lat="45.99376" lon="1.4119">
        <ele>498.9</ele>
        <time>2015-05-24T08:47:36Z</time>
      </trkpt>
      <trkpt lat="45.99359" lon="1.41198">
        <ele>497.3</ele>
        <time>2015-05-24T08:47:43Z</time>
      </trkpt>
      <trkpt lat="45.99341" lon="1.41207">
        <ele>495.7</ele>
        <time>2015-05-24T08:47:49Z</time>
      </trkpt>
      <trkpt lat="45.99324" lon="1.41216">
        <ele>493.9</ele>
        <time>2015-05-24T08:47:55Z</time>
      </trkpt>
      <trkpt lat="45.99304" lon="1.41223">
        <ele>491.1</ele>
        <time>2015-05-24T08:48:03Z</time>
      </trkpt>
      <trkpt lat="45.99287" lon="1.41233">
        <ele>489</ele>
        <time>2015-05-24T08:48:12Z</time>
      </trkpt>
      <trkpt lat="45.99269" lon="1.41248">
        <ele>486.8</ele>
        <time>2015-05-24T08:48:20Z</time>
      </trkpt>
      <trkpt lat="45.99255" lon="1.41265">
        <ele>485.4</ele>
        <time>2015-05-24T08:48:26Z</time>
      </trkpt>
      <trkpt lat="45.9924" lon="1.41281">
        <ele>483.4</ele>
        <time>2015-05-24T08:48:33Z</time>
      </trkpt>
      <trkpt lat="45.99227" lon="1.41301">
        <ele>481.7</ele>
        <time>2015-05-24T08:48:40Z</time>
      </trkpt>
      <trkpt lat="45.99221" lon="1.41327">
        <ele>480.8</ele>
        <time>2015-05-24T08:48:47Z</time>
      </trkpt>
      <trkpt lat="45.99214" lon="1.41352">
        <ele>479.8</ele>
        <time>2015-05-24T08:48:53Z</time>
      </trkpt>
      <trkpt lat="45.99207" lon="1.41366">
        <ele>478.5</ele>
        <time>2015-05-24T08:48:58Z</time>
      </trkpt>
      <trkpt lat="45.992" lon="1.41378">
        <ele>477.5</ele>
        <time>2015-05-24T08:49:03Z</time>
      </trkpt>
      <trkpt lat="45.99188" lon="1.41401">
        <ele>476.3</ele>
        <time>2015-05-24T08:49:11Z</time>
      </trkpt>
      <trkpt lat="45.99178" lon="1.41427">
        <ele>475.8</ele>
        <time>2015-05-24T08:49:18Z</time>
      </trkpt>
      <trkpt lat="45.99167" lon="1.41447">
        <ele>474.9</ele>
        <time>2015-05-24T08:49:24Z</time>
      </trkpt>
      <trkpt lat="45.99151" lon="1.41465">
        <ele>473.1</ele>
        <time>2015-05-24T08:49:32Z</time>
      </trkpt>
      <trkpt lat="45.9913" lon="1.4147">
        <ele>469.7</ele>
        <time>2015-05-24T08:49:40Z</time>
      </trkpt>
      <trkpt lat="45.99111" lon="1.41472">
        <ele>466.9</ele>
        <time>2015-05-24T08:49:46Z</time>
      </trkpt>
      <trkpt lat="45.99091" lon="1.4148">
        <ele>464.2</ele>
        <time>2015-05-24T08:49:52Z</time>
      </trkpt>
      <trkpt lat="45.99086" lon="1.41485">
        <ele>463.5</ele>
        <time>2015-05-24T08:49:54Z</time>
      </trkpt>
      <trkpt lat="45.99078" lon="1.41509">
        <ele>462.7</ele>
        <time>2015-05-24T08:50:00Z</time>
      </trkpt>
      <trkpt lat="45.99074" lon="1.41515">
        <ele>462.3</ele>
        <time>2015-05-24T08:50:02Z</time>
      </trkpt>
      <trkpt lat="45.99057" lon="1.41514">
        <ele>460.2</ele>
        <time>2015-05-24T08:50:08Z</time>
      </trkpt>
      <trkpt lat="45.99038" lon="1.41508">
        <ele>457.7</ele>
        <time>2015-05-24T08:50:15Z</time>
      </trkpt>
      <trkpt lat="45.99035" lon="1.41507">
        <ele>457.2</ele>
        <time>2015-05-24T08:50:16Z</time>
      </trkpt>
      <trkpt lat="45.99016" lon="1.41502">
        <ele>454.3</ele>
        <time>2015-05-24T08:50:23Z</time>
      </trkpt>
      <trkpt lat="45.98998" lon="1.41493">
        <ele>451.5</ele>
        <time>2015-05-24T08:50:30Z</time>
      </trkpt>
      <trkpt lat="45.98992" lon="1.4148">
        <ele>450.3</ele>
        <time>2015-05-24T08:50:38Z</time>
      </trkpt>
      <trkpt lat="45.98992" lon="1.41475">
        <ele>450.2</ele>
        <time>2015-05-24T08:51:40Z</time>
      </trkpt>
      <trkpt lat="45.98991" lon="1.41467">
        <ele>449.9</ele>
        <time>2015-05-24T08:51:56Z</time>
      </trkpt>
      <trkpt lat="45.98993" lon="1.41441">
        <ele>449.3</ele>
        <time>2015-05-24T08:52:03Z</time>
      </trkpt>
      <trkpt lat="45.99" lon="1.41415">
        <ele>449.1</ele>
        <time>2015-05-24T08:52:10Z</time>
      </trkpt>
      <trkpt lat="45.99007" lon="1.4139">
        <ele>449.1</ele>
        <time>2015-05-24T08:52:17Z</time>
      </trkpt>
      <trkpt lat="45.99017" lon="1.41366">
        <ele>449.5</ele>
        <time>2015-05-24T08:52:24Z</time>
      </trkpt>
      <trkpt lat="45.99025" lon="1.41343">
        <ele>450.2</ele>
        <time>2015-05-24T08:52:31Z</time>
      </trkpt>
      <trkpt lat="45.99027" lon="1.41317">
        <ele>449.9</ele>
        <time>2015-05-24T08:52:38Z</time>
      </trkpt>
      <trkpt lat="45.99025" lon="1.41314">
        <ele>449.6</ele>
        <time>2015-05-24T08:52:39Z</time>
      </trkpt>
      <trkpt lat="45.99016" lon="1.41302">
        <ele>448.3</ele>
        <time>2015-05-24T08:52:43Z</time>
      </trkpt>
      <trkpt lat="45.99" lon="1.41287">
        <ele>446.4</ele>
        <time>2015-05-24T08:52:49Z</time>
      </trkpt>
      <trkpt lat="45.98982" lon="1.41275">
        <ele>444</ele>
        <time>2015-05-24T08:52:56Z</time>
      </trkpt>
      <trkpt lat="45.98977" lon="1.41275">
        <ele>443.5</ele>
        <time>2015-05-24T08:52:58Z</time>
      </trkpt>
      <trkpt lat="45.98966" lon="1.41281">
        <ele>442.5</ele>
        <time>2015-05-24T08:53:02Z</time>
      </trkpt>
      <trkpt lat="45.98949" lon="1.41271">
        <ele>440.2</ele>
        <time>2015-05-24T08:53:09Z</time>
      </trkpt>
      <trkpt lat="45.98948" lon="1.41268">
        <ele>440</ele>
        <time>2015-05-24T08:53:10Z</time>
      </trkpt>
      <trkpt lat="45.98957" lon="1.41244">
        <ele>440.6</ele>
        <time>2015-05-24T08:53:18Z</time>
      </trkpt>
      <trkpt lat="45.9897" lon="1.41222">
        <ele>441.2</ele>
        <time>2015-05-24T08:53:26Z</time>
      </trkpt>
      <trkpt lat="45.98973" lon="1.41203">
        <ele>440.9</ele>
        <time>2015-05-24T08:53:31Z</time>
      </trkpt>
      <trkpt lat="45.98975" lon="1.41177">
        <ele>439.9</ele>
        <time>2015-05-24T08:53:38Z</time>
      </trkpt>
      <trkpt lat="45.98973" lon="1.41171">
        <ele>439.5</ele>
        <time>2015-05-24T08:53:40Z</time>
      </trkpt>
      <trkpt lat="45.98964" lon="1.4115">
        <ele>437.8</ele>
        <time>2015-05-24T08:53:48Z</time>
      </trkpt>
      <trkpt lat="45.98966" lon="1.41144">
        <ele>437.7</ele>
        <time>2015-05-24T08:53:50Z</time>
      </trkpt>
      <trkpt lat="45.98975" lon="1.41129">
        <ele>438</ele>
        <time>2015-05-24T08:53:57Z</time>
      </trkpt>
      <trkpt lat="45.9897" lon="1.41104">
        <ele>434.8</ele>
        <time>2015-05-24T08:54:04Z</time>
      </trkpt>
      <trkpt lat="45.9897" lon="1.41075">
        <ele>431.4</ele>
        <time>2015-05-24T08:54:12Z</time>
      </trkpt>
      <trkpt lat="45.98969" lon="1.41048">
        <ele>428</ele>
        <time>2015-05-24T08:54:19Z</time>
      </trkpt>
      <trkpt lat="45.98967" lon="1.41044">
        <ele>427.4</ele>
        <time>2015-05-24T08:54:20Z</time>
      </trkpt>
      <trkpt lat="45.98955" lon="1.41033">
        <ele>426</ele>
        <time>2015-05-24T08:54:27Z</time>
      </trkpt>
      <trkpt lat="45.98949" lon="1.41031">
        <ele>425.6</ele>
        <time>2015-05-24T08:54:30Z</time>
      </trkpt>
      <trkpt lat="45.98943" lon="1.41026">
        <ele>425.2</ele>
        <time>2015-05-24T08:54:33Z</time>
      </trkpt>
      <trkpt lat="45.9894" lon="1.40999">
        <ele>425.4</ele>
        <time>2015-05-24T08:54:41Z</time>
      </trkpt>
      <trkpt lat="45.9894" lon="1.40981">
        <ele>425.7</ele>
        <time>2015-05-24T08:54:46Z</time>
      </trkpt>
      <trkpt lat="45.98933" lon="1.40954">
        <ele>425.4</ele>
        <time>2015-05-24T08:54:53Z</time>
      </trkpt>
      <trkpt lat="45.98922" lon="1.4093">
        <ele>426.4</ele>
        <time>2015-05-24T08:55:00Z</time>
      </trkpt>
      <trkpt lat="45.9892" lon="1.40926">
        <ele>426.5</ele>
        <time>2015-05-24T08:55:02Z</time>
      </trkpt>
      <trkpt lat="45.98909" lon="1.40917">
        <ele>425.8</ele>
        <time>2015-05-24T08:55:07Z</time>
      </trkpt>
      <trkpt lat="45.98894" lon="1.40902">
        <ele>425.4</ele>
        <time>2015-05-24T08:55:14Z</time>
      </trkpt>
      <trkpt lat="45.98885" lon="1.4088">
        <ele>426.8</ele>
        <time>2015-05-24T08:55:25Z</time>
      </trkpt>
      <trkpt lat="45.98883" lon="1.40876">
        <ele>427.1</ele>
        <time>2015-05-24T08:55:27Z</time>
      </trkpt>
      <trkpt lat="45.98879" lon="1.40868">
        <ele>427</ele>
        <time>2015-05-24T08:55:31Z</time>
      </trkpt>
      <trkpt lat="45.98872" lon="1.40844">
        <ele>428.2</ele>
        <time>2015-05-24T08:55:40Z</time>
      </trkpt>
      <trkpt lat="45.98871" lon="1.40841">
        <ele>428.3</ele>
        <time>2015-05-24T08:55:41Z</time>
      </trkpt>
      <trkpt lat="45.98859" lon="1.4082">
        <ele>429.9</ele>
        <time>2015-05-24T08:55:49Z</time>
      </trkpt>
      <trkpt lat="45.98851" lon="1.40807">
        <ele>431.1</ele>
        <time>2015-05-24T08:55:54Z</time>
      </trkpt>
      <trkpt lat="45.98833" lon="1.40796">
        <ele>432.5</ele>
        <time>2015-05-24T08:56:02Z</time>
      </trkpt>
      <trkpt lat="45.98814" lon="1.40786">
        <ele>433.9</ele>
        <time>2015-05-24T08:56:09Z</time>
      </trkpt>
      <trkpt lat="45.98795" lon="1.40781">
        <ele>434.7</ele>
        <time>2015-05-24T08:56:18Z</time>
      </trkpt>
      <trkpt lat="45.98781" lon="1.40776">
        <ele>434.9</ele>
        <time>2015-05-24T08:56:28Z</time>
      </trkpt>
      <trkpt lat="45.98773" lon="1.40764">
        <ele>435.8</ele>
        <time>2015-05-24T08:56:38Z</time>
      </trkpt>
      <trkpt lat="45.9876" lon="1.40755">
        <ele>436.6</ele>
        <time>2015-05-24T08:56:49Z</time>
      </trkpt>
      <trkpt lat="45.98748" lon="1.40754">
        <ele>436.8</ele>
        <time>2015-05-24T08:56:57Z</time>
      </trkpt>
      <trkpt lat="45.98743" lon="1.40748">
        <ele>437.5</ele>
        <time>2015-05-24T08:57:01Z</time>
      </trkpt>
      <trkpt lat="45.9874" lon="1.40737">
        <ele>438.9</ele>
        <time>2015-05-24T08:57:08Z</time>
      </trkpt>
      <trkpt lat="45.98738" lon="1.40732">
        <ele>439.6</ele>
        <time>2015-05-24T08:57:11Z</time>
      </trkpt>
      <trkpt lat="45.98735" lon="1.40706">
        <ele>443.1</ele>
        <time>2015-05-24T08:57:23Z</time>
      </trkpt>
      <trkpt lat="45.98728" lon="1.40696">
        <ele>445</ele>
        <time>2015-05-24T08:57:29Z</time>
      </trkpt>
      <trkpt lat="45.98722" lon="1.40692">
        <ele>446</ele>
        <time>2015-05-24T08:57:33Z</time>
      </trkpt>
      <trkpt lat="45.98718" lon="1.40685">
        <ele>447.3</ele>
        <time>2015-05-24T08:57:37Z</time>
      </trkpt>
      <trkpt lat="45.98708" lon="1.40667">
        <ele>450.3</ele>
        <time>2015-05-24T08:57:47Z</time>
      </trkpt>
      <trkpt lat="45.98692" lon="1.40658">
        <ele>448.9</ele>
        <time>2015-05-24T08:57:57Z</time>
      </trkpt>
      <trkpt lat="45.98676" lon="1.40647">
        <ele>447.5</ele>
        <time>2015-05-24T08:58:04Z</time>
      </trkpt>
      <trkpt lat="45.98673" lon="1.40644">
        <ele>447.3</ele>
        <time>2015-05-24T08:58:06Z</time>
      </trkpt>
      <trkpt lat="45.98667" lon="1.4064">
        <ele>446.9</ele>
        <time>2015-05-24T08:58:10Z</time>
      </trkpt>
      <trkpt lat="45.98658" lon="1.40637">
        <ele>445.5</ele>
        <time>2015-05-24T08:58:15Z</time>
      </trkpt>
      <trkpt lat="45.98651" lon="1.40636">
        <ele>444.4</ele>
        <time>2015-05-24T08:58:18Z</time>
      </trkpt>
      <trkpt lat="45.98632" lon="1.40638">
        <ele>440.5</ele>
        <time>2015-05-24T08:58:25Z</time>
      </trkpt>
      <trkpt lat="45.98611" lon="1.4064">
        <ele>436.9</ele>
        <time>2015-05-24T08:58:32Z</time>
      </trkpt>
      <trkpt lat="45.98594" lon="1.4063">
        <ele>435.6</ele>
        <time>2015-05-24T08:58:39Z</time>
      </trkpt>
      <trkpt lat="45.98579" lon="1.40611">
        <ele>435.5</ele>
        <time>2015-05-24T08:58:47Z</time>
      </trkpt>
      <trkpt lat="45.98564" lon="1.40594">
        <ele>434.9</ele>
        <time>2015-05-24T08:58:56Z</time>
      </trkpt>
      <trkpt lat="45.98555" lon="1.40572">
        <ele>435.6</ele>
        <time>2015-05-24T08:59:05Z</time>
      </trkpt>
      <trkpt lat="45.98558" lon="1.40548">
        <ele>438.7</ele>
        <time>2015-05-24T08:59:21Z</time>
      </trkpt>
      <trkpt lat="45.98559" lon="1.40544">
        <ele>439.3</ele>
        <time>2015-05-24T08:59:24Z</time>
      </trkpt>
      <trkpt lat="45.98562" lon="1.40517">
        <ele>440.6</ele>
        <time>2015-05-24T08:59:35Z</time>
      </trkpt>
      <trkpt lat="45.98563" lon="1.40504">
        <ele>440.9</ele>
        <time>2015-05-24T08:59:43Z</time>
      </trkpt>
      <trkpt lat="45.98563" lon="1.40494">
        <ele>441</ele>
        <time>2015-05-24T08:59:47Z</time>
      </trkpt>
      <trkpt lat="45.98565" lon="1.40479">
        <ele>441.8</ele>
        <time>2015-05-24T08:59:54Z</time>
      </trkpt>
      <trkpt lat="45.98565" lon="1.40472">
        <ele>441.9</ele>
        <time>2015-05-24T08:59:57Z</time>
      </trkpt>
      <trkpt lat="45.98568" lon="1.40454">
        <ele>442.8</ele>
        <time>2015-05-24T09:00:07Z</time>
      </trkpt>
      <trkpt lat="45.98569" lon="1.40447">
        <ele>443.1</ele>
        <time>2015-05-24T09:00:12Z</time>
      </trkpt>
      <trkpt lat="45.98574" lon="1.40458">
        <ele>444.1</ele>
        <time>2015-05-24T09:00:40Z</time>
      </trkpt>
      <trkpt lat="45.98578" lon="1.40462">
        <ele>444.7</ele>
        <time>2015-05-24T09:00:44Z</time>
      </trkpt>
      <trkpt lat="45.98594" lon="1.40476">
        <ele>447.9</ele>
        <time>2015-05-24T09:00:55Z</time>
      </trkpt>
      <trkpt lat="45.986" lon="1.40481">
        <ele>449.1</ele>
        <time>2015-05-24T09:01:02Z</time>
      </trkpt>
      <trkpt lat="45.98611" lon="1.40488">
        <ele>451.2</ele>
        <time>2015-05-24T09:01:09Z</time>
      </trkpt>
      <trkpt lat="45.98615" lon="1.40492">
        <ele>452</ele>
        <time>2015-05-24T09:01:13Z</time>
      </trkpt>
      <trkpt lat="45.98617" lon="1.40497">
        <ele>452.5</ele>
        <time>2015-05-24T09:01:16Z</time>
      </trkpt>
      <trkpt lat="45.98631" lon="1.40515">
        <ele>454.9</ele>
        <time>2015-05-24T09:01:31Z</time>
      </trkpt>
      <trkpt lat="45.98648" lon="1.40526">
        <ele>458.1</ele>
        <time>2015-05-24T09:01:43Z</time>
      </trkpt>
      <trkpt lat="45.98653" lon="1.4053">
        <ele>459</ele>
        <time>2015-05-24T09:01:48Z</time>
      </trkpt>
      <trkpt lat="45.9867" lon="1.40537">
        <ele>462.4</ele>
        <time>2015-05-24T09:02:01Z</time>
      </trkpt>
      <trkpt lat="45.98688" lon="1.40536">
        <ele>466.1</ele>
        <time>2015-05-24T09:02:15Z</time>
      </trkpt>
      <trkpt lat="45.9869" lon="1.40536">
        <ele>466.4</ele>
        <time>2015-05-24T09:02:16Z</time>
      </trkpt>
      <trkpt lat="45.98708" lon="1.40531">
        <ele>470.4</ele>
        <time>2015-05-24T09:02:24Z</time>
      </trkpt>
      <trkpt lat="45.98724" lon="1.40529">
        <ele>472.2</ele>
        <time>2015-05-24T09:02:35Z</time>
      </trkpt>
      <trkpt lat="45.98743" lon="1.4053">
        <ele>474.2</ele>
        <time>2015-05-24T09:02:47Z</time>
      </trkpt>
      <trkpt lat="45.98749" lon="1.40531">
        <ele>474.9</ele>
        <time>2015-05-24T09:02:55Z</time>
      </trkpt>
      <trkpt lat="45.98765" lon="1.40517">
        <ele>477.4</ele>
        <time>2015-05-24T09:03:12Z</time>
      </trkpt>
      <trkpt lat="45.98787" lon="1.40491">
        <ele>481.5</ele>
        <time>2015-05-24T09:03:32Z</time>
      </trkpt>
      <trkpt lat="45.98772" lon="1.40474">
        <ele>480.6</ele>
        <time>2015-05-24T09:03:47Z</time>
      </trkpt>
      <trkpt lat="45.98771" lon="1.40469">
        <ele>480.7</ele>
        <time>2015-05-24T09:03:50Z</time>
      </trkpt>
      <trkpt lat="45.9877" lon="1.40456">
        <ele>481.3</ele>
        <time>2015-05-24T09:03:56Z</time>
      </trkpt>
      <trkpt lat="45.98767" lon="1.40452">
        <ele>481.2</ele>
        <time>2015-05-24T09:04:00Z</time>
      </trkpt>
      <trkpt lat="45.9875" lon="1.40447">
        <ele>479</ele>
        <time>2015-05-24T09:04:12Z</time>
      </trkpt>
      <trkpt lat="45.98732" lon="1.40445">
        <ele>476.6</ele>
        <time>2015-05-24T09:04:21Z</time>
      </trkpt>
      <trkpt lat="45.98715" lon="1.40432">
        <ele>474.4</ele>
        <time>2015-05-24T09:04:30Z</time>
      </trkpt>
      <trkpt lat="45.98714" lon="1.4043">
        <ele>474.2</ele>
        <time>2015-05-24T09:04:31Z</time>
      </trkpt>
      <trkpt lat="45.98706" lon="1.40405">
        <ele>472.9</ele>
        <time>2015-05-24T09:04:40Z</time>
      </trkpt>
      <trkpt lat="45.987" lon="1.40377">
        <ele>471.8</ele>
        <time>2015-05-24T09:04:49Z</time>
      </trkpt>
      <trkpt lat="45.98695" lon="1.40349">
        <ele>472.3</ele>
        <time>2015-05-24T09:04:58Z</time>
      </trkpt>
      <trkpt lat="45.98692" lon="1.40323">
        <ele>473.4</ele>
        <time>2015-05-24T09:05:07Z</time>
      </trkpt>
      <trkpt lat="45.98694" lon="1.40313">
        <ele>474.4</ele>
        <time>2015-05-24T09:05:11Z</time>
      </trkpt>
      <trkpt lat="45.98698" lon="1.40309">
        <ele>475.8</ele>
        <time>2015-05-24T09:05:16Z</time>
      </trkpt>
      <trkpt lat="45.98713" lon="1.40293">
        <ele>479.9</ele>
        <time>2015-05-24T09:05:30Z</time>
      </trkpt>
      <trkpt lat="45.98727" lon="1.40277">
        <ele>483.7</ele>
        <time>2015-05-24T09:05:47Z</time>
      </trkpt>
      <trkpt lat="45.9874" lon="1.40257">
        <ele>486.9</ele>
        <time>2015-05-24T09:06:02Z</time>
      </trkpt>
      <trkpt lat="45.98754" lon="1.40239">
        <ele>490.5</ele>
        <time>2015-05-24T09:06:18Z</time>
      </trkpt>
      <trkpt lat="45.98768" lon="1.40222">
        <ele>494.1</ele>
        <time>2015-05-24T09:06:35Z</time>
      </trkpt>
      <trkpt lat="45.98779" lon="1.40202">
        <ele>496.5</ele>
        <time>2015-05-24T09:06:52Z</time>
      </trkpt>
      <trkpt lat="45.98781" lon="1.40195">
        <ele>496.6</ele>
        <time>2015-05-24T09:06:57Z</time>
      </trkpt>
      <trkpt lat="45.98783" lon="1.40189">
        <ele>496.5</ele>
        <time>2015-05-24T09:07:02Z</time>
      </trkpt>
      <trkpt lat="45.98791" lon="1.40165">
        <ele>496.8</ele>
        <time>2015-05-24T09:07:19Z</time>
      </trkpt>
      <trkpt lat="45.98799" lon="1.40147">
        <ele>497.3</ele>
        <time>2015-05-24T09:07:28Z</time>
      </trkpt>
      <trkpt lat="45.9881" lon="1.40126">
        <ele>498.7</ele>
        <time>2015-05-24T09:07:40Z</time>
      </trkpt>
      <trkpt lat="45.98822" lon="1.40106">
        <ele>499.8</ele>
        <time>2015-05-24T09:07:52Z</time>
      </trkpt>
      <trkpt lat="45.9883" lon="1.40098">
        <ele>500.8</ele>
        <time>2015-05-24T09:07:58Z</time>
      </trkpt>
      <trkpt lat="45.98844" lon="1.40079">
        <ele>501.9</ele>
        <time>2015-05-24T09:08:10Z</time>
      </trkpt>
      <trkpt lat="45.98846" lon="1.40077">
        <ele>502.2</ele>
        <time>2015-05-24T09:08:12Z</time>
      </trkpt>
      <trkpt lat="45.9885" lon="1.40072">
        <ele>502.5</ele>
        <time>2015-05-24T09:08:17Z</time>
      </trkpt>
      <trkpt lat="45.98853" lon="1.40067">
        <ele>502.6</ele>
        <time>2015-05-24T09:08:22Z</time>
      </trkpt>
      <trkpt lat="45.98858" lon="1.40063">
        <ele>503.2</ele>
        <time>2015-05-24T09:08:27Z</time>
      </trkpt>
      <trkpt lat="45.9886" lon="1.40062">
        <ele>503.4</ele>
        <time>2015-05-24T09:08:28Z</time>
      </trkpt>
      <trkpt lat="45.98867" lon="1.40058">
        <ele>504.3</ele>
        <time>2015-05-24T09:08:32Z</time>
      </trkpt>
      <trkpt lat="45.98872" lon="1.40053">
        <ele>504.8</ele>
        <time>2015-05-24T09:08:36Z</time>
      </trkpt>
      <trkpt lat="45.98884" lon="1.40042">
        <ele>506.2</ele>
        <time>2015-05-24T09:08:47Z</time>
      </trkpt>
      <trkpt lat="45.98889" lon="1.40038">
        <ele>506.7</ele>
        <time>2015-05-24T09:08:51Z</time>
      </trkpt>
      <trkpt lat="45.98906" lon="1.40024">
        <ele>508.3</ele>
        <time>2015-05-24T09:09:03Z</time>
      </trkpt>
      <trkpt lat="45.9891" lon="1.40021">
        <ele>508.8</ele>
        <time>2015-05-24T09:09:06Z</time>
      </trkpt>
      <trkpt lat="45.98914" lon="1.40018">
        <ele>509.1</ele>
        <time>2015-05-24T09:09:10Z</time>
      </trkpt>
      <trkpt lat="45.98929" lon="1.40002">
        <ele>510.1</ele>
        <time>2015-05-24T09:09:24Z</time>
      </trkpt>
      <trkpt lat="45.98946" lon="1.3999">
        <ele>511.5</ele>
        <time>2015-05-24T09:09:38Z</time>
      </trkpt>
      <trkpt lat="45.98961" lon="1.39979">
        <ele>513.1</ele>
        <time>2015-05-24T09:09:50Z</time>
      </trkpt>
      <trkpt lat="45.98969" lon="1.39972">
        <ele>514.2</ele>
        <time>2015-05-24T09:09:56Z</time>
      </trkpt>
      <trkpt lat="45.98984" lon="1.39956">
        <ele>515.4</ele>
        <time>2015-05-24T09:10:10Z</time>
      </trkpt>
      <trkpt lat="45.98997" lon="1.39936">
        <ele>515.4</ele>
        <time>2015-05-24T09:10:22Z</time>
      </trkpt>
      <trkpt lat="45.98998" lon="1.39933">
        <ele>515.3</ele>
        <time>2015-05-24T09:10:24Z</time>
      </trkpt>
      <trkpt lat="45.9901" lon="1.39913">
        <ele>515.1</ele>
        <time>2015-05-24T09:10:38Z</time>
      </trkpt>
      <trkpt lat="45.99012" lon="1.3991">
        <ele>515.2</ele>
        <time>2015-05-24T09:10:40Z</time>
      </trkpt>
      <trkpt lat="45.9902" lon="1.39905">
        <ele>516.7</ele>
        <time>2015-05-24T09:10:45Z</time>
      </trkpt>
      <trkpt lat="45.99028" lon="1.39904">
        <ele>518.8</ele>
        <time>2015-05-24T09:10:50Z</time>
      </trkpt>
      <trkpt lat="45.99031" lon="1.39905">
        <ele>519.8</ele>
        <time>2015-05-24T09:10:53Z</time>
      </trkpt>
      <trkpt lat="45.99035" lon="1.39907">
        <ele>521.2</ele>
        <time>2015-05-24T09:10:58Z</time>
      </trkpt>
      <trkpt lat="45.99045" lon="1.39908">
        <ele>524.4</ele>
        <time>2015-05-24T09:11:08Z</time>
      </trkpt>
      <trkpt lat="45.99063" lon="1.39911">
        <ele>529.2</ele>
        <time>2015-05-24T09:11:22Z</time>
      </trkpt>
      <trkpt lat="45.99067" lon="1.39911">
        <ele>530.1</ele>
        <time>2015-05-24T09:11:25Z</time>
      </trkpt>
      <trkpt lat="45.99075" lon="1.399">
        <ele>530</ele>
        <time>2015-05-24T09:11:33Z</time>
      </trkpt>
      <trkpt lat="45.99081" lon="1.3988">
        <ele>527.5</ele>
        <time>2015-05-24T09:11:45Z</time>
      </trkpt>
      <trkpt lat="45.99083" lon="1.39878">
        <ele>527.4</ele>
        <time>2015-05-24T09:11:46Z</time>
      </trkpt>
      <trkpt lat="45.99096" lon="1.39863">
        <ele>527.3</ele>
        <time>2015-05-24T09:11:55Z</time>
      </trkpt>
      <trkpt lat="45.99112" lon="1.3985">
        <ele>528.2</ele>
        <time>2015-05-24T09:12:05Z</time>
      </trkpt>
      <trkpt lat="45.99128" lon="1.39835">
        <ele>529</ele>
        <time>2015-05-24T09:12:16Z</time>
      </trkpt>
      <trkpt lat="45.99142" lon="1.39815">
        <ele>529.5</ele>
        <time>2015-05-24T09:12:26Z</time>
      </trkpt>
      <trkpt lat="45.99159" lon="1.39801">
        <ele>531.8</ele>
        <time>2015-05-24T09:12:37Z</time>
      </trkpt>
      <trkpt lat="45.99175" lon="1.39789">
        <ele>534.4</ele>
        <time>2015-05-24T09:12:51Z</time>
      </trkpt>
      <trkpt lat="45.99187" lon="1.39776">
        <ele>535.8</ele>
        <time>2015-05-24T09:13:02Z</time>
      </trkpt>
      <trkpt lat="45.99189" lon="1.39774">
        <ele>536.1</ele>
        <time>2015-05-24T09:13:04Z</time>
      </trkpt>
      <trkpt lat="45.99201" lon="1.39763">
        <ele>537.7</ele>
        <time>2015-05-24T09:13:15Z</time>
      </trkpt>
      <trkpt lat="45.99209" lon="1.39754">
        <ele>538.4</ele>
        <time>2015-05-24T09:13:23Z</time>
      </trkpt>
      <trkpt lat="45.99222" lon="1.3974">
        <ele>539.4</ele>
        <time>2015-05-24T09:13:36Z</time>
      </trkpt>
      <trkpt lat="45.9923" lon="1.39734">
        <ele>540.6</ele>
        <time>2015-05-24T09:13:42Z</time>
      </trkpt>
      <trkpt lat="45.99233" lon="1.39733">
        <ele>541.2</ele>
        <time>2015-05-24T09:13:44Z</time>
      </trkpt>
      <trkpt lat="45.9924" lon="1.39729">
        <ele>542.4</ele>
        <time>2015-05-24T09:13:49Z</time>
      </trkpt>
      <trkpt lat="45.99241" lon="1.39729">
        <ele>542.7</ele>
        <time>2015-05-24T09:13:50Z</time>
      </trkpt>
      <trkpt lat="45.99245" lon="1.39732">
        <ele>544.3</ele>
        <time>2015-05-24T09:13:55Z</time>
      </trkpt>
      <trkpt lat="45.99246" lon="1.39734">
        <ele>545</ele>
        <time>2015-05-24T09:13:57Z</time>
      </trkpt>
      <trkpt lat="45.99265" lon="1.39732">
        <ele>549.8</ele>
        <time>2015-05-24T09:14:13Z</time>
      </trkpt>
      <trkpt lat="45.9928" lon="1.39714">
        <ele>550.8</ele>
        <time>2015-05-24T09:14:28Z</time>
      </trkpt>
      <trkpt lat="45.99292" lon="1.39694">
        <ele>551.9</ele>
        <time>2015-05-24T09:14:38Z</time>
      </trkpt>
      <trkpt lat="45.99302" lon="1.39672">
        <ele>553.2</ele>
        <time>2015-05-24T09:14:47Z</time>
      </trkpt>
      <trkpt lat="45.99303" lon="1.39666">
        <ele>553.2</ele>
        <time>2015-05-24T09:14:50Z</time>
      </trkpt>
      <trkpt lat="45.99309" lon="1.3965">
        <ele>553.9</ele>
        <time>2015-05-24T09:14:58Z</time>
      </trkpt>
      <trkpt lat="45.99312" lon="1.3964">
        <ele>554.2</ele>
        <time>2015-05-24T09:15:02Z</time>
      </trkpt>
      <trkpt lat="45.99313" lon="1.39635">
        <ele>554.2</ele>
        <time>2015-05-24T09:15:04Z</time>
      </trkpt>
      <trkpt lat="45.99321" lon="1.39619">
        <ele>555.6</ele>
        <time>2015-05-24T09:15:15Z</time>
      </trkpt>
      <trkpt lat="45.99329" lon="1.39597">
        <ele>556.7</ele>
        <time>2015-05-24T09:15:28Z</time>
      </trkpt>
      <trkpt lat="45.99333" lon="1.39579">
        <ele>556.7</ele>
        <time>2015-05-24T09:15:36Z</time>
      </trkpt>
      <trkpt lat="45.99343" lon="1.39557">
        <ele>558.6</ele>
        <time>2015-05-24T09:15:50Z</time>
      </trkpt>
      <trkpt lat="45.99344" lon="1.39556">
        <ele>558.8</ele>
        <time>2015-05-24T09:15:51Z</time>
      </trkpt>
      <trkpt lat="45.99347" lon="1.39553">
        <ele>559.5</ele>
        <time>2015-05-24T09:15:54Z</time>
      </trkpt>
      <trkpt lat="45.99351" lon="1.39549">
        <ele>560.6</ele>
        <time>2015-05-24T09:15:58Z</time>
      </trkpt>
      <trkpt lat="45.9936" lon="1.39543">
        <ele>562.9</ele>
        <time>2015-05-24T09:16:05Z</time>
      </trkpt>
      <trkpt lat="45.99365" lon="1.39538">
        <ele>564.3</ele>
        <time>2015-05-24T09:16:11Z</time>
      </trkpt>
      <trkpt lat="45.99379" lon="1.39521">
        <ele>567</ele>
        <time>2015-05-24T09:16:24Z</time>
      </trkpt>
      <trkpt lat="45.99396" lon="1.39511">
        <ele>569</ele>
        <time>2015-05-24T09:16:39Z</time>
      </trkpt>
      <trkpt lat="45.99414" lon="1.39509">
        <ele>571.8</ele>
        <time>2015-05-24T09:16:50Z</time>
      </trkpt>
      <trkpt lat="45.99432" lon="1.39502">
        <ele>574</ele>
        <time>2015-05-24T09:17:01Z</time>
      </trkpt>
      <trkpt lat="45.99434" lon="1.39502">
        <ele>574.2</ele>
        <time>2015-05-24T09:17:02Z</time>
      </trkpt>
      <trkpt lat="45.99449" lon="1.395">
        <ele>576.4</ele>
        <time>2015-05-24T09:17:09Z</time>
      </trkpt>
      <trkpt lat="45.99468" lon="1.39502">
        <ele>578.5</ele>
        <time>2015-05-24T09:17:17Z</time>
      </trkpt>
      <trkpt lat="45.99488" lon="1.39503">
        <ele>579.4</ele>
        <time>2015-05-24T09:17:27Z</time>
      </trkpt>
      <trkpt lat="45.99507" lon="1.39508">
        <ele>580.6</ele>
        <time>2015-05-24T09:17:34Z</time>
      </trkpt>
      <trkpt lat="45.99513" lon="1.3951">
        <ele>581.2</ele>
        <time>2015-05-24T09:17:37Z</time>
      </trkpt>
      <trkpt lat="45.99524" lon="1.39517">
        <ele>582.6</ele>
        <time>2015-05-24T09:17:43Z</time>
      </trkpt>
      <trkpt lat="45.99534" lon="1.39522">
        <ele>583.7</ele>
        <time>2015-05-24T09:17:48Z</time>
      </trkpt>
      <trkpt lat="45.99555" lon="1.39531">
        <ele>584.6</ele>
        <time>2015-05-24T09:17:55Z</time>
      </trkpt>
      <trkpt lat="45.99575" lon="1.39538">
        <ele>584.5</ele>
        <time>2015-05-24T09:18:04Z</time>
      </trkpt>
      <trkpt lat="45.99593" lon="1.3954">
        <ele>583.6</ele>
        <time>2015-05-24T09:18:12Z</time>
      </trkpt>
      <trkpt lat="45.99596" lon="1.39539">
        <ele>583.4</ele>
        <time>2015-05-24T09:18:13Z</time>
      </trkpt>
      <trkpt lat="45.99614" lon="1.3954">
        <ele>582.4</ele>
        <time>2015-05-24T09:18:21Z</time>
      </trkpt>
      <trkpt lat="45.9963" lon="1.3954">
        <ele>581.2</ele>
        <time>2015-05-24T09:18:28Z</time>
      </trkpt>
      <trkpt lat="45.99649" lon="1.39537">
        <ele>578.9</ele>
        <time>2015-05-24T09:18:36Z</time>
      </trkpt>
      <trkpt lat="45.99661" lon="1.39531">
        <ele>576.8</ele>
        <time>2015-05-24T09:18:41Z</time>
      </trkpt>
      <trkpt lat="45.9968" lon="1.39522">
        <ele>573.8</ele>
        <time>2015-05-24T09:18:47Z</time>
      </trkpt>
      <trkpt lat="45.99698" lon="1.3951">
        <ele>570.9</ele>
        <time>2015-05-24T09:18:53Z</time>
      </trkpt>
      <trkpt lat="45.99717" lon="1.39504">
        <ele>569.2</ele>
        <time>2015-05-24T09:19:01Z</time>
      </trkpt>
      <trkpt lat="45.99735" lon="1.39504">
        <ele>569</ele>
        <time>2015-05-24T09:19:11Z</time>
      </trkpt>
      <trkpt lat="45.99754" lon="1.39508">
        <ele>569.1</ele>
        <time>2015-05-24T09:19:19Z</time>
      </trkpt>
      <trkpt lat="45.99772" lon="1.39514">
        <ele>569.5</ele>
        <time>2015-05-24T09:19:26Z</time>
      </trkpt>
      <trkpt lat="45.99781" lon="1.39516">
        <ele>569.7</ele>
        <time>2015-05-24T09:19:29Z</time>
      </trkpt>
      <trkpt lat="45.998" lon="1.39516">
        <ele>568.6</ele>
        <time>2015-05-24T09:19:35Z</time>
      </trkpt>
      <trkpt lat="45.99808" lon="1.39499">
        <ele>565.5</ele>
        <time>2015-05-24T09:19:42Z</time>
      </trkpt>
      <trkpt lat="45.99794" lon="1.39482">
        <ele>564.9</ele>
        <time>2015-05-24T09:19:51Z</time>
      </trkpt>
      <trkpt lat="45.99779" lon="1.39466">
        <ele>563.4</ele>
        <time>2015-05-24T09:19:59Z</time>
      </trkpt>
      <trkpt lat="45.99766" lon="1.39446">
        <ele>560.8</ele>
        <time>2015-05-24T09:20:08Z</time>
      </trkpt>
      <trkpt lat="45.99749" lon="1.39431">
        <ele>559</ele>
        <time>2015-05-24T09:20:18Z</time>
      </trkpt>
      <trkpt lat="45.99748" lon="1.39431">
        <ele>559</ele>
        <time>2015-05-24T09:20:19Z</time>
      </trkpt>
      <trkpt lat="45.9973" lon="1.39436">
        <ele>560.5</ele>
        <time>2015-05-24T09:20:33Z</time>
      </trkpt>
      <trkpt lat="45.99728" lon="1.39438">
        <ele>560.9</ele>
        <time>2015-05-24T09:20:36Z</time>
      </trkpt>
      <trkpt lat="45.99712" lon="1.39453">
        <ele>564.1</ele>
        <time>2015-05-24T09:20:46Z</time>
      </trkpt>
      <trkpt lat="45.99704" lon="1.39457">
        <ele>565.1</ele>
        <time>2015-05-24T09:20:50Z</time>
      </trkpt>
      <trkpt lat="45.99695" lon="1.39454">
        <ele>565.1</ele>
        <time>2015-05-24T09:20:54Z</time>
      </trkpt>
      <trkpt lat="45.99676" lon="1.39449">
        <ele>565.8</ele>
        <time>2015-05-24T09:21:02Z</time>
      </trkpt>
      <trkpt lat="45.99659" lon="1.39441">
        <ele>566</ele>
        <time>2015-05-24T09:21:10Z</time>
      </trkpt>
      <trkpt lat="45.99652" lon="1.39434">
        <ele>565.7</ele>
        <time>2015-05-24T09:21:14Z</time>
      </trkpt>
      <trkpt lat="45.99649" lon="1.39432">
        <ele>565.8</ele>
        <time>2015-05-24T09:21:16Z</time>
      </trkpt>
      <trkpt lat="45.99631" lon="1.39429">
        <ele>567</ele>
        <time>2015-05-24T09:21:23Z</time>
      </trkpt>
      <trkpt lat="45.99623" lon="1.39429">
        <ele>567.6</ele>
        <time>2015-05-24T09:21:27Z</time>
      </trkpt>
      <trkpt lat="45.99606" lon="1.3942">
        <ele>567</ele>
        <time>2015-05-24T09:21:37Z</time>
      </trkpt>
      <trkpt lat="45.99599" lon="1.39417">
        <ele>566.7</ele>
        <time>2015-05-24T09:21:40Z</time>
      </trkpt>
      <trkpt lat="45.99584" lon="1.39404">
        <ele>565.1</ele>
        <time>2015-05-24T09:21:49Z</time>
      </trkpt>
      <trkpt lat="45.99565" lon="1.39393">
        <ele>563.5</ele>
        <time>2015-05-24T09:21:58Z</time>
      </trkpt>
      <trkpt lat="45.99548" lon="1.39388">
        <ele>562.3</ele>
        <time>2015-05-24T09:22:05Z</time>
      </trkpt>
      <trkpt lat="45.99527" lon="1.39385">
        <ele>562.6</ele>
        <time>2015-05-24T09:22:13Z</time>
      </trkpt>
      <trkpt lat="45.99508" lon="1.39379">
        <ele>563.3</ele>
        <time>2015-05-24T09:22:21Z</time>
      </trkpt>
      <trkpt lat="45.99491" lon="1.39385">
        <ele>565.3</ele>
        <time>2015-05-24T09:22:32Z</time>
      </trkpt>
      <trkpt lat="45.99475" lon="1.39384">
        <ele>566.4</ele>
        <time>2015-05-24T09:22:40Z</time>
      </trkpt>
      <trkpt lat="45.99456" lon="1.39377">
        <ele>567.1</ele>
        <time>2015-05-24T09:22:47Z</time>
      </trkpt>
      <trkpt lat="45.99437" lon="1.39371">
        <ele>567.4</ele>
        <time>2015-05-24T09:22:55Z</time>
      </trkpt>
      <trkpt lat="45.9942" lon="1.39361">
        <ele>568.5</ele>
        <time>2015-05-24T09:23:04Z</time>
      </trkpt>
      <trkpt lat="45.99401" lon="1.39359">
        <ele>568.9</ele>
        <time>2015-05-24T09:23:13Z</time>
      </trkpt>
      <trkpt lat="45.99382" lon="1.39359">
        <ele>569.2</ele>
        <time>2015-05-24T09:23:21Z</time>
      </trkpt>
      <trkpt lat="45.99371" lon="1.39359">
        <ele>568.4</ele>
        <time>2015-05-24T09:23:26Z</time>
      </trkpt>
      <trkpt lat="45.99356" lon="1.39362">
        <ele>564.2</ele>
        <time>2015-05-24T09:23:34Z</time>
      </trkpt>
      <trkpt lat="45.99339" lon="1.39372">
        <ele>558.8</ele>
        <time>2015-05-24T09:23:40Z</time>
      </trkpt>
      <trkpt lat="45.99321" lon="1.39384">
        <ele>553.3</ele>
        <time>2015-05-24T09:23:47Z</time>
      </trkpt>
      <trkpt lat="45.99308" lon="1.39394">
        <ele>549.2</ele>
        <time>2015-05-24T09:23:54Z</time>
      </trkpt>
      <trkpt lat="45.99291" lon="1.39405">
        <ele>543.8</ele>
        <time>2015-05-24T09:24:02Z</time>
      </trkpt>
      <trkpt lat="45.99272" lon="1.3941">
        <ele>538.1</ele>
        <time>2015-05-24T09:24:09Z</time>
      </trkpt>
      <trkpt lat="45.9926" lon="1.39415">
        <ele>534.3</ele>
        <time>2015-05-24T09:24:13Z</time>
      </trkpt>
      <trkpt lat="45.99243" lon="1.39412">
        <ele>529.8</ele>
        <time>2015-05-24T09:24:18Z</time>
      </trkpt>
      <trkpt lat="45.99226" lon="1.39405">
        <ele>526</ele>
        <time>2015-05-24T09:24:24Z</time>
      </trkpt>
      <trkpt lat="45.99221" lon="1.394">
        <ele>525.5</ele>
        <time>2015-05-24T09:24:27Z</time>
      </trkpt>
      <trkpt lat="45.99215" lon="1.39395">
        <ele>524.7</ele>
        <time>2015-05-24T09:24:31Z</time>
      </trkpt>
      <trkpt lat="45.99214" lon="1.39394">
        <ele>524.6</ele>
        <time>2015-05-24T09:24:32Z</time>
      </trkpt>
      <trkpt lat="45.9921" lon="1.39385">
        <ele>524.7</ele>
        <time>2015-05-24T09:24:36Z</time>
      </trkpt>
      <trkpt lat="45.99202" lon="1.39374">
        <ele>524.7</ele>
        <time>2015-05-24T09:24:41Z</time>
      </trkpt>
      <trkpt lat="45.99189" lon="1.39362">
        <ele>523.2</ele>
        <time>2015-05-24T09:24:47Z</time>
      </trkpt>
      <trkpt lat="45.99174" lon="1.39355">
        <ele>520.5</ele>
        <time>2015-05-24T09:24:54Z</time>
      </trkpt>
      <trkpt lat="45.99166" lon="1.39353">
        <ele>518.6</ele>
        <time>2015-05-24T09:25:00Z</time>
      </trkpt>
      <trkpt lat="45.99165" lon="1.39354">
        <ele>518.1</ele>
        <time>2015-05-24T09:25:01Z</time>
      </trkpt>
      <trkpt lat="45.99154" lon="1.39357">
        <ele>515.3</ele>
        <time>2015-05-24T09:25:09Z</time>
      </trkpt>
      <trkpt lat="45.99146" lon="1.39363">
        <ele>512.6</ele>
        <time>2015-05-24T09:25:15Z</time>
      </trkpt>
      <trkpt lat="45.99129" lon="1.39369">
        <ele>508.2</ele>
        <time>2015-05-24T09:25:24Z</time>
      </trkpt>
      <trkpt lat="45.99112" lon="1.39354">
        <ele>504.6</ele>
        <time>2015-05-24T09:25:31Z</time>
      </trkpt>
      <trkpt lat="45.99101" lon="1.39348">
        <ele>501.8</ele>
        <time>2015-05-24T09:25:36Z</time>
      </trkpt>
      <trkpt lat="45.99088" lon="1.39341">
        <ele>498.6</ele>
        <time>2015-05-24T09:25:42Z</time>
      </trkpt>
      <trkpt lat="45.99081" lon="1.39337">
        <ele>496.8</ele>
        <time>2015-05-24T09:25:47Z</time>
      </trkpt>
      <trkpt lat="45.99062" lon="1.3933">
        <ele>491.7</ele>
        <time>2015-05-24T09:25:57Z</time>
      </trkpt>
      <trkpt lat="45.99053" lon="1.39324">
        <ele>489.3</ele>
        <time>2015-05-24T09:26:01Z</time>
      </trkpt>
      <trkpt lat="45.99036" lon="1.3931">
        <ele>485.4</ele>
        <time>2015-05-24T09:26:10Z</time>
      </trkpt>
      <trkpt lat="45.9902" lon="1.39298">
        <ele>482.2</ele>
        <time>2015-05-24T09:26:18Z</time>
      </trkpt>
      <trkpt lat="45.99007" lon="1.39288">
        <ele>479.2</ele>
        <time>2015-05-24T09:26:27Z</time>
      </trkpt>
      <trkpt lat="45.98992" lon="1.39306">
        <ele>476.4</ele>
        <time>2015-05-24T09:26:38Z</time>
      </trkpt>
      <trkpt lat="45.98978" lon="1.39324">
        <ele>473.9</ele>
        <time>2015-05-24T09:26:47Z</time>
      </trkpt>
      <trkpt lat="45.98963" lon="1.39343">
        <ele>471.7</ele>
        <time>2015-05-24T09:26:56Z</time>
      </trkpt>
      <trkpt lat="45.98957" lon="1.3935">
        <ele>470.9</ele>
        <time>2015-05-24T09:26:59Z</time>
      </trkpt>
      <trkpt lat="45.98953" lon="1.39357">
        <ele>470.1</ele>
        <time>2015-05-24T09:27:03Z</time>
      </trkpt>
      <trkpt lat="45.98944" lon="1.39379">
        <ele>468.2</ele>
        <time>2015-05-24T09:27:10Z</time>
      </trkpt>
      <trkpt lat="45.98943" lon="1.39381">
        <ele>467.9</ele>
        <time>2015-05-24T09:27:11Z</time>
      </trkpt>
      <trkpt lat="45.98935" lon="1.39409">
        <ele>465.9</ele>
        <time>2015-05-24T09:27:18Z</time>
      </trkpt>
      <trkpt lat="45.9893" lon="1.39437">
        <ele>464.4</ele>
        <time>2015-05-24T09:27:24Z</time>
      </trkpt>
      <trkpt lat="45.98931" lon="1.39442">
        <ele>464.5</ele>
        <time>2015-05-24T09:27:25Z</time>
      </trkpt>
      <trkpt lat="45.98944" lon="1.39455">
        <ele>467.5</ele>
        <time>2015-05-24T09:27:32Z</time>
      </trkpt>
      <trkpt lat="45.98953" lon="1.39461">
        <ele>469.4</ele>
        <time>2015-05-24T09:27:40Z</time>
      </trkpt>
      <trkpt lat="45.9896" lon="1.39465">
        <ele>470.3</ele>
        <time>2015-05-24T09:27:45Z</time>
      </trkpt>
      <trkpt lat="45.98972" lon="1.3947">
        <ele>470.2</ele>
        <time>2015-05-24T09:27:53Z</time>
      </trkpt>
      <trkpt lat="45.98975" lon="1.39471">
        <ele>470.3</ele>
        <time>2015-05-24T09:27:55Z</time>
      </trkpt>
      <trkpt lat="45.98984" lon="1.39492">
        <ele>468.4</ele>
        <time>2015-05-24T09:28:05Z</time>
      </trkpt>
      <trkpt lat="45.98985" lon="1.39496">
        <ele>468.1</ele>
        <time>2015-05-24T09:28:06Z</time>
      </trkpt>
      <trkpt lat="45.98988" lon="1.39513">
        <ele>466.4</ele>
        <time>2015-05-24T09:28:11Z</time>
      </trkpt>
      <trkpt lat="45.9897" lon="1.39524">
        <ele>464.5</ele>
        <time>2015-05-24T09:28:23Z</time>
      </trkpt>
      <trkpt lat="45.98967" lon="1.39525">
        <ele>464.2</ele>
        <time>2015-05-24T09:28:25Z</time>
      </trkpt>
      <trkpt lat="45.98955" lon="1.39528">
        <ele>462.9</ele>
        <time>2015-05-24T09:28:32Z</time>
      </trkpt>
      <trkpt lat="45.98952" lon="1.39528">
        <ele>462.2</ele>
        <time>2015-05-24T09:28:35Z</time>
      </trkpt>
      <trkpt lat="45.98935" lon="1.39538">
        <ele>458.1</ele>
        <time>2015-05-24T09:29:33Z</time>
      </trkpt>
      <trkpt lat="45.98917" lon="1.39534">
        <ele>455.1</ele>
        <time>2015-05-24T09:29:40Z</time>
      </trkpt>
      <trkpt lat="45.989" lon="1.39523">
        <ele>452.8</ele>
        <time>2015-05-24T09:29:47Z</time>
      </trkpt>
      <trkpt lat="45.98881" lon="1.39515">
        <ele>449.5</ele>
        <time>2015-05-24T09:29:55Z</time>
      </trkpt>
      <trkpt lat="45.98875" lon="1.39512">
        <ele>448.4</ele>
        <time>2015-05-24T09:29:58Z</time>
      </trkpt>
      <trkpt lat="45.98855" lon="1.39506">
        <ele>445</ele>
        <time>2015-05-24T09:30:06Z</time>
      </trkpt>
      <trkpt lat="45.98853" lon="1.39505">
        <ele>444.6</ele>
        <time>2015-05-24T09:30:07Z</time>
      </trkpt>
      <trkpt lat="45.98835" lon="1.39487">
        <ele>442.2</ele>
        <time>2015-05-24T09:30:14Z</time>
      </trkpt>
      <trkpt lat="45.98829" lon="1.39479">
        <ele>441.3</ele>
        <time>2015-05-24T09:30:17Z</time>
      </trkpt>
      <trkpt lat="45.98815" lon="1.3946">
        <ele>439.3</ele>
        <time>2015-05-24T09:30:26Z</time>
      </trkpt>
      <trkpt lat="45.98802" lon="1.39449">
        <ele>436.7</ele>
        <time>2015-05-24T09:30:35Z</time>
      </trkpt>
      <trkpt lat="45.98796" lon="1.39458">
        <ele>435.8</ele>
        <time>2015-05-24T09:30:40Z</time>
      </trkpt>
      <trkpt lat="45.98791" lon="1.39462">
        <ele>434.8</ele>
        <time>2015-05-24T09:30:44Z</time>
      </trkpt>
      <trkpt lat="45.98785" lon="1.39462">
        <ele>434.2</ele>
        <time>2015-05-24T09:30:47Z</time>
      </trkpt>
      <trkpt lat="45.98765" lon="1.39463">
        <ele>431.9</ele>
        <time>2015-05-24T09:30:54Z</time>
      </trkpt>
      <trkpt lat="45.98745" lon="1.39462">
        <ele>429.9</ele>
        <time>2015-05-24T09:31:01Z</time>
      </trkpt>
      <trkpt lat="45.98726" lon="1.3946">
        <ele>427.8</ele>
        <time>2015-05-24T09:31:08Z</time>
      </trkpt>
      <trkpt lat="45.98707" lon="1.39459">
        <ele>425.8</ele>
        <time>2015-05-24T09:31:15Z</time>
      </trkpt>
      <trkpt lat="45.98688" lon="1.39459">
        <ele>423.3</ele>
        <time>2015-05-24T09:31:22Z</time>
      </trkpt>
      <trkpt lat="45.98669" lon="1.39457">
        <ele>420.7</ele>
        <time>2015-05-24T09:31:29Z</time>
      </trkpt>
      <trkpt lat="45.9865" lon="1.39454">
        <ele>418.2</ele>
        <time>2015-05-24T09:31:36Z</time>
      </trkpt>
      <trkpt lat="45.98644" lon="1.39455">
        <ele>417.4</ele>
        <time>2015-05-24T09:31:39Z</time>
      </trkpt>
      <trkpt lat="45.98625" lon="1.39458">
        <ele>415</ele>
        <time>2015-05-24T09:31:47Z</time>
      </trkpt>
      <trkpt lat="45.98607" lon="1.3946">
        <ele>413.5</ele>
        <time>2015-05-24T09:31:55Z</time>
      </trkpt>
      <trkpt lat="45.98589" lon="1.39465">
        <ele>412</ele>
        <time>2015-05-24T09:32:02Z</time>
      </trkpt>
      <trkpt lat="45.98569" lon="1.39468">
        <ele>410.2</ele>
        <time>2015-05-24T09:32:11Z</time>
      </trkpt>
      <trkpt lat="45.9855" lon="1.39464">
        <ele>408.6</ele>
        <time>2015-05-24T09:32:18Z</time>
      </trkpt>
      <trkpt lat="45.98537" lon="1.39463">
        <ele>407.7</ele>
        <time>2015-05-24T09:32:23Z</time>
      </trkpt>
      <trkpt lat="45.98525" lon="1.39459">
        <ele>407.2</ele>
        <time>2015-05-24T09:32:30Z</time>
      </trkpt>
      <trkpt lat="45.98519" lon="1.39458">
        <ele>407</ele>
        <time>2015-05-24T09:32:34Z</time>
      </trkpt>
      <trkpt lat="45.98511" lon="1.39452">
        <ele>406.9</ele>
        <time>2015-05-24T09:32:39Z</time>
      </trkpt>
      <trkpt lat="45.985" lon="1.39444">
        <ele>406.7</ele>
        <time>2015-05-24T09:32:45Z</time>
      </trkpt>
      <trkpt lat="45.98481" lon="1.39436">
        <ele>406.1</ele>
        <time>2015-05-24T09:32:55Z</time>
      </trkpt>
      <trkpt lat="45.98481" lon="1.39433">
        <ele>406.2</ele>
        <time>2015-05-24T09:32:56Z</time>
      </trkpt>
      <trkpt lat="45.98466" lon="1.39417">
        <ele>406</ele>
        <time>2015-05-24T09:33:05Z</time>
      </trkpt>
      <trkpt lat="45.98464" lon="1.39416">
        <ele>405.9</ele>
        <time>2015-05-24T09:33:06Z</time>
      </trkpt>
      <trkpt lat="45.98447" lon="1.39409">
        <ele>406.6</ele>
        <time>2015-05-24T09:33:14Z</time>
      </trkpt>
      <trkpt lat="45.98428" lon="1.39403">
        <ele>408.3</ele>
        <time>2015-05-24T09:33:21Z</time>
      </trkpt>
      <trkpt lat="45.9842" lon="1.39401">
        <ele>409</ele>
        <time>2015-05-24T09:33:25Z</time>
      </trkpt>
      <trkpt lat="45.98411" lon="1.39399">
        <ele>409.9</ele>
        <time>2015-05-24T09:33:29Z</time>
      </trkpt>
      <trkpt lat="45.98392" lon="1.39398">
        <ele>411.5</ele>
        <time>2015-05-24T09:33:38Z</time>
      </trkpt>
      <trkpt lat="45.98373" lon="1.39402">
        <ele>412.5</ele>
        <time>2015-05-24T09:33:46Z</time>
      </trkpt>
      <trkpt lat="45.98354" lon="1.39407">
        <ele>413</ele>
        <time>2015-05-24T09:33:55Z</time>
      </trkpt>
      <trkpt lat="45.98336" lon="1.39413">
        <ele>413</ele>
        <time>2015-05-24T09:34:03Z</time>
      </trkpt>
      <trkpt lat="45.98335" lon="1.39414">
        <ele>413</ele>
        <time>2015-05-24T09:34:04Z</time>
      </trkpt>
      <trkpt lat="45.98327" lon="1.39414">
        <ele>413.3</ele>
        <time>2015-05-24T09:34:08Z</time>
      </trkpt>
      <trkpt lat="45.98319" lon="1.39418">
        <ele>413.1</ele>
        <time>2015-05-24T09:34:11Z</time>
      </trkpt>
      <trkpt lat="45.98307" lon="1.39423">
        <ele>413</ele>
        <time>2015-05-24T09:34:17Z</time>
      </trkpt>
      <trkpt lat="45.98298" lon="1.39423">
        <ele>413.2</ele>
        <time>2015-05-24T09:34:22Z</time>
      </trkpt>
      <trkpt lat="45.98284" lon="1.39425">
        <ele>413.5</ele>
        <time>2015-05-24T09:34:28Z</time>
      </trkpt>
      <trkpt lat="45.9828" lon="1.39427">
        <ele>413.5</ele>
        <time>2015-05-24T09:34:31Z</time>
      </trkpt>
      <trkpt lat="45.98266" lon="1.3943">
        <ele>413.8</ele>
        <time>2015-05-24T09:34:38Z</time>
      </trkpt>
      <trkpt lat="45.98261" lon="1.39432">
        <ele>413.7</ele>
        <time>2015-05-24T09:34:40Z</time>
      </trkpt>
      <trkpt lat="45.98242" lon="1.3944">
        <ele>413.7</ele>
        <time>2015-05-24T09:34:48Z</time>
      </trkpt>
      <trkpt lat="45.98231" lon="1.39445">
        <ele>413.5</ele>
        <time>2015-05-24T09:34:53Z</time>
      </trkpt>
      <trkpt lat="45.98227" lon="1.39448">
        <ele>413.4</ele>
        <time>2015-05-24T09:34:56Z</time>
      </trkpt>
      <trkpt lat="45.98219" lon="1.39452">
        <ele>413.3</ele>
        <time>2015-05-24T09:35:00Z</time>
      </trkpt>
      <trkpt lat="45.98201" lon="1.39459">
        <ele>413.6</ele>
        <time>2015-05-24T09:35:11Z</time>
      </trkpt>
      <trkpt lat="45.98198" lon="1.39459">
        <ele>413.9</ele>
        <time>2015-05-24T09:35:13Z</time>
      </trkpt>
      <trkpt lat="45.98185" lon="1.3946">
        <ele>415</ele>
        <time>2015-05-24T09:35:19Z</time>
      </trkpt>
      <trkpt lat="45.98176" lon="1.3946">
        <ele>415.9</ele>
        <time>2015-05-24T09:35:24Z</time>
      </trkpt>
      <trkpt lat="45.98162" lon="1.3946">
        <ele>417.2</ele>
        <time>2015-05-24T09:35:32Z</time>
      </trkpt>
      <trkpt lat="45.98143" lon="1.39462">
        <ele>418.7</ele>
        <time>2015-05-24T09:35:40Z</time>
      </trkpt>
      <trkpt lat="45.98127" lon="1.39464">
        <ele>419.8</ele>
        <time>2015-05-24T09:35:45Z</time>
      </trkpt>
      <trkpt lat="45.98109" lon="1.39464">
        <ele>418.3</ele>
        <time>2015-05-24T09:35:52Z</time>
      </trkpt>
      <trkpt lat="45.981" lon="1.39459">
        <ele>418.1</ele>
        <time>2015-05-24T09:36:07Z</time>
      </trkpt>
      <trkpt lat="45.98107" lon="1.39455">
        <ele>419.6</ele>
        <time>2015-05-24T09:36:20Z</time>
      </trkpt>
      <trkpt lat="45.98111" lon="1.39447">
        <ele>421.3</ele>
        <time>2015-05-24T09:36:28Z</time>
      </trkpt>
      <trkpt lat="45.98116" lon="1.39441">
        <ele>422.7</ele>
        <time>2015-05-24T09:36:34Z</time>
      </trkpt>
      <trkpt lat="45.98122" lon="1.39431">
        <ele>424.9</ele>
        <time>2015-05-24T09:36:41Z</time>
      </trkpt>
      <trkpt lat="45.98123" lon="1.39429">
        <ele>425.4</ele>
        <time>2015-05-24T09:36:43Z</time>
      </trkpt>
      <trkpt lat="45.9813" lon="1.39417">
        <ele>427</ele>
        <time>2015-05-24T09:36:51Z</time>
      </trkpt>
      <trkpt lat="45.9813" lon="1.39415">
        <ele>427.2</ele>
        <time>2015-05-24T09:36:52Z</time>
      </trkpt>
      <trkpt lat="45.98134" lon="1.39407">
        <ele>428</ele>
        <time>2015-05-24T09:36:56Z</time>
      </trkpt>
      <trkpt lat="45.98138" lon="1.394">
        <ele>428.6</ele>
        <time>2015-05-24T09:37:00Z</time>
      </trkpt>
      <trkpt lat="45.98142" lon="1.39376">
        <ele>431.7</ele>
        <time>2015-05-24T09:37:12Z</time>
      </trkpt>
      <trkpt lat="45.98149" lon="1.39349">
        <ele>432.5</ele>
        <time>2015-05-24T09:37:22Z</time>
      </trkpt>
      <trkpt lat="45.98152" lon="1.39336">
        <ele>433</ele>
        <time>2015-05-24T09:37:28Z</time>
      </trkpt>
      <trkpt lat="45.98151" lon="1.39309">
        <ele>434.5</ele>
        <time>2015-05-24T09:37:37Z</time>
      </trkpt>
      <trkpt lat="45.98144" lon="1.39283">
        <ele>436.4</ele>
        <time>2015-05-24T09:37:47Z</time>
      </trkpt>
      <trkpt lat="45.98136" lon="1.3926">
        <ele>437.3</ele>
        <time>2015-05-24T09:37:58Z</time>
      </trkpt>
      <trkpt lat="45.98132" lon="1.39252">
        <ele>437.6</ele>
        <time>2015-05-24T09:38:02Z</time>
      </trkpt>
      <trkpt lat="45.98125" lon="1.39229">
        <ele>438</ele>
        <time>2015-05-24T09:38:14Z</time>
      </trkpt>
      <trkpt lat="45.98124" lon="1.39225">
        <ele>437.9</ele>
        <time>2015-05-24T09:38:16Z</time>
      </trkpt>
      <trkpt lat="45.98122" lon="1.39221">
        <ele>437.8</ele>
        <time>2015-05-24T09:38:18Z</time>
      </trkpt>
      <trkpt lat="45.98121" lon="1.39212">
        <ele>437.6</ele>
        <time>2015-05-24T09:38:22Z</time>
      </trkpt>
      <trkpt lat="45.98118" lon="1.39207">
        <ele>437.6</ele>
        <time>2015-05-24T09:38:25Z</time>
      </trkpt>
      <trkpt lat="45.98112" lon="1.39201">
        <ele>437.9</ele>
        <time>2015-05-24T09:38:30Z</time>
      </trkpt>
      <trkpt lat="45.98108" lon="1.39194">
        <ele>438.8</ele>
        <time>2015-05-24T09:38:37Z</time>
      </trkpt>
      <trkpt lat="45.98095" lon="1.39176">
        <ele>440.8</ele>
        <time>2015-05-24T09:38:53Z</time>
      </trkpt>
      <trkpt lat="45.98093" lon="1.39173">
        <ele>441</ele>
        <time>2015-05-24T09:38:55Z</time>
      </trkpt>
      <trkpt lat="45.98076" lon="1.39168">
        <ele>441.1</ele>
        <time>2015-05-24T09:39:06Z</time>
      </trkpt>
      <trkpt lat="45.98057" lon="1.39168">
        <ele>440.4</ele>
        <time>2015-05-24T09:39:20Z</time>
      </trkpt>
      <trkpt lat="45.9804" lon="1.39165">
        <ele>440.2</ele>
        <time>2015-05-24T09:39:33Z</time>
      </trkpt>
      <trkpt lat="45.98024" lon="1.39152">
        <ele>441.2</ele>
        <time>2015-05-24T09:39:42Z</time>
      </trkpt>
      <trkpt lat="45.98007" lon="1.39142">
        <ele>441.3</ele>
        <time>2015-05-24T09:39:50Z</time>
      </trkpt>
      <trkpt lat="45.97989" lon="1.39134">
        <ele>441</ele>
        <time>2015-05-24T09:39:59Z</time>
      </trkpt>
      <trkpt lat="45.97972" lon="1.39123">
        <ele>441</ele>
        <time>2015-05-24T09:40:08Z</time>
      </trkpt>
      <trkpt lat="45.97955" lon="1.39111">
        <ele>441.2</ele>
        <time>2015-05-24T09:40:18Z</time>
      </trkpt>
      <trkpt lat="45.97937" lon="1.39103">
        <ele>441.1</ele>
        <time>2015-05-24T09:40:27Z</time>
      </trkpt>
      <trkpt lat="45.97916" lon="1.39102">
        <ele>439.7</ele>
        <time>2015-05-24T09:40:36Z</time>
      </trkpt>
      <trkpt lat="45.97905" lon="1.39105">
        <ele>438.6</ele>
        <time>2015-05-24T09:40:41Z</time>
      </trkpt>
      <trkpt lat="45.97885" lon="1.39109">
        <ele>437</ele>
        <time>2015-05-24T09:40:50Z</time>
      </trkpt>
      <trkpt lat="45.97866" lon="1.39113">
        <ele>435.3</ele>
        <time>2015-05-24T09:40:59Z</time>
      </trkpt>
      <trkpt lat="45.97847" lon="1.39123">
        <ele>433.1</ele>
        <time>2015-05-24T09:41:08Z</time>
      </trkpt>
      <trkpt lat="45.97829" lon="1.3913">
        <ele>430.9</ele>
        <time>2015-05-24T09:41:17Z</time>
      </trkpt>
      <trkpt lat="45.97821" lon="1.3913">
        <ele>430</ele>
        <time>2015-05-24T09:41:22Z</time>
      </trkpt>
      <trkpt lat="45.97826" lon="1.39112">
        <ele>431</ele>
        <time>2015-05-24T09:41:35Z</time>
      </trkpt>
      <trkpt lat="45.97836" lon="1.3909">
        <ele>432.7</ele>
        <time>2015-05-24T09:41:50Z</time>
      </trkpt>
      <trkpt lat="45.97837" lon="1.39089">
        <ele>432.8</ele>
        <time>2015-05-24T09:41:51Z</time>
      </trkpt>
      <trkpt lat="45.97848" lon="1.39065">
        <ele>434.5</ele>
        <time>2015-05-24T09:42:05Z</time>
      </trkpt>
      <trkpt lat="45.97858" lon="1.39044">
        <ele>436.1</ele>
        <time>2015-05-24T09:42:19Z</time>
      </trkpt>
      <trkpt lat="45.97858" lon="1.39041">
        <ele>436.2</ele>
        <time>2015-05-24T09:42:21Z</time>
      </trkpt>
      <trkpt lat="45.97862" lon="1.39028">
        <ele>436.6</ele>
        <time>2015-05-24T09:42:32Z</time>
      </trkpt>
      <trkpt lat="45.97855" lon="1.39015">
        <ele>436.2</ele>
        <time>2015-05-24T09:42:38Z</time>
      </trkpt>
      <trkpt lat="45.97845" lon="1.38994">
        <ele>436.5</ele>
        <time>2015-05-24T09:42:47Z</time>
      </trkpt>
      <trkpt lat="45.97842" lon="1.38969">
        <ele>437.7</ele>
        <time>2015-05-24T09:42:55Z</time>
      </trkpt>
      <trkpt lat="45.97851" lon="1.38943">
        <ele>438.2</ele>
        <time>2015-05-24T09:43:04Z</time>
      </trkpt>
      <trkpt lat="45.97859" lon="1.3892">
        <ele>438</ele>
        <time>2015-05-24T09:43:13Z</time>
      </trkpt>
      <trkpt lat="45.97866" lon="1.38895">
        <ele>437.6</ele>
        <time>2015-05-24T09:43:21Z</time>
      </trkpt>
      <trkpt lat="45.97874" lon="1.38872">
        <ele>436.9</ele>
        <time>2015-05-24T09:43:30Z</time>
      </trkpt>
      <trkpt lat="45.97881" lon="1.38846">
        <ele>441.3</ele>
        <time>2015-05-24T09:43:39Z</time>
      </trkpt>
      <trkpt lat="45.97892" lon="1.38821">
        <ele>444.5</ele>
        <time>2015-05-24T09:43:48Z</time>
      </trkpt>
      <trkpt lat="45.97907" lon="1.38805">
        <ele>444.9</ele>
        <time>2015-05-24T09:43:56Z</time>
      </trkpt>
      <trkpt lat="45.97923" lon="1.38787">
        <ele>444.4</ele>
        <time>2015-05-24T09:44:03Z</time>
      </trkpt>
      <trkpt lat="45.97934" lon="1.38767">
        <ele>445.4</ele>
        <time>2015-05-24T09:44:10Z</time>
      </trkpt>
      <trkpt lat="45.97942" lon="1.3874">
        <ele>447.4</ele>
        <time>2015-05-24T09:44:19Z</time>
      </trkpt>
      <trkpt lat="45.97951" lon="1.38715">
        <ele>448.3</ele>
        <time>2015-05-24T09:44:28Z</time>
      </trkpt>
      <trkpt lat="45.97953" lon="1.38713">
        <ele>448.1</ele>
        <time>2015-05-24T09:44:29Z</time>
      </trkpt>
      <trkpt lat="45.9796" lon="1.38703">
        <ele>448</ele>
        <time>2015-05-24T09:44:33Z</time>
      </trkpt>
      <trkpt lat="45.97967" lon="1.38677">
        <ele>452.6</ele>
        <time>2015-05-24T09:44:43Z</time>
      </trkpt>
      <trkpt lat="45.97963" lon="1.38653">
        <ele>457.7</ele>
        <time>2015-05-24T09:44:52Z</time>
      </trkpt>
      <trkpt lat="45.97945" lon="1.38645">
        <ele>464</ele>
        <time>2015-05-24T09:45:01Z</time>
      </trkpt>
      <trkpt lat="45.9794" lon="1.38642">
        <ele>466.2</ele>
        <time>2015-05-24T09:45:05Z</time>
      </trkpt>
      <trkpt lat="45.97933" lon="1.38638">
        <ele>469.1</ele>
        <time>2015-05-24T09:45:10Z</time>
      </trkpt>
      <trkpt lat="45.97929" lon="1.38636">
        <ele>471</ele>
        <time>2015-05-24T09:45:16Z</time>
      </trkpt>
      <trkpt lat="45.9791" lon="1.38633">
        <ele>477.3</ele>
        <time>2015-05-24T09:45:32Z</time>
      </trkpt>
      <trkpt lat="45.97894" lon="1.38644">
        <ele>480</ele>
        <time>2015-05-24T09:45:48Z</time>
      </trkpt>
      <trkpt lat="45.97888" lon="1.3865">
        <ele>480.4</ele>
        <time>2015-05-24T09:45:52Z</time>
      </trkpt>
      <trkpt lat="45.97874" lon="1.38666">
        <ele>480.8</ele>
        <time>2015-05-24T09:46:01Z</time>
      </trkpt>
      <trkpt lat="45.97858" lon="1.38681">
        <ele>481.8</ele>
        <time>2015-05-24T09:46:10Z</time>
      </trkpt>
      <trkpt lat="45.97856" lon="1.38682">
        <ele>482.2</ele>
        <time>2015-05-24T09:46:11Z</time>
      </trkpt>
      <trkpt lat="45.97839" lon="1.38694">
        <ele>483.8</ele>
        <time>2015-05-24T09:46:19Z</time>
      </trkpt>
      <trkpt lat="45.97837" lon="1.38695">
        <ele>483.9</ele>
        <time>2015-05-24T09:46:20Z</time>
      </trkpt>
      <trkpt lat="45.97828" lon="1.38705">
        <ele>483.8</ele>
        <time>2015-05-24T09:46:25Z</time>
      </trkpt>
      <trkpt lat="45.97821" lon="1.3871">
        <ele>484.2</ele>
        <time>2015-05-24T09:46:29Z</time>
      </trkpt>
      <trkpt lat="45.9781" lon="1.38721">
        <ele>484.5</ele>
        <time>2015-05-24T09:46:38Z</time>
      </trkpt>
      <trkpt lat="45.97794" lon="1.38734">
        <ele>485.3</ele>
        <time>2015-05-24T09:46:48Z</time>
      </trkpt>
      <trkpt lat="45.97788" lon="1.38738">
        <ele>485.6</ele>
        <time>2015-05-24T09:46:52Z</time>
      </trkpt>
      <trkpt lat="45.9777" lon="1.38749">
        <ele>486.9</ele>
        <time>2015-05-24T09:47:08Z</time>
      </trkpt>
      <trkpt lat="45.97767" lon="1.3875">
        <ele>487.2</ele>
        <time>2015-05-24T09:47:09Z</time>
      </trkpt>
      <trkpt lat="45.97763" lon="1.38752">
        <ele>487.7</ele>
        <time>2015-05-24T09:47:11Z</time>
      </trkpt>
      <trkpt lat="45.97746" lon="1.38762">
        <ele>489.5</ele>
        <time>2015-05-24T09:47:20Z</time>
      </trkpt>
      <trkpt lat="45.97733" lon="1.38777">
        <ele>490</ele>
        <time>2015-05-24T09:47:28Z</time>
      </trkpt>
      <trkpt lat="45.97728" lon="1.38802">
        <ele>487.6</ele>
        <time>2015-05-24T09:47:36Z</time>
      </trkpt>
      <trkpt lat="45.97726" lon="1.38807">
        <ele>487.5</ele>
        <time>2015-05-24T09:47:38Z</time>
      </trkpt>
      <trkpt lat="45.97718" lon="1.38824">
        <ele>487.8</ele>
        <time>2015-05-24T09:47:49Z</time>
      </trkpt>
      <trkpt lat="45.97709" lon="1.38834">
        <ele>489.1</ele>
        <time>2015-05-24T09:47:55Z</time>
      </trkpt>
      <trkpt lat="45.977" lon="1.38848">
        <ele>490.5</ele>
        <time>2015-05-24T09:48:06Z</time>
      </trkpt>
      <trkpt lat="45.97691" lon="1.38858">
        <ele>492.2</ele>
        <time>2015-05-24T09:48:18Z</time>
      </trkpt>
      <trkpt lat="45.97687" lon="1.38863">
        <ele>493</ele>
        <time>2015-05-24T09:48:24Z</time>
      </trkpt>
      <trkpt lat="45.97671" lon="1.38874">
        <ele>497.4</ele>
        <time>2015-05-24T09:48:43Z</time>
      </trkpt>
      <trkpt lat="45.97663" lon="1.38875">
        <ele>499.8</ele>
        <time>2015-05-24T09:48:49Z</time>
      </trkpt>
      <trkpt lat="45.97655" lon="1.38882">
        <ele>501.1</ele>
        <time>2015-05-24T09:48:57Z</time>
      </trkpt>
      <trkpt lat="45.97648" lon="1.38892">
        <ele>502</ele>
        <time>2015-05-24T09:49:07Z</time>
      </trkpt>
      <trkpt lat="45.97635" lon="1.38911">
        <ele>503.5</ele>
        <time>2015-05-24T09:49:22Z</time>
      </trkpt>
      <trkpt lat="45.97632" lon="1.38914">
        <ele>503.9</ele>
        <time>2015-05-24T09:49:25Z</time>
      </trkpt>
      <trkpt lat="45.97629" lon="1.38921">
        <ele>504</ele>
        <time>2015-05-24T09:49:31Z</time>
      </trkpt>
      <trkpt lat="45.97623" lon="1.38926">
        <ele>504.9</ele>
        <time>2015-05-24T09:49:38Z</time>
      </trkpt>
      <trkpt lat="45.97619" lon="1.38934">
        <ele>504.4</ele>
        <time>2015-05-24T09:49:44Z</time>
      </trkpt>
      <trkpt lat="45.97611" lon="1.38945">
        <ele>504</ele>
        <time>2015-05-24T09:49:52Z</time>
      </trkpt>
      <trkpt lat="45.97605" lon="1.38953">
        <ele>503.8</ele>
        <time>2015-05-24T09:49:57Z</time>
      </trkpt>
      <trkpt lat="45.97592" lon="1.38973">
        <ele>503</ele>
        <time>2015-05-24T09:50:06Z</time>
      </trkpt>
      <trkpt lat="45.97591" lon="1.38975">
        <ele>502.8</ele>
        <time>2015-05-24T09:50:07Z</time>
      </trkpt>
      <trkpt lat="45.97576" lon="1.38993">
        <ele>502.9</ele>
        <time>2015-05-24T09:50:17Z</time>
      </trkpt>
      <trkpt lat="45.97574" lon="1.38997">
        <ele>502.8</ele>
        <time>2015-05-24T09:50:19Z</time>
      </trkpt>
      <trkpt lat="45.97562" lon="1.39008">
        <ele>504</ele>
        <time>2015-05-24T09:50:26Z</time>
      </trkpt>
      <trkpt lat="45.97554" lon="1.39016">
        <ele>504.9</ele>
        <time>2015-05-24T09:50:31Z</time>
      </trkpt>
      <trkpt lat="45.97535" lon="1.39028">
        <ele>505.9</ele>
        <time>2015-05-24T09:50:40Z</time>
      </trkpt>
      <trkpt lat="45.97519" lon="1.39043">
        <ele>503</ele>
        <time>2015-05-24T09:50:49Z</time>
      </trkpt>
      <trkpt lat="45.97504" lon="1.39059">
        <ele>498</ele>
        <time>2015-05-24T09:50:59Z</time>
      </trkpt>
      <trkpt lat="45.97495" lon="1.39087">
        <ele>490.6</ele>
        <time>2015-05-24T09:51:08Z</time>
      </trkpt>
      <trkpt lat="45.97478" lon="1.39098">
        <ele>487</ele>
        <time>2015-05-24T09:51:15Z</time>
      </trkpt>
      <trkpt lat="45.9746" lon="1.39109">
        <ele>483.8</ele>
        <time>2015-05-24T09:51:24Z</time>
      </trkpt>
      <trkpt lat="45.97443" lon="1.39123">
        <ele>480.1</ele>
        <time>2015-05-24T09:51:33Z</time>
      </trkpt>
      <trkpt lat="45.97441" lon="1.39122">
        <ele>480.2</ele>
        <time>2015-05-24T09:51:34Z</time>
      </trkpt>
      <trkpt lat="45.97436" lon="1.39113">
        <ele>482</ele>
        <time>2015-05-24T09:51:39Z</time>
      </trkpt>
      <trkpt lat="45.97436" lon="1.39103">
        <ele>484.4</ele>
        <time>2015-05-24T09:51:46Z</time>
      </trkpt>
      <trkpt lat="45.97435" lon="1.39098">
        <ele>485.2</ele>
        <time>2015-05-24T09:51:49Z</time>
      </trkpt>
      <trkpt lat="45.97433" lon="1.39087">
        <ele>487.7</ele>
        <time>2015-05-24T09:51:59Z</time>
      </trkpt>
      <trkpt lat="45.97426" lon="1.39067">
        <ele>491.6</ele>
        <time>2015-05-24T09:52:54Z</time>
      </trkpt>
      <trkpt lat="45.97412" lon="1.3905">
        <ele>494.6</ele>
        <time>2015-05-24T09:53:09Z</time>
      </trkpt>
      <trkpt lat="45.97399" lon="1.39031">
        <ele>497</ele>
        <time>2015-05-24T09:53:23Z</time>
      </trkpt>
      <trkpt lat="45.97383" lon="1.39018">
        <ele>497.8</ele>
        <time>2015-05-24T09:53:38Z</time>
      </trkpt>
      <trkpt lat="45.9737" lon="1.38998">
        <ele>500.6</ele>
        <time>2015-05-24T09:53:52Z</time>
      </trkpt>
      <trkpt lat="45.97361" lon="1.38981">
        <ele>503.8</ele>
        <time>2015-05-24T09:54:00Z</time>
      </trkpt>
      <trkpt lat="45.97356" lon="1.38959">
        <ele>507</ele>
        <time>2015-05-24T09:54:12Z</time>
      </trkpt>
      <trkpt lat="45.97354" lon="1.38952">
        <ele>507.3</ele>
        <time>2015-05-24T09:54:17Z</time>
      </trkpt>
      <trkpt lat="45.97355" lon="1.38934">
        <ele>507.2</ele>
        <time>2015-05-24T09:54:27Z</time>
      </trkpt>
      <trkpt lat="45.97353" lon="1.38908">
        <ele>507.4</ele>
        <time>2015-05-24T09:54:40Z</time>
      </trkpt>
      <trkpt lat="45.97353" lon="1.38898">
        <ele>507.4</ele>
        <time>2015-05-24T09:54:45Z</time>
      </trkpt>
      <trkpt lat="45.97355" lon="1.38885">
        <ele>507.2</ele>
        <time>2015-05-24T09:54:50Z</time>
      </trkpt>
      <trkpt lat="45.97355" lon="1.38858">
        <ele>507</ele>
        <time>2015-05-24T09:55:01Z</time>
      </trkpt>
      <trkpt lat="45.97356" lon="1.38851">
        <ele>506.9</ele>
        <time>2015-05-24T09:55:05Z</time>
      </trkpt>
      <trkpt lat="45.9736" lon="1.38825">
        <ele>506.1</ele>
        <time>2015-05-24T09:55:16Z</time>
      </trkpt>
      <trkpt lat="45.97361" lon="1.38819">
        <ele>505.9</ele>
        <time>2015-05-24T09:55:18Z</time>
      </trkpt>
      <trkpt lat="45.97366" lon="1.38793">
        <ele>505.1</ele>
        <time>2015-05-24T09:55:27Z</time>
      </trkpt>
      <trkpt lat="45.9737" lon="1.38779">
        <ele>505.1</ele>
        <time>2015-05-24T09:55:32Z</time>
      </trkpt>
      <trkpt lat="45.97376" lon="1.38754">
        <ele>505.5</ele>
        <time>2015-05-24T09:55:41Z</time>
      </trkpt>
      <trkpt lat="45.97378" lon="1.38747">
        <ele>506.3</ele>
        <time>2015-05-24T09:55:44Z</time>
      </trkpt>
      <trkpt lat="45.97382" lon="1.38735">
        <ele>507.4</ele>
        <time>2015-05-24T09:55:49Z</time>
      </trkpt>
      <trkpt lat="45.97387" lon="1.3871">
        <ele>509.3</ele>
        <time>2015-05-24T09:56:02Z</time>
      </trkpt>
      <trkpt lat="45.97392" lon="1.38684">
        <ele>513.4</ele>
        <time>2015-05-24T09:56:17Z</time>
      </trkpt>
      <trkpt lat="45.97392" lon="1.38683">
        <ele>513.7</ele>
        <time>2015-05-24T09:56:18Z</time>
      </trkpt>
      <trkpt lat="45.97398" lon="1.38657">
        <ele>517.8</ele>
        <time>2015-05-24T09:56:31Z</time>
      </trkpt>
      <trkpt lat="45.97397" lon="1.38631">
        <ele>520.9</ele>
        <time>2015-05-24T09:56:44Z</time>
      </trkpt>
      <trkpt lat="45.97393" lon="1.38605">
        <ele>524.2</ele>
        <time>2015-05-24T09:56:59Z</time>
      </trkpt>
      <trkpt lat="45.9739" lon="1.38577">
        <ele>528.1</ele>
        <time>2015-05-24T09:57:13Z</time>
      </trkpt>
      <trkpt lat="45.9739" lon="1.38551">
        <ele>532.2</ele>
        <time>2015-05-24T09:57:28Z</time>
      </trkpt>
      <trkpt lat="45.9739" lon="1.38525">
        <ele>535.1</ele>
        <time>2015-05-24T09:57:42Z</time>
      </trkpt>
      <trkpt lat="45.97392" lon="1.38499">
        <ele>537.6</ele>
        <time>2015-05-24T09:57:55Z</time>
      </trkpt>
      <trkpt lat="45.97393" lon="1.38472">
        <ele>540.1</ele>
        <time>2015-05-24T09:58:09Z</time>
      </trkpt>
      <trkpt lat="45.97393" lon="1.38444">
        <ele>541.7</ele>
        <time>2015-05-24T09:58:20Z</time>
      </trkpt>
      <trkpt lat="45.97393" lon="1.38442">
        <ele>541.8</ele>
        <time>2015-05-24T09:58:21Z</time>
      </trkpt>
      <trkpt lat="45.9738" lon="1.38421">
        <ele>542</ele>
        <time>2015-05-24T09:58:31Z</time>
      </trkpt>
      <trkpt lat="45.9736" lon="1.38411">
        <ele>542.9</ele>
        <time>2015-05-24T09:58:45Z</time>
      </trkpt>
      <trkpt lat="45.97356" lon="1.38413">
        <ele>543.2</ele>
        <time>2015-05-24T09:58:49Z</time>
      </trkpt>
      <trkpt lat="45.97337" lon="1.38416">
        <ele>544.1</ele>
        <time>2015-05-24T09:59:06Z</time>
      </trkpt>
      <trkpt lat="45.97324" lon="1.38404">
        <ele>545.2</ele>
        <time>2015-05-24T09:59:22Z</time>
      </trkpt>
      <trkpt lat="45.97332" lon="1.38381">
        <ele>545.4</ele>
        <time>2015-05-24T09:59:39Z</time>
      </trkpt>
      <trkpt lat="45.9733" lon="1.38363">
        <ele>545.4</ele>
        <time>2015-05-24T09:59:52Z</time>
      </trkpt>
      <trkpt lat="45.97328" lon="1.38352">
        <ele>545.2</ele>
        <time>2015-05-24T10:00:00Z</time>
      </trkpt>
      <trkpt lat="45.97328" lon="1.38348">
        <ele>545.1</ele>
        <time>2015-05-24T10:00:03Z</time>
      </trkpt>
      <trkpt lat="45.97328" lon="1.38346">
        <ele>545</ele>
        <time>2015-05-24T10:00:05Z</time>
      </trkpt>
      <trkpt lat="45.97325" lon="1.3834">
        <ele>545</ele>
        <time>2015-05-24T10:00:09Z</time>
      </trkpt>
      <trkpt lat="45.97323" lon="1.38338">
        <ele>545</ele>
        <time>2015-05-24T10:00:11Z</time>
      </trkpt>
      <trkpt lat="45.97317" lon="1.38329">
        <ele>545</ele>
        <time>2015-05-24T10:00:16Z</time>
      </trkpt>
      <trkpt lat="45.97312" lon="1.38324">
        <ele>544.9</ele>
        <time>2015-05-24T10:00:20Z</time>
      </trkpt>
      <trkpt lat="45.9731" lon="1.3832">
        <ele>544.8</ele>
        <time>2015-05-24T10:00:23Z</time>
      </trkpt>
      <trkpt lat="45.97298" lon="1.38303">
        <ele>544.4</ele>
        <time>2015-05-24T10:00:37Z</time>
      </trkpt>
      <trkpt lat="45.97285" lon="1.38284">
        <ele>543.6</ele>
        <time>2015-05-24T10:00:50Z</time>
      </trkpt>
      <trkpt lat="45.97284" lon="1.38282">
        <ele>543.5</ele>
        <time>2015-05-24T10:00:52Z</time>
      </trkpt>
      <trkpt lat="45.97278" lon="1.38275">
        <ele>543.1</ele>
        <time>2015-05-24T10:00:57Z</time>
      </trkpt>
      <trkpt lat="45.97276" lon="1.38273">
        <ele>543</ele>
        <time>2015-05-24T10:00:59Z</time>
      </trkpt>
      <trkpt lat="45.97269" lon="1.38263">
        <ele>542.4</ele>
        <time>2015-05-24T10:01:05Z</time>
      </trkpt>
      <trkpt lat="45.97267" lon="1.38258">
        <ele>542.2</ele>
        <time>2015-05-24T10:01:08Z</time>
      </trkpt>
      <trkpt lat="45.97255" lon="1.38244">
        <ele>541.2</ele>
        <time>2015-05-24T10:01:15Z</time>
      </trkpt>
      <trkpt lat="45.97254" lon="1.38242">
        <ele>541.1</ele>
        <time>2015-05-24T10:01:17Z</time>
      </trkpt>
      <trkpt lat="45.97251" lon="1.38237">
        <ele>540.8</ele>
        <time>2015-05-24T10:01:21Z</time>
      </trkpt>
      <trkpt lat="45.97244" lon="1.38231">
        <ele>540.2</ele>
        <time>2015-05-24T10:01:25Z</time>
      </trkpt>
      <trkpt lat="45.97232" lon="1.38213">
        <ele>538.9</ele>
        <time>2015-05-24T10:01:36Z</time>
      </trkpt>
      <trkpt lat="45.97227" lon="1.38209">
        <ele>538.5</ele>
        <time>2015-05-24T10:01:39Z</time>
      </trkpt>
      <trkpt lat="45.97225" lon="1.38205">
        <ele>538.2</ele>
        <time>2015-05-24T10:01:42Z</time>
      </trkpt>
      <trkpt lat="45.9721" lon="1.38198">
        <ele>537.2</ele>
        <time>2015-05-24T10:01:48Z</time>
      </trkpt>
      <trkpt lat="45.9719" lon="1.38198">
        <ele>535.2</ele>
        <time>2015-05-24T10:01:56Z</time>
      </trkpt>
      <trkpt lat="45.97169" lon="1.38203">
        <ele>533.4</ele>
        <time>2015-05-24T10:02:04Z</time>
      </trkpt>
      <trkpt lat="45.97166" lon="1.38203">
        <ele>533</ele>
        <time>2015-05-24T10:02:05Z</time>
      </trkpt>
      <trkpt lat="45.97158" lon="1.38186">
        <ele>530.9</ele>
        <time>2015-05-24T10:02:12Z</time>
      </trkpt>
      <trkpt lat="45.97168" lon="1.38163">
        <ele>530.1</ele>
        <time>2015-05-24T10:02:23Z</time>
      </trkpt>
      <trkpt lat="45.97171" lon="1.38145">
        <ele>529</ele>
        <time>2015-05-24T10:02:31Z</time>
      </trkpt>
      <trkpt lat="45.97176" lon="1.38134">
        <ele>528.6</ele>
        <time>2015-05-24T10:02:37Z</time>
      </trkpt>
      <trkpt lat="45.97172" lon="1.38116">
        <ele>527.6</ele>
        <time>2015-05-24T10:02:42Z</time>
      </trkpt>
      <trkpt lat="45.97154" lon="1.38105">
        <ele>525.9</ele>
        <time>2015-05-24T10:02:49Z</time>
      </trkpt>
      <trkpt lat="45.97149" lon="1.38105">
        <ele>525.4</ele>
        <time>2015-05-24T10:02:51Z</time>
      </trkpt>
      <trkpt lat="45.97139" lon="1.38105">
        <ele>524.4</ele>
        <time>2015-05-24T10:02:56Z</time>
      </trkpt>
      <trkpt lat="45.97121" lon="1.38115">
        <ele>522.8</ele>
        <time>2015-05-24T10:03:07Z</time>
      </trkpt>
      <trkpt lat="45.97103" lon="1.38115">
        <ele>521.9</ele>
        <time>2015-05-24T10:03:17Z</time>
      </trkpt>
      <trkpt lat="45.97093" lon="1.38109">
        <ele>521.6</ele>
        <time>2015-05-24T10:03:21Z</time>
      </trkpt>
      <trkpt lat="45.97074" lon="1.38117">
        <ele>520.4</ele>
        <time>2015-05-24T10:03:32Z</time>
      </trkpt>
      <trkpt lat="45.97055" lon="1.38112">
        <ele>519.8</ele>
        <time>2015-05-24T10:03:38Z</time>
      </trkpt>
      <trkpt lat="45.97039" lon="1.38099">
        <ele>520.3</ele>
        <time>2015-05-24T10:03:44Z</time>
      </trkpt>
      <trkpt lat="45.97022" lon="1.38098">
        <ele>521</ele>
        <time>2015-05-24T10:03:50Z</time>
      </trkpt>
      <trkpt lat="45.97003" lon="1.38101">
        <ele>521.3</ele>
        <time>2015-05-24T10:03:58Z</time>
      </trkpt>
      <trkpt lat="45.96987" lon="1.38105">
        <ele>521.3</ele>
        <time>2015-05-24T10:04:06Z</time>
      </trkpt>
      <trkpt lat="45.96968" lon="1.38094">
        <ele>523.4</ele>
        <time>2015-05-24T10:04:14Z</time>
      </trkpt>
      <trkpt lat="45.96963" lon="1.38093">
        <ele>523.8</ele>
        <time>2015-05-24T10:04:16Z</time>
      </trkpt>
      <trkpt lat="45.96948" lon="1.38105">
        <ele>522.1</ele>
        <time>2015-05-24T10:04:24Z</time>
      </trkpt>
      <trkpt lat="45.96947" lon="1.38109">
        <ele>521.5</ele>
        <time>2015-05-24T10:04:25Z</time>
      </trkpt>
      <trkpt lat="45.96942" lon="1.38123">
        <ele>519.3</ele>
        <time>2015-05-24T10:04:29Z</time>
      </trkpt>
      <trkpt lat="45.96928" lon="1.38138">
        <ele>517.9</ele>
        <time>2015-05-24T10:04:36Z</time>
      </trkpt>
      <trkpt lat="45.96925" lon="1.38138">
        <ele>517.9</ele>
        <time>2015-05-24T10:04:37Z</time>
      </trkpt>
      <trkpt lat="45.96904" lon="1.38142">
        <ele>517.3</ele>
        <time>2015-05-24T10:04:47Z</time>
      </trkpt>
      <trkpt lat="45.969" lon="1.38145">
        <ele>517.1</ele>
        <time>2015-05-24T10:04:49Z</time>
      </trkpt>
      <trkpt lat="45.96895" lon="1.38146">
        <ele>516.9</ele>
        <time>2015-05-24T10:04:51Z</time>
      </trkpt>
      <trkpt lat="45.96877" lon="1.38143">
        <ele>517.1</ele>
        <time>2015-05-24T10:04:58Z</time>
      </trkpt>
      <trkpt lat="45.96859" lon="1.38136">
        <ele>516.6</ele>
        <time>2015-05-24T10:05:05Z</time>
      </trkpt>
      <trkpt lat="45.9684" lon="1.38132">
        <ele>515.7</ele>
        <time>2015-05-24T10:05:13Z</time>
      </trkpt>
      <trkpt lat="45.96821" lon="1.38128">
        <ele>514.7</ele>
        <time>2015-05-24T10:05:21Z</time>
      </trkpt>
      <trkpt lat="45.96802" lon="1.3812">
        <ele>514.5</ele>
        <time>2015-05-24T10:05:29Z</time>
      </trkpt>
      <trkpt lat="45.96783" lon="1.38109">
        <ele>515.1</ele>
        <time>2015-05-24T10:05:37Z</time>
      </trkpt>
      <trkpt lat="45.96766" lon="1.38104">
        <ele>515.1</ele>
        <time>2015-05-24T10:05:45Z</time>
      </trkpt>
      <trkpt lat="45.96746" lon="1.381">
        <ele>514.7</ele>
        <time>2015-05-24T10:05:54Z</time>
      </trkpt>
      <trkpt lat="45.96728" lon="1.38089">
        <ele>516.1</ele>
        <time>2015-05-24T10:06:02Z</time>
      </trkpt>
      <trkpt lat="45.9671" lon="1.3808">
        <ele>517.3</ele>
        <time>2015-05-24T10:06:10Z</time>
      </trkpt>
      <trkpt lat="45.96693" lon="1.38074">
        <ele>518.2</ele>
        <time>2015-05-24T10:06:20Z</time>
      </trkpt>
      <trkpt lat="45.96674" lon="1.38073">
        <ele>517.7</ele>
        <time>2015-05-24T10:06:31Z</time>
      </trkpt>
      <trkpt lat="45.96656" lon="1.38073">
        <ele>517</ele>
        <time>2015-05-24T10:06:40Z</time>
      </trkpt>
      <trkpt lat="45.96638" lon="1.38082">
        <ele>514.6</ele>
        <time>2015-05-24T10:06:49Z</time>
      </trkpt>
      <trkpt lat="45.96636" lon="1.38082">
        <ele>514.6</ele>
        <time>2015-05-24T10:06:50Z</time>
      </trkpt>
      <trkpt lat="45.96629" lon="1.38085">
        <ele>513.7</ele>
        <time>2015-05-24T10:06:54Z</time>
      </trkpt>
      <trkpt lat="45.96616" lon="1.38094">
        <ele>510.6</ele>
        <time>2015-05-24T10:07:01Z</time>
      </trkpt>
      <trkpt lat="45.96603" lon="1.38095">
        <ele>508.6</ele>
        <time>2015-05-24T10:07:07Z</time>
      </trkpt>
      <trkpt lat="45.96591" lon="1.38101">
        <ele>506.2</ele>
        <time>2015-05-24T10:07:14Z</time>
      </trkpt>
      <trkpt lat="45.96572" lon="1.38104">
        <ele>503.4</ele>
        <time>2015-05-24T10:07:21Z</time>
      </trkpt>
      <trkpt lat="45.96558" lon="1.38106">
        <ele>501.4</ele>
        <time>2015-05-24T10:07:28Z</time>
      </trkpt>
      <trkpt lat="45.9654" lon="1.38106">
        <ele>499.1</ele>
        <time>2015-05-24T10:07:37Z</time>
      </trkpt>
      <trkpt lat="45.96529" lon="1.38101">
        <ele>497.5</ele>
        <time>2015-05-24T10:07:42Z</time>
      </trkpt>
      <trkpt lat="45.96513" lon="1.38105">
        <ele>494.4</ele>
        <time>2015-05-24T10:07:50Z</time>
      </trkpt>
      <trkpt lat="45.96496" lon="1.38115">
        <ele>490.9</ele>
        <time>2015-05-24T10:07:58Z</time>
      </trkpt>
      <trkpt lat="45.96477" lon="1.38124">
        <ele>487.2</ele>
        <time>2015-05-24T10:08:07Z</time>
      </trkpt>
      <trkpt lat="45.96459" lon="1.38139">
        <ele>484.1</ele>
        <time>2015-05-24T10:08:15Z</time>
      </trkpt>
      <trkpt lat="45.96446" lon="1.38159">
        <ele>482.3</ele>
        <time>2015-05-24T10:08:22Z</time>
      </trkpt>
      <trkpt lat="45.9644" lon="1.38165">
        <ele>481.6</ele>
        <time>2015-05-24T10:08:25Z</time>
      </trkpt>
      <trkpt lat="45.9643" lon="1.38186">
        <ele>480.4</ele>
        <time>2015-05-24T10:08:31Z</time>
      </trkpt>
      <trkpt lat="45.96418" lon="1.38205">
        <ele>479.1</ele>
        <time>2015-05-24T10:08:37Z</time>
      </trkpt>
      <trkpt lat="45.96407" lon="1.38228">
        <ele>476.2</ele>
        <time>2015-05-24T10:08:45Z</time>
      </trkpt>
      <trkpt lat="45.96405" lon="1.38229">
        <ele>475.9</ele>
        <time>2015-05-24T10:08:46Z</time>
      </trkpt>
      <trkpt lat="45.96386" lon="1.38237">
        <ele>473.2</ele>
        <time>2015-05-24T10:08:54Z</time>
      </trkpt>
      <trkpt lat="45.96368" lon="1.38234">
        <ele>470.7</ele>
        <time>2015-05-24T10:09:05Z</time>
      </trkpt>
      <trkpt lat="45.96361" lon="1.3823">
        <ele>469.6</ele>
        <time>2015-05-24T10:09:10Z</time>
      </trkpt>
      <trkpt lat="45.96354" lon="1.38233">
        <ele>468.2</ele>
        <time>2015-05-24T10:09:13Z</time>
      </trkpt>
      <trkpt lat="45.96336" lon="1.38241">
        <ele>464.3</ele>
        <time>2015-05-24T10:09:20Z</time>
      </trkpt>
      <trkpt lat="45.96319" lon="1.38233">
        <ele>461.3</ele>
        <time>2015-05-24T10:09:28Z</time>
      </trkpt>
      <trkpt lat="45.96301" lon="1.38218">
        <ele>458.6</ele>
        <time>2015-05-24T10:09:35Z</time>
      </trkpt>
      <trkpt lat="45.96287" lon="1.38201">
        <ele>456</ele>
        <time>2015-05-24T10:09:42Z</time>
      </trkpt>
      <trkpt lat="45.9627" lon="1.38193">
        <ele>453.1</ele>
        <time>2015-05-24T10:09:50Z</time>
      </trkpt>
      <trkpt lat="45.96269" lon="1.38195">
        <ele>452.9</ele>
        <time>2015-05-24T10:09:51Z</time>
      </trkpt>
      <trkpt lat="45.96264" lon="1.38209">
        <ele>452</ele>
        <time>2015-05-24T10:09:56Z</time>
      </trkpt>
      <trkpt lat="45.96264" lon="1.38235">
        <ele>450.7</ele>
        <time>2015-05-24T10:10:08Z</time>
      </trkpt>
      <trkpt lat="45.96264" lon="1.3824">
        <ele>450.6</ele>
        <time>2015-05-24T10:10:10Z</time>
      </trkpt>
      <trkpt lat="45.9626" lon="1.38259">
        <ele>449.1</ele>
        <time>2015-05-24T10:10:19Z</time>
      </trkpt>
      <trkpt lat="45.9626" lon="1.38268">
        <ele>448.6</ele>
        <time>2015-05-24T10:10:23Z</time>
      </trkpt>
      <trkpt lat="45.96256" lon="1.38289">
        <ele>446.9</ele>
        <time>2015-05-24T10:10:30Z</time>
      </trkpt>
      <trkpt lat="45.96257" lon="1.38307">
        <ele>445.4</ele>
        <time>2015-05-24T10:10:39Z</time>
      </trkpt>
      <trkpt lat="45.96257" lon="1.38315">
        <ele>444.5</ele>
        <time>2015-05-24T10:10:42Z</time>
      </trkpt>
      <trkpt lat="45.9625" lon="1.3834">
        <ele>440.8</ele>
        <time>2015-05-24T10:10:51Z</time>
      </trkpt>
      <trkpt lat="45.96254" lon="1.38365">
        <ele>438.9</ele>
        <time>2015-05-24T10:11:00Z</time>
      </trkpt>
      <trkpt lat="45.96253" lon="1.38392">
        <ele>436.8</ele>
        <time>2015-05-24T10:11:08Z</time>
      </trkpt>
      <trkpt lat="45.96253" lon="1.384">
        <ele>436.3</ele>
        <time>2015-05-24T10:11:10Z</time>
      </trkpt>
      <trkpt lat="45.96249" lon="1.38423">
        <ele>434.5</ele>
        <time>2015-05-24T10:11:16Z</time>
      </trkpt>
      <trkpt lat="45.96243" lon="1.38448">
        <ele>432.4</ele>
        <time>2015-05-24T10:11:23Z</time>
      </trkpt>
      <trkpt lat="45.96234" lon="1.38472">
        <ele>431.1</ele>
        <time>2015-05-24T10:11:32Z</time>
      </trkpt>
      <trkpt lat="45.96228" lon="1.38486">
        <ele>431</ele>
        <time>2015-05-24T10:11:37Z</time>
      </trkpt>
      <trkpt lat="45.96218" lon="1.38498">
        <ele>430.6</ele>
        <time>2015-05-24T10:11:45Z</time>
      </trkpt>
      <trkpt lat="45.96201" lon="1.3851">
        <ele>430</ele>
        <time>2015-05-24T10:11:54Z</time>
      </trkpt>
      <trkpt lat="45.96189" lon="1.38515">
        <ele>429.6</ele>
        <time>2015-05-24T10:12:00Z</time>
      </trkpt>
      <trkpt lat="45.96174" lon="1.38525">
        <ele>429.2</ele>
        <time>2015-05-24T10:12:08Z</time>
      </trkpt>
      <trkpt lat="45.96157" lon="1.38529">
        <ele>428.3</ele>
        <time>2015-05-24T10:12:15Z</time>
      </trkpt>
      <trkpt lat="45.96139" lon="1.3854">
        <ele>427.7</ele>
        <time>2015-05-24T10:12:22Z</time>
      </trkpt>
      <trkpt lat="45.96121" lon="1.38552">
        <ele>427.5</ele>
        <time>2015-05-24T10:12:29Z</time>
      </trkpt>
      <trkpt lat="45.96102" lon="1.3856">
        <ele>427.9</ele>
        <time>2015-05-24T10:12:36Z</time>
      </trkpt>
      <trkpt lat="45.96084" lon="1.3857">
        <ele>428.4</ele>
        <time>2015-05-24T10:12:43Z</time>
      </trkpt>
      <trkpt lat="45.96066" lon="1.38581">
        <ele>428.9</ele>
        <time>2015-05-24T10:12:52Z</time>
      </trkpt>
      <trkpt lat="45.96048" lon="1.38589">
        <ele>429.3</ele>
        <time>2015-05-24T10:13:01Z</time>
      </trkpt>
      <trkpt lat="45.9603" lon="1.38596">
        <ele>428.9</ele>
        <time>2015-05-24T10:13:10Z</time>
      </trkpt>
      <trkpt lat="45.96013" lon="1.38607">
        <ele>428.3</ele>
        <time>2015-05-24T10:13:20Z</time>
      </trkpt>
      <trkpt lat="45.95994" lon="1.38616">
        <ele>427.3</ele>
        <time>2015-05-24T10:13:31Z</time>
      </trkpt>
      <trkpt lat="45.95978" lon="1.38628">
        <ele>426.6</ele>
        <time>2015-05-24T10:13:41Z</time>
      </trkpt>
      <trkpt lat="45.95963" lon="1.38644">
        <ele>427</ele>
        <time>2015-05-24T10:13:51Z</time>
      </trkpt>
      <trkpt lat="45.95949" lon="1.38661">
        <ele>427.8</ele>
        <time>2015-05-24T10:14:01Z</time>
      </trkpt>
      <trkpt lat="45.95932" lon="1.38675">
        <ele>427.7</ele>
        <time>2015-05-24T10:14:11Z</time>
      </trkpt>
      <trkpt lat="45.95918" lon="1.38693">
        <ele>428</ele>
        <time>2015-05-24T10:14:21Z</time>
      </trkpt>
      <trkpt lat="45.95903" lon="1.38709">
        <ele>427.7</ele>
        <time>2015-05-24T10:14:31Z</time>
      </trkpt>
      <trkpt lat="45.95888" lon="1.38724">
        <ele>427.1</ele>
        <time>2015-05-24T10:14:40Z</time>
      </trkpt>
      <trkpt lat="45.95874" lon="1.3874">
        <ele>426.8</ele>
        <time>2015-05-24T10:14:48Z</time>
      </trkpt>
      <trkpt lat="45.95855" lon="1.38755">
        <ele>426.2</ele>
        <time>2015-05-24T10:14:56Z</time>
      </trkpt>
      <trkpt lat="45.95838" lon="1.38771">
        <ele>425.6</ele>
        <time>2015-05-24T10:15:04Z</time>
      </trkpt>
      <trkpt lat="45.95824" lon="1.3879">
        <ele>425.1</ele>
        <time>2015-05-24T10:15:12Z</time>
      </trkpt>
      <trkpt lat="45.95812" lon="1.38808">
        <ele>424.4</ele>
        <time>2015-05-24T10:15:20Z</time>
      </trkpt>
      <trkpt lat="45.95799" lon="1.38831">
        <ele>424.4</ele>
        <time>2015-05-24T10:15:28Z</time>
      </trkpt>
      <trkpt lat="45.95785" lon="1.38854">
        <ele>424.4</ele>
        <time>2015-05-24T10:15:36Z</time>
      </trkpt>
      <trkpt lat="45.95774" lon="1.38875">
        <ele>424.3</ele>
        <time>2015-05-24T10:15:43Z</time>
      </trkpt>
      <trkpt lat="45.95772" lon="1.38877">
        <ele>424.1</ele>
        <time>2015-05-24T10:15:44Z</time>
      </trkpt>
      <trkpt lat="45.95756" lon="1.38892">
        <ele>422.9</ele>
        <time>2015-05-24T10:15:54Z</time>
      </trkpt>
      <trkpt lat="45.9574" lon="1.38908">
        <ele>422.5</ele>
        <time>2015-05-24T10:16:03Z</time>
      </trkpt>
      <trkpt lat="45.95736" lon="1.38912">
        <ele>422.4</ele>
        <time>2015-05-24T10:16:07Z</time>
      </trkpt>
      <trkpt lat="45.9572" lon="1.38927">
        <ele>422.7</ele>
        <time>2015-05-24T10:16:17Z</time>
      </trkpt>
      <trkpt lat="45.95703" lon="1.38938">
        <ele>423.1</ele>
        <time>2015-05-24T10:16:24Z</time>
      </trkpt>
      <trkpt lat="45.95701" lon="1.38939">
        <ele>423.1</ele>
        <time>2015-05-24T10:16:25Z</time>
      </trkpt>
      <trkpt lat="45.95703" lon="1.38955">
        <ele>424.5</ele>
        <time>2015-05-24T10:16:32Z</time>
      </trkpt>
      <trkpt lat="45.95713" lon="1.38978">
        <ele>425.5</ele>
        <time>2015-05-24T10:16:42Z</time>
      </trkpt>
      <trkpt lat="45.95721" lon="1.39002">
        <ele>425.6</ele>
        <time>2015-05-24T10:16:50Z</time>
      </trkpt>
      <trkpt lat="45.95724" lon="1.39017">
        <ele>425.6</ele>
        <time>2015-05-24T10:16:54Z</time>
      </trkpt>
      <trkpt lat="45.95725" lon="1.39045">
        <ele>425.7</ele>
        <time>2015-05-24T10:17:02Z</time>
      </trkpt>
      <trkpt lat="45.95722" lon="1.39071">
        <ele>425.5</ele>
        <time>2015-05-24T10:17:09Z</time>
      </trkpt>
      <trkpt lat="45.95724" lon="1.39097">
        <ele>424.6</ele>
        <time>2015-05-24T10:17:16Z</time>
      </trkpt>
      <trkpt lat="45.95725" lon="1.39099">
        <ele>424.4</ele>
        <time>2015-05-24T10:17:17Z</time>
      </trkpt>
      <trkpt lat="45.95736" lon="1.39095">
        <ele>422.6</ele>
        <time>2015-05-24T10:17:25Z</time>
      </trkpt>
      <trkpt lat="45.95753" lon="1.39083">
        <ele>420.3</ele>
        <time>2015-05-24T10:17:33Z</time>
      </trkpt>
      <trkpt lat="45.95769" lon="1.3907">
        <ele>418.5</ele>
        <time>2015-05-24T10:17:42Z</time>
      </trkpt>
      <trkpt lat="45.95777" lon="1.39078">
        <ele>416.7</ele>
        <time>2015-05-24T10:17:47Z</time>
      </trkpt>
      <trkpt lat="45.95787" lon="1.39091">
        <ele>414.3</ele>
        <time>2015-05-24T10:17:54Z</time>
      </trkpt>
      <trkpt lat="45.95775" lon="1.39112">
        <ele>415</ele>
        <time>2015-05-24T10:18:03Z</time>
      </trkpt>
      <trkpt lat="45.95774" lon="1.39116">
        <ele>414.9</ele>
        <time>2015-05-24T10:18:04Z</time>
      </trkpt>
      <trkpt lat="45.95771" lon="1.39137">
        <ele>414.3</ele>
        <time>2015-05-24T10:18:10Z</time>
      </trkpt>
      <trkpt lat="45.95765" lon="1.39162">
        <ele>414.1</ele>
        <time>2015-05-24T10:18:17Z</time>
      </trkpt>
      <trkpt lat="45.95756" lon="1.39185">
        <ele>414.7</ele>
        <time>2015-05-24T10:18:26Z</time>
      </trkpt>
      <trkpt lat="45.95749" lon="1.39194">
        <ele>415.5</ele>
        <time>2015-05-24T10:18:30Z</time>
      </trkpt>
      <trkpt lat="45.95737" lon="1.39204">
        <ele>417.2</ele>
        <time>2015-05-24T10:18:36Z</time>
      </trkpt>
      <trkpt lat="45.95726" lon="1.39215">
        <ele>417.9</ele>
        <time>2015-05-24T10:18:42Z</time>
      </trkpt>
      <trkpt lat="45.9571" lon="1.39232">
        <ele>417.8</ele>
        <time>2015-05-24T10:18:50Z</time>
      </trkpt>
      <trkpt lat="45.95695" lon="1.39249">
        <ele>415.3</ele>
        <time>2015-05-24T10:18:56Z</time>
      </trkpt>
      <trkpt lat="45.9568" lon="1.39264">
        <ele>413</ele>
        <time>2015-05-24T10:19:02Z</time>
      </trkpt>
      <trkpt lat="45.95675" lon="1.3927">
        <ele>412.1</ele>
        <time>2015-05-24T10:19:04Z</time>
      </trkpt>
      <trkpt lat="45.95665" lon="1.39291">
        <ele>409.1</ele>
        <time>2015-05-24T10:19:11Z</time>
      </trkpt>
      <trkpt lat="45.95657" lon="1.39316">
        <ele>404.7</ele>
        <time>2015-05-24T10:19:17Z</time>
      </trkpt>
      <trkpt lat="45.95643" lon="1.39333">
        <ele>402.4</ele>
        <time>2015-05-24T10:19:24Z</time>
      </trkpt>
      <trkpt lat="45.95624" lon="1.39343">
        <ele>402.1</ele>
        <time>2015-05-24T10:19:33Z</time>
      </trkpt>
      <trkpt lat="45.95616" lon="1.39346">
        <ele>402</ele>
        <time>2015-05-24T10:19:37Z</time>
      </trkpt>
      <trkpt lat="45.95596" lon="1.3935">
        <ele>402.8</ele>
        <time>2015-05-24T10:19:44Z</time>
      </trkpt>
      <trkpt lat="45.95592" lon="1.39349">
        <ele>403</ele>
        <time>2015-05-24T10:19:45Z</time>
      </trkpt>
      <trkpt lat="45.95574" lon="1.39344">
        <ele>404.8</ele>
        <time>2015-05-24T10:19:52Z</time>
      </trkpt>
      <trkpt lat="45.95557" lon="1.39338">
        <ele>406.6</ele>
        <time>2015-05-24T10:20:01Z</time>
      </trkpt>
      <trkpt lat="45.95555" lon="1.39338">
        <ele>406.7</ele>
        <time>2015-05-24T10:20:02Z</time>
      </trkpt>
      <trkpt lat="45.95546" lon="1.39333">
        <ele>407.8</ele>
        <time>2015-05-24T10:20:10Z</time>
      </trkpt>
      <trkpt lat="45.9553" lon="1.39323">
        <ele>410.6</ele>
        <time>2015-05-24T10:20:27Z</time>
      </trkpt>
      <trkpt lat="45.95515" lon="1.39309">
        <ele>413.7</ele>
        <time>2015-05-24T10:20:44Z</time>
      </trkpt>
      <trkpt lat="45.95495" lon="1.39301">
        <ele>416.6</ele>
        <time>2015-05-24T10:20:56Z</time>
      </trkpt>
      <trkpt lat="45.95477" lon="1.39299">
        <ele>418.6</ele>
        <time>2015-05-24T10:21:07Z</time>
      </trkpt>
      <trkpt lat="45.95459" lon="1.39297">
        <ele>420.5</ele>
        <time>2015-05-24T10:21:21Z</time>
      </trkpt>
      <trkpt lat="45.95455" lon="1.39296">
        <ele>420.6</ele>
        <time>2015-05-24T10:21:24Z</time>
      </trkpt>
      <trkpt lat="45.95437" lon="1.39299">
        <ele>419.8</ele>
        <time>2015-05-24T10:21:44Z</time>
      </trkpt>
      <trkpt lat="45.95418" lon="1.39299">
        <ele>419.3</ele>
        <time>2015-05-24T10:22:03Z</time>
      </trkpt>
      <trkpt lat="45.954" lon="1.39294">
        <ele>418.8</ele>
        <time>2015-05-24T10:22:19Z</time>
      </trkpt>
      <trkpt lat="45.95391" lon="1.39282">
        <ele>418.3</ele>
        <time>2015-05-24T10:22:29Z</time>
      </trkpt>
      <trkpt lat="45.95391" lon="1.39278">
        <ele>418.1</ele>
        <time>2015-05-24T10:22:32Z</time>
      </trkpt>
      <trkpt lat="45.954" lon="1.39255">
        <ele>417.8</ele>
        <time>2015-05-24T10:22:43Z</time>
      </trkpt>
      <trkpt lat="45.95409" lon="1.39232">
        <ele>417.6</ele>
        <time>2015-05-24T10:22:53Z</time>
      </trkpt>
      <trkpt lat="45.9541" lon="1.39229">
        <ele>417.6</ele>
        <time>2015-05-24T10:22:54Z</time>
      </trkpt>
      <trkpt lat="45.95411" lon="1.39201">
        <ele>416.7</ele>
        <time>2015-05-24T10:23:02Z</time>
      </trkpt>
      <trkpt lat="45.95411" lon="1.39198">
        <ele>416.5</ele>
        <time>2015-05-24T10:23:03Z</time>
      </trkpt>
      <trkpt lat="45.95396" lon="1.39178">
        <ele>414.2</ele>
        <time>2015-05-24T10:23:12Z</time>
      </trkpt>
      <trkpt lat="45.95384" lon="1.3916">
        <ele>412.2</ele>
        <time>2015-05-24T10:23:17Z</time>
      </trkpt>
      <trkpt lat="45.95371" lon="1.3914">
        <ele>409.8</ele>
        <time>2015-05-24T10:23:24Z</time>
      </trkpt>
      <trkpt lat="45.95356" lon="1.39119">
        <ele>407.8</ele>
        <time>2015-05-24T10:23:31Z</time>
      </trkpt>
      <trkpt lat="45.9534" lon="1.391">
        <ele>405.9</ele>
        <time>2015-05-24T10:23:37Z</time>
      </trkpt>
      <trkpt lat="45.95324" lon="1.39082">
        <ele>404.3</ele>
        <time>2015-05-24T10:23:42Z</time>
      </trkpt>
      <trkpt lat="45.95308" lon="1.39063">
        <ele>402.7</ele>
        <time>2015-05-24T10:23:48Z</time>
      </trkpt>
      <trkpt lat="45.95305" lon="1.39062">
        <ele>402.5</ele>
        <time>2015-05-24T10:23:49Z</time>
      </trkpt>
      <trkpt lat="45.95287" lon="1.3907">
        <ele>401.8</ele>
        <time>2015-05-24T10:23:55Z</time>
      </trkpt>
      <trkpt lat="45.95267" lon="1.39072">
        <ele>400</ele>
        <time>2015-05-24T10:24:01Z</time>
      </trkpt>
      <trkpt lat="45.9525" lon="1.39077">
        <ele>398.5</ele>
        <time>2015-05-24T10:24:07Z</time>
      </trkpt>
      <trkpt lat="45.95242" lon="1.39084">
        <ele>397.9</ele>
        <time>2015-05-24T10:24:10Z</time>
      </trkpt>
      <trkpt lat="45.95237" lon="1.39061">
        <ele>396.5</ele>
        <time>2015-05-24T10:24:15Z</time>
      </trkpt>
      <trkpt lat="45.95238" lon="1.39029">
        <ele>395.8</ele>
        <time>2015-05-24T10:24:20Z</time>
      </trkpt>
      <trkpt lat="45.95237" lon="1.39002">
        <ele>395.8</ele>
        <time>2015-05-24T10:24:24Z</time>
      </trkpt>
      <trkpt lat="45.95237" lon="1.38984">
        <ele>395.7</ele>
        <time>2015-05-24T10:24:27Z</time>
      </trkpt>
      <trkpt lat="45.95231" lon="1.38957">
        <ele>395.4</ele>
        <time>2015-05-24T10:24:32Z</time>
      </trkpt>
      <trkpt lat="45.95219" lon="1.38936">
        <ele>394.6</ele>
        <time>2015-05-24T10:24:37Z</time>
      </trkpt>
      <trkpt lat="45.95204" lon="1.3892">
        <ele>393.7</ele>
        <time>2015-05-24T10:24:44Z</time>
      </trkpt>
      <trkpt lat="45.95203" lon="1.3892">
        <ele>393.6</ele>
        <time>2015-05-24T10:24:45Z</time>
      </trkpt>
    </trkseg>
  </trk>
</gpx>